[[{"header":{"parameterUnit":"m.s-1","parameterCategory":1,"la1":30.6,"la2":29.2853,"lo1":-89.7004,"lo2":-87.6739,"dy":0.0162,"dx":0.0183,"nx":112,"ny":82,"refTime":"2023-08-22T12:00:00:Z","depth":0,"parameterNumber":2,"parameterNumberName":"U-component_of_WINDS"},"data":[0.0,0.0,0.0,0.0,0.0,0.0,0.0,0.0,0.0,0.0,0.0,0.0,0.0,0.0,0.0,0.0,0.0,0.0,0.0,0.0,0.0,0.0,0.0,0.0,0.0,0.0,0.0,0.0,0.0,0.0,0.0,0.0,0.0,0.0,0.0,0.0,0.0,0.0,0.0,0.0,0.0,0.0,0.0,0.0,0.0,0.0,0.0,0.0,0.0,0.0,0.0,0.0,0.0,0.0,0.0,0.0,0.0,0.0,0.0,0.0,0.0,0.0,0.0,0.0,0.0,0.0,0.0,0.0,0.0,0.0,0.0,0.0,0.0,0.0,0.0,0.0,0.0,0.0,0.0,0.0,0.0,0.0,0.0,0.0,0.0,0.0,0.0,0.0,0.0,0.0,2.0927,2.2029,2.3352,2.4229,2.4424,2.3909,2.3081,2.1939,0.0,0.0,0.0,0.0,0.0,0.0,0.0,0.0,0.0,0.0,0.0,0.0,0.0,0.0,0.0,0.0,0.0,0.0,0.0,0.0,0.0,0.0,0.0,0.0,0.0,0.0,0.0,0.0,0.0,0.0,0.0,0.0,0.0,0.0,0.0,0.0,0.0,0.0,0.0,0.0,0.0,0.0,0.0,0.0,0.0,0.0,0.0,0.0,0.0,0.0,0.0,0.0,0.0,0.0,0.0,0.0,0.0,0.0,0.0,0.0,0.0,0.0,0.0,0.0,0.0,0.0,0.0,0.0,0.0,0.0,0.0,0.0,0.0,0.0,0.0,0.0,0.0,0.0,0.0,0.0,0.0,0.0,0.0,0.0,0.0,0.0,0.0,0.0,0.0,0.0,0.0,0.0,0.0,0.0,0.0,0.0,0.0,0.0,0.0,0.0,0.0,0.0,0.0,0.0,2.1615,2.317,2.3949,2.4439,2.4642,2.421,2.344,2.2314,0.0,0.0,0.0,0.0,0.0,0.0,0.0,0.0,0.0,0.0,0.0,0.0,0.0,0.0,0.0,0.0,0.0,0.0,0.0,0.0,0.0,0.0,0.0,0.0,0.0,0.0,0.0,0.0,0.0,0.0,0.0,0.0,0.0,0.0,0.0,0.0,0.0,0.0,0.0,0.0,0.0,0.0,0.0,0.0,0.0,0.0,0.0,0.0,0.0,0.0,0.0,0.0,0.0,0.0,0.0,0.0,0.0,0.0,0.0,0.0,0.0,0.0,0.0,0.0,0.0,0.0,0.0,0.0,0.0,0.0,0.0,0.0,0.0,0.0,0.0,0.0,0.0,0.0,0.0,0.0,0.0,0.0,0.0,0.0,0.0,0.0,0.0,0.0,0.0,0.0,0.0,0.0,0.0,0.0,0.0,0.0,0.0,0.0,0.0,0.0,0.0,0.0,0.0,2.172,2.2608,2.3705,2.4228,2.4591,2.4742,2.4352,2.3642,2.259,2.0915,0.0,0.0,0.0,0.0,0.0,0.0,0.0,0.0,0.0,0.0,0.0,0.0,0.0,0.0,0.0,0.0,0.0,0.0,0.0,0.0,0.0,0.0,0.0,0.0,0.0,0.0,0.0,0.0,0.0,0.0,0.0,0.0,0.0,0.0,0.0,0.0,0.0,0.0,0.0,0.0,0.0,0.0,0.0,0.0,0.0,0.0,0.0,0.0,0.0,0.0,0.0,0.0,0.0,0.0,0.0,0.0,0.0,0.0,0.0,0.0,0.0,0.0,0.0,0.0,0.0,0.0,0.0,0.0,0.0,0.0,0.0,0.0,0.0,0.0,0.0,0.0,0.0,0.0,0.0,0.0,0.0,0.0,0.0,0.0,0.0,0.0,0.0,0.0,0.0,0.0,0.0,0.0,0.0,0.0,0.0,0.0,0.0,0.0,0.0,0.0,0.0,0.0,2.2712,2.3401,2.3984,2.4405,2.4704,2.4802,2.4456,2.3818,2.2835,2.1392,0.0,0.0,0.0,0.0,0.0,0.0,0.0,0.0,0.0,0.0,0.0,0.0,0.0,0.0,0.0,0.0,0.0,0.0,0.0,0.0,0.0,0.0,0.0,0.0,0.0,0.0,0.0,0.0,0.0,0.0,0.0,0.0,0.0,0.0,0.0,0.0,0.0,0.0,0.0,0.0,0.0,0.0,0.0,0.0,0.0,0.0,0.0,0.0,0.0,0.0,0.0,0.0,0.0,0.0,0.0,0.0,0.0,0.0,0.0,0.0,0.0,0.0,0.0,0.0,0.0,0.0,0.0,0.0,0.0,0.0,0.0,0.0,0.0,0.0,0.0,0.0,0.0,0.0,0.0,0.0,0.0,0.0,0.0,0.0,0.0,0.0,0.0,0.0,0.0,0.0,0.0,0.0,0.0,0.0,0.0,0.0,0.0,0.0,0.0,0.0,0.0,0.0,2.2986,2.3678,2.4137,2.4554,2.4823,2.4884,2.4586,2.3971,2.3038,2.1771,0.0,0.0,0.0,0.0,0.0,0.0,0.0,0.0,0.0,0.0,0.0,0.0,0.0,0.0,0.0,0.0,0.0,0.0,0.0,0.0,0.0,0.0,0.0,0.0,0.0,0.0,0.0,0.0,0.0,0.0,0.0,0.0,0.0,0.0,0.0,0.0,0.0,0.0,0.0,0.0,0.0,0.0,0.0,0.0,0.0,0.0,0.0,0.0,0.0,0.0,0.0,0.0,0.0,0.0,0.0,0.0,0.0,0.0,0.0,0.0,0.0,0.0,0.0,0.0,0.0,0.0,0.0,0.0,0.0,0.0,0.0,0.0,0.0,0.0,0.0,0.0,0.0,0.0,0.0,0.0,0.0,0.0,0.0,0.0,0.0,0.0,0.0,0.0,0.0,0.0,0.0,0.0,0.0,0.0,0.0,0.0,0.0,0.0,0.0,0.0,0.0,0.0,2.3333,2.3906,0.0,2.4712,2.4921,2.4953,2.4663,2.4099,2.3257,0.0,0.0,0.0,0.0,0.0,0.0,0.0,0.0,0.0,0.0,0.0,0.0,0.0,0.0,0.0,0.0,0.0,0.0,0.0,0.0,0.0,0.0,0.0,0.0,0.0,0.0,0.0,0.0,0.0,0.0,0.0,0.0,0.0,0.0,0.0,0.0,0.0,0.0,0.0,0.0,0.0,0.0,0.0,0.0,0.0,0.0,0.0,0.0,0.0,0.0,0.0,0.0,0.0,0.0,0.0,0.0,0.0,0.0,0.0,0.0,0.0,0.0,0.0,0.0,0.0,0.0,0.0,0.0,0.0,0.0,0.0,0.0,0.0,0.0,0.0,0.0,0.0,0.0,0.0,0.0,0.0,0.0,0.0,0.0,0.0,0.0,0.0,0.0,0.0,0.0,0.0,0.0,0.0,0.0,0.0,0.0,0.0,0.0,0.0,0.0,0.0,0.0,2.3021,2.3617,2.4136,0.0,2.4847,2.5006,2.5019,2.4752,2.4258,2.3446,0.0,0.0,0.0,0.0,0.0,0.0,0.0,0.0,0.0,0.0,0.0,0.0,0.0,0.0,0.0,0.0,0.0,0.0,0.0,0.0,0.0,0.0,0.0,0.0,0.0,0.0,0.0,0.0,0.0,0.0,0.0,0.0,0.0,0.0,0.0,0.0,0.0,0.0,0.0,0.0,0.0,0.0,0.0,0.0,0.0,0.0,0.0,0.0,0.0,0.0,0.0,0.0,0.0,0.0,0.0,0.0,0.0,0.0,0.0,0.0,0.0,0.0,0.0,0.0,0.0,0.0,0.0,0.0,0.0,0.0,0.0,0.0,0.0,0.0,0.0,0.0,0.0,0.0,0.0,0.0,0.0,0.0,0.0,0.0,0.0,0.0,0.0,0.0,0.0,0.0,0.0,0.0,0.0,0.0,0.0,0.0,0.0,0.0,0.0,0.0,0.0,0.0,2.33,2.3821,2.4284,2.476,2.4929,2.5038,2.5101,2.4921,2.4463,0.0,0.0,0.0,0.0,0.0,0.0,0.0,0.0,0.0,0.0,0.0,0.0,0.0,0.0,0.0,0.0,0.0,0.0,0.0,0.0,0.0,0.0,0.0,0.0,0.0,0.0,0.0,0.0,0.0,0.0,0.0,0.0,0.0,0.0,0.0,0.0,0.0,0.0,0.0,0.0,0.0,0.0,0.0,0.0,0.0,0.0,0.0,0.0,0.0,0.0,0.0,0.0,0.0,0.0,0.0,0.0,0.0,0.0,0.0,0.0,0.0,0.0,0.0,0.0,0.0,0.0,0.0,0.0,0.0,0.0,0.0,0.0,0.0,0.0,0.0,0.0,0.0,0.0,0.0,0.0,0.0,0.0,0.0,0.0,0.0,0.0,0.0,0.0,0.0,0.0,0.0,0.0,0.0,0.0,0.0,0.0,0.0,0.0,0.0,0.0,0.0,0.0,0.0,2.3361,2.3868,2.4352,2.4814,2.4987,2.5103,2.5168,2.4987,2.4603,2.3989,0.0,0.0,0.0,0.0,0.0,0.0,0.0,0.0,0.0,0.0,0.0,0.0,0.0,0.0,0.0,0.0,0.0,0.0,0.0,0.0,0.0,0.0,0.0,0.0,0.0,0.0,0.0,0.0,0.0,0.0,0.0,0.0,0.0,0.0,0.0,0.0,0.0,0.0,0.0,0.0,0.0,0.0,0.0,0.0,0.0,0.0,0.0,0.0,0.0,0.0,0.0,0.0,0.0,0.0,0.0,0.0,0.0,0.0,0.0,0.0,0.0,0.0,0.0,0.0,0.0,0.0,0.0,0.0,0.0,0.0,0.0,0.0,0.0,0.0,0.0,0.0,0.0,0.0,0.0,0.0,0.0,0.0,0.0,0.0,0.0,0.0,0.0,0.0,0.0,0.0,0.0,0.0,0.0,0.0,0.0,0.0,0.0,0.0,0.0,0.0,0.0,0.0,2.3516,2.3967,2.4385,2.4883,2.5056,2.5179,2.5233,2.5107,2.4807,2.4327,0.0,0.0,0.0,0.0,0.0,0.0,0.0,0.0,0.0,0.0,0.0,0.0,0.0,0.0,0.0,0.0,0.0,0.0,0.0,0.0,0.0,0.0,0.0,0.0,0.0,0.0,0.0,0.0,0.0,0.0,0.0,0.0,0.0,0.0,0.0,0.0,0.0,0.0,0.0,0.0,0.0,0.0,0.0,0.0,0.0,0.0,0.0,0.0,0.0,0.0,0.0,0.0,0.0,0.0,0.0,0.0,0.0,0.0,0.0,0.0,0.0,0.0,0.0,0.0,0.0,0.0,0.0,0.0,0.0,0.0,0.0,0.0,0.0,0.0,0.0,0.0,0.0,0.0,0.0,0.0,0.0,0.0,0.0,0.0,0.0,0.0,0.0,0.0,0.0,0.0,0.0,0.0,0.0,0.0,0.0,0.0,0.0,0.0,0.0,0.0,0.0,0.0,2.3702,2.4043,2.4418,2.4936,2.5111,2.5231,2.5313,2.5253,2.5041,2.4651,0.0,0.0,0.0,0.0,0.0,0.0,0.0,0.0,0.0,0.0,0.0,0.0,0.0,0.0,0.0,0.0,0.0,0.0,0.0,0.0,0.0,0.0,0.0,0.0,0.0,0.0,0.0,0.0,0.0,0.0,0.0,0.0,0.0,0.0,0.0,0.0,0.0,0.0,0.0,0.0,0.0,0.0,0.0,0.0,0.0,0.0,0.0,0.0,0.0,0.0,0.0,0.0,0.0,0.0,0.0,0.0,0.0,0.0,0.0,0.0,2.5196,0.0,0.0,0.0,0.0,0.0,0.0,0.0,0.0,0.0,0.0,0.0,0.0,0.0,0.0,0.0,0.0,0.0,0.0,0.0,0.0,0.0,0.0,0.0,0.0,0.0,0.0,0.0,0.0,0.0,0.0,0.0,0.0,0.0,0.0,0.0,0.0,0.0,0.0,0.0,0.0,0.0,2.3723,2.4137,2.4522,2.4949,2.5115,2.5243,2.5369,2.5331,2.5146,2.4854,2.4279,0.0,0.0,0.0,0.0,0.0,0.0,0.0,0.0,0.0,0.0,0.0,0.0,0.0,0.0,0.0,0.0,0.0,0.0,0.0,0.0,0.0,0.0,0.0,0.0,0.0,0.0,0.0,0.0,0.0,0.0,0.0,0.0,0.0,0.0,0.0,0.0,0.0,0.0,0.0,0.0,0.0,0.0,0.0,0.0,0.0,0.0,0.0,0.0,0.0,0.0,0.0,0.0,0.0,0.0,0.0,0.0,0.0,0.0,0.0,0.0,2.5343,0.0,0.0,0.0,0.0,0.0,0.0,0.0,0.0,0.0,0.0,0.0,0.0,0.0,0.0,0.0,0.0,0.0,0.0,0.0,0.0,0.0,0.0,0.0,0.0,0.0,0.0,0.0,0.0,0.0,0.0,0.0,0.0,0.0,0.0,0.0,0.0,0.0,0.0,0.0,0.0,2.4348,2.4413,2.4572,2.5,2.5168,2.5293,2.5393,2.5398,2.5307,2.5109,2.4708,0.0,0.0,0.0,0.0,0.0,0.0,0.0,0.0,0.0,0.0,0.0,0.0,0.0,0.0,0.0,0.0,0.0,0.0,0.0,0.0,0.0,0.0,0.0,0.0,0.0,0.0,0.0,0.0,0.0,0.0,0.0,0.0,0.0,0.0,0.0,0.0,0.0,0.0,0.0,0.0,0.0,0.0,0.0,0.0,0.0,0.0,0.0,0.0,0.0,0.0,0.0,0.0,0.0,2.5836,2.5837,2.5839,2.5839,2.5742,2.5605,2.5527,2.5509,2.5573,0.0,0.0,0.0,0.0,0.0,0.0,0.0,0.0,0.0,0.0,0.0,0.0,0.0,0.0,0.0,0.0,0.0,0.0,0.0,0.0,0.0,0.0,0.0,0.0,0.0,2.4484,2.4385,0.0,0.0,0.0,0.0,0.0,0.0,0.0,0.0,0.0,0.0,0.0,0.0,2.5251,2.4931,2.4826,2.5254,2.5308,2.534,2.5406,2.5485,2.5473,2.5337,2.512,2.4789,0.0,0.0,0.0,0.0,0.0,0.0,0.0,0.0,0.0,0.0,0.0,0.0,0.0,0.0,0.0,0.0,0.0,0.0,0.0,0.0,0.0,0.0,0.0,0.0,0.0,0.0,0.0,0.0,0.0,0.0,0.0,0.0,3.0637,3.0691,0.0,0.0,0.0,0.0,0.0,0.0,0.0,0.0,0.0,0.0,0.0,0.0,0.0,2.5697,2.5693,2.5699,2.6052,2.6735,2.6735,2.6734,2.6734,2.6732,2.6316,2.5605,2.5531,0.0,2.5605,2.5702,0.0,0.0,0.0,0.0,0.0,0.0,0.0,0.0,0.0,0.0,0.0,0.0,0.0,0.0,0.0,0.0,0.0,0.0,0.0,0.0,0.0,0.0,2.493,2.4979,2.4991,2.4967,0.0,2.4335,2.4067,2.4418,2.4322,0.0,0.0,0.0,0.0,0.0,0.0,0.0,2.6173,2.593,2.5827,2.6104,2.5695,2.5404,2.5488,2.555,2.5551,2.5486,2.5387,2.5178,2.4827,2.4974,0.0,0.0,0.0,0.0,0.0,0.0,0.0,0.0,0.0,0.0,0.0,0.0,0.0,0.0,0.0,0.0,0.0,0.0,0.0,0.0,0.0,0.0,0.0,0.0,0.0,0.0,0.0,0.0,0.0,3.0501,3.0558,3.0576,3.0117,2.9535,0.0,0.0,0.0,0.0,0.0,0.0,0.0,0.0,0.0,2.7101,2.7117,2.711,2.7117,2.7106,2.7238,2.7513,2.7513,2.7498,2.7459,2.7453,2.698,2.6152,2.6086,2.5829,2.5438,2.5477,2.545,2.5436,0.0,0.0,0.0,0.0,2.6437,2.6415,2.6028,2.5882,0.0,0.0,0.0,0.0,0.0,0.0,0.0,0.0,0.0,0.0,0.0,0.0,0.0,2.5263,2.5272,2.5244,2.5158,2.486,2.4591,0.0,2.4596,2.4748,2.4903,0.0,0.0,0.0,0.0,2.6639,2.7169,2.6933,2.6616,2.644,2.6236,2.5967,2.5538,2.5562,2.5595,2.56,2.5551,2.541,2.52,2.5488,2.5254,0.0,0.0,0.0,0.0,0.0,0.0,0.0,0.0,0.0,0.0,0.0,0.0,0.0,0.0,0.0,0.0,0.0,0.0,0.0,0.0,0.0,0.0,0.0,0.0,0.0,0.0,0.0,0.0,3.0755,3.0863,3.1067,3.0274,2.9678,0.0,0.0,0.0,0.0,0.0,0.0,2.8255,2.8403,2.8495,2.8471,2.8707,2.8806,2.8819,2.8793,2.8733,2.8636,2.862,2.8461,2.8183,2.8173,2.7701,2.6843,2.6773,2.6403,2.5814,2.547,2.5316,2.5318,2.5347,2.5361,2.5386,2.5406,2.5471,2.5523,2.5531,2.5524,2.5513,2.5464,0.0,2.5343,2.5457,0.0,0.0,0.0,0.0,2.5831,2.5957,2.6047,2.6122,2.6119,2.612,2.6101,2.6047,2.5991,2.5659,0.0,2.4671,2.4935,2.5117,0.0,0.0,0.0,0.0,2.7647,2.8186,2.7918,2.7538,2.717,2.6872,2.6455,2.588,2.5717,2.5656,2.5701,2.5646,2.5568,2.546,2.5699,2.5641,2.5209,0.0,0.0,0.0,0.0,0.0,0.0,0.0,0.0,0.0,0.0,0.0,0.0,0.0,0.0,0.0,0.0,0.0,0.0,0.0,0.0,0.0,0.0,0.0,0.0,0.0,0.0,0.0,0.0,0.0,3.2589,3.1904,0.0,0.0,0.0,0.0,2.8055,2.8062,2.8106,2.8113,2.8884,2.9318,2.9259,3.0047,3.0471,3.0488,3.0412,3.0375,3.0376,3.0307,2.9811,2.8937,2.8941,2.8433,2.7555,2.7477,2.7395,2.7176,2.5719,2.5118,2.5128,2.5195,2.5243,2.531,2.5446,2.554,2.5595,2.5585,2.5586,2.5586,2.5598,2.5504,2.5538,2.6296,2.6477,0.0,0.0,2.77,2.7779,2.7857,2.7958,2.8054,2.8051,2.8062,2.8061,2.8041,2.7998,2.7342,0.0,2.4681,2.4935,2.6204,0.0,2.6543,2.808,2.8548,2.8856,2.9186,2.894,2.876,2.8868,2.7576,2.6718,2.6735,2.6097,2.571,2.5693,2.5698,2.5662,2.559,2.5496,2.5279,2.4927,2.4376,0.0,0.0,0.0,0.0,0.0,0.0,0.0,0.0,0.0,0.0,0.0,0.0,0.0,0.0,0.0,0.0,0.0,0.0,0.0,0.0,0.0,0.0,0.0,0.0,0.0,0.0,0.0,0.0,3.2709,3.227,0.0,3.1667,3.1356,3.1097,3.0975,3.1049,3.1159,3.1255,3.1564,3.1727,3.1727,3.2048,3.2184,3.2144,3.2124,3.2069,3.1975,3.1864,3.1546,3.107,3.1006,3.0502,2.9657,2.9585,2.9286,2.8778,2.8139,2.7301,2.646,2.6469,2.6574,2.6726,2.6869,2.7011,2.7146,2.7138,2.7164,2.7228,2.7255,2.7245,2.7254,2.7496,2.759,2.766,2.7926,2.8029,2.8094,2.8126,2.8198,2.8266,2.8259,2.8257,2.8424,2.8971,2.9049,2.8934,2.8746,2.7547,2.6669,2.7013,2.7662,2.8326,2.8891,2.9998,3.0637,3.0415,3.043,3.0136,2.9228,2.8685,2.8179,2.7731,2.6987,2.6536,2.6542,2.6013,2.5683,2.5662,2.559,2.5422,2.5226,2.4743,2.4209,0.0,0.0,0.0,0.0,0.0,0.0,0.0,0.0,0.0,0.0,0.0,0.0,0.0,0.0,0.0,0.0,0.0,0.0,0.0,0.0,0.0,0.0,0.0,0.0,0.0,0.0,3.3754,3.4249,3.379,3.3353,3.3128,3.2788,3.2561,3.2483,3.2598,3.2878,3.3287,3.36,3.3921,3.4236,3.4513,3.4623,3.4597,3.4589,3.4251,3.3578,3.3448,3.2955,3.2165,3.2064,3.1701,3.1136,3.1075,3.0777,3.0292,3.0188,2.9576,2.8596,2.7809,2.7606,2.7751,2.7638,2.7715,2.7884,2.797,2.821,2.846,2.8236,2.8181,2.824,2.8495,2.8602,2.8756,2.9308,2.9487,2.9572,2.9877,2.9987,3.0021,3.0021,3.0014,3.0175,3.076,3.0857,3.099,3.1577,3.0043,2.8714,2.8797,2.9444,3.002,3.0321,3.1257,3.1862,3.1574,3.1733,3.1525,3.0584,3.0308,2.9862,2.9104,2.831,2.7605,2.7034,2.6463,2.6016,2.5703,2.5659,2.5583,2.5465,2.4956,2.4569,2.4263,0.0,0.0,0.0,0.0,0.0,0.0,0.0,0.0,0.0,0.0,0.0,0.0,0.0,0.0,0.0,0.0,0.0,0.0,0.0,0.0,0.0,0.0,0.0,3.5297,3.5381,3.5902,3.7337,3.6585,3.5581,3.466,3.3795,3.3058,3.2392,3.2517,3.3048,3.3949,3.4883,3.576,3.6542,3.7326,3.7729,3.7733,3.7714,3.684,3.5188,3.504,3.3997,3.2233,3.2107,3.2017,3.1945,3.1945,3.1881,3.1792,3.1787,3.1745,3.1486,2.9135,2.8294,2.8333,2.7759,2.7632,2.779,2.8048,2.8717,2.929,2.8514,2.8306,2.8505,2.9355,2.9624,2.9961,3.1656,3.2142,3.2336,3.3188,3.3402,3.34,3.34,3.3394,3.3418,3.3437,3.3437,3.3452,3.3512,3.2049,3.0996,3.1545,3.1444,3.1562,3.2324,3.2426,0.0,3.2616,3.276,3.287,3.2995,3.2368,3.1615,3.0808,2.9991,2.8834,2.7153,2.703,2.6601,2.5739,2.57,2.5675,2.5634,2.5053,2.4861,2.5045,0.0,0.0,0.0,0.0,0.0,0.0,0.0,0.0,0.0,0.0,0.0,0.0,0.0,0.0,0.0,0.0,0.0,0.0,0.0,0.0,0.0,0.0,3.5153,3.536,3.6291,3.709,3.7392,3.6919,3.6435,3.6131,3.5806,3.559,3.5544,3.5627,3.5897,3.6348,3.7204,3.7813,3.808,3.8328,3.8423,3.8442,3.7736,3.7164,3.6687,3.6393,3.5941,3.5343,3.5203,3.5161,3.5153,3.5153,3.4821,3.4349,3.4869,3.475,3.3976,3.1531,3.0672,3.0833,3.0752,3.0932,3.125,3.1482,3.1742,3.1941,3.1787,3.177,3.187,3.211,3.222,3.2374,3.2892,3.304,3.3105,3.3339,3.3398,3.3397,3.3397,3.3398,3.3574,3.4219,3.4336,3.4726,3.5975,3.5806,3.487,3.3077,3.3093,3.3441,3.3665,3.414,0.0,3.3767,3.3719,3.357,3.3128,3.289,3.2477,3.1774,3.0927,2.9734,2.8045,2.7343,2.6601,2.5739,2.57,2.5937,2.6461,2.6063,2.6056,0.0,0.0,0.0,0.0,0.0,0.0,0.0,0.0,0.0,0.0,0.0,0.0,0.0,0.0,0.0,0.0,0.0,0.0,0.0,0.0,0.0,0.0,3.5929,3.7015,3.7321,3.806,3.8609,3.8754,3.8777,3.8581,3.8146,3.8024,3.7895,3.7682,3.7761,3.8047,3.8558,3.91,3.9566,3.9934,3.9976,3.9976,3.9976,3.9435,3.8949,3.8619,3.8376,3.8005,3.7553,3.745,3.7198,0.0,3.6838,3.6425,3.5736,3.6186,3.6066,0.0,0.0,0.0,0.0,0.0,3.2449,3.3032,3.2828,3.3056,3.3365,3.3091,3.3062,3.3132,3.3147,3.3199,3.3354,3.3775,3.3899,3.4075,3.48,3.4988,3.5093,3.5487,3.5586,3.5723,3.6211,3.6328,3.6621,3.7656,3.7849,0.0,3.5736,3.571,3.5911,3.5886,3.6209,3.6295,3.5842,3.5751,3.5483,3.4814,3.473,3.4151,3.2707,3.2151,0.0,0.0,0.0,2.6992,2.5741,2.605,0.0,0.0,0.0,2.7259,2.7751,0.0,0.0,0.0,2.6017,2.5631,0.0,0.0,0.0,0.0,0.0,0.0,0.0,0.0,0.0,0.0,0.0,0.0,0.0,0.0,0.0,0.0,3.7594,3.9375,4.0233,4.0298,4.0405,4.0804,4.1222,4.1119,4.0209,4.0123,3.986,3.9202,3.9264,3.9676,4.0467,0.0,0.0,0.0,0.0,4.1819,4.1819,4.1716,4.1278,4.0504,4.0447,3.996,3.9146,3.9086,3.864,3.7881,3.779,3.7294,3.656,3.656,3.6523,3.6266,3.4706,3.4136,3.405,3.2956,3.3199,3.3961,3.3363,0.0,0.0,3.3659,3.3493,3.3585,3.3643,3.3703,3.3932,3.4768,3.5016,3.5371,3.6913,3.7336,3.7552,3.8387,3.859,3.8593,3.8594,3.8594,3.8633,3.873,3.875,3.8789,3.8875,3.8569,3.8306,3.8228,3.8175,3.8131,3.8131,3.8054,3.7758,3.7082,0.0,0.0,3.3667,3.3418,3.2018,2.8808,2.8418,2.7617,2.6055,2.6732,2.7166,2.7183,2.7832,2.8429,2.8994,2.8609,2.8596,2.8886,2.7632,2.6911,0.0,0.0,0.0,0.0,0.0,0.0,0.0,0.0,0.0,0.0,0.0,0.0,0.0,0.0,0.0,3.7681,3.8953,4.0179,4.167,4.2171,4.2227,4.1732,4.153,4.1317,4.1006,4.0924,4.0832,4.0743,4.0775,4.0923,4.1204,4.1871,4.2377,4.2567,4.2586,4.2586,4.2586,4.1839,4.1352,4.1223,0.0,0.0,4.0743,4.0698,4.0561,4.0377,3.9717,3.8982,3.8248,3.8248,3.7845,3.7195,3.625,3.5947,3.5992,3.5894,3.6029,3.631,3.6439,3.6635,3.6822,3.684,3.6944,3.7055,3.7115,3.7177,0.0,3.7452,3.7531,3.7653,3.7991,3.813,3.8229,3.8456,3.8528,3.8522,3.8588,3.8593,3.8809,3.9512,3.9644,3.9852,4.0505,3.9426,3.8471,3.8447,3.8373,3.8325,3.8268,3.8197,3.7857,3.7085,3.7061,3.637,3.4586,3.3801,3.2545,3.0527,2.9082,2.8144,2.7812,2.7968,2.8355,2.8984,2.9071,2.9466,3.0171,2.9929,2.9765,2.9658,2.8534,2.7924,0.0,0.0,0.0,0.0,0.0,0.0,0.0,0.0,0.0,0.0,0.0,3.4804,0.0,0.0,3.7816,3.9523,4.0755,4.177,4.2585,4.3165,4.3189,4.2399,4.2414,4.2465,4.2371,4.2304,4.232,4.2353,4.2353,4.2368,4.2465,4.2871,4.3125,4.3158,4.3139,4.3139,4.3139,4.2701,4.2465,4.2465,4.2368,4.2353,4.2353,4.2338,4.2084,4.168,4.1277,4.0634,3.9882,3.9478,3.9056,3.8652,3.8309,3.7437,3.6454,3.6591,3.6686,3.6783,3.7065,3.7222,3.7351,3.7565,3.7728,3.783,3.8003,3.8059,3.8099,3.8143,3.8183,3.8313,3.8771,3.8956,3.9112,3.9597,3.9725,3.9767,3.9786,3.9834,3.9977,4.0429,4.05,4.0623,4.1021,4.0371,3.9799,3.98,3.9741,3.9695,3.9661,3.9593,3.9082,3.7833,3.7759,3.6969,3.489,3.3135,3.1793,3.0957,2.9258,2.8301,2.8301,2.8711,2.9336,3.0133,3.0548,3.1141,3.1907,3.1778,3.141,3.0845,3.0224,2.949,0.0,0.0,0.0,0.0,0.0,0.0,0.0,3.7166,3.7005,3.6347,3.6719,3.7273,3.7567,3.874,3.9982,4.1079,4.2302,4.3128,4.3239,4.3639,4.3651,4.2965,4.3439,4.3821,4.3736,4.3718,4.3718,4.3718,4.3718,4.3718,4.3718,4.3718,4.3718,4.3718,4.3571,4.3497,4.3497,4.3497,4.3497,4.3497,4.3497,4.3497,4.3497,4.3497,4.3149,4.2525,4.2378,4.1846,4.1056,4.0396,4.012,4.012,4.012,3.8977,3.7308,3.7395,3.735,3.7302,3.7511,3.7547,3.7581,3.7864,3.8004,3.8098,3.8342,3.8443,3.8454,3.8535,3.8562,3.8743,3.9502,3.9766,4.0033,4.0907,4.1163,4.1259,4.1452,4.141,4.1328,4.1326,4.1219,4.1101,4.1097,4.1094,4.111,4.1092,4.1055,4.1027,4.1013,4.0974,4.0356,3.8832,3.8565,3.7467,3.4925,3.2821,3.1504,3.1172,2.9824,2.9062,2.9062,2.9726,3.0488,3.1289,3.1987,3.268,3.3314,3.3275,3.2848,3.2078,3.198,3.1066,3.4074,3.5854,3.7444,3.7039,3.8303,3.9418,0.0,3.8479,3.8549,3.8368,3.8483,3.8836,3.9692,4.0018,4.0659,4.2318,4.2686,4.2996,4.3719,4.3693,4.3612,4.352,4.4186,4.4632,4.4563,4.4545,4.458,4.458,4.458,4.458,4.458,4.458,4.458,4.458,4.3864,4.3497,4.3497,4.3497,4.3497,4.3497,4.3497,4.3497,4.3497,4.3497,4.3442,4.3314,4.2598,4.1846,4.1111,4.102,4.0983,4.0983,4.0983,4.0818,4.0561,4.0638,4.0209,3.9663,3.9928,3.9581,3.9121,3.9452,3.9648,3.9753,3.991,4.0001,4.0055,4.0194,4.0239,4.0269,4.0429,4.0538,4.0804,4.1673,4.1931,4.2209,4.3033,4.2656,4.2171,4.2168,4.1581,4.11,4.1103,4.1095,4.109,4.111,4.1091,4.1094,4.1085,4.1085,4.0705,3.976,3.8961,3.7459,3.4928,3.4449,3.3633,3.2148,3.1875,3.1758,3.1758,3.1855,3.2285,3.3086,3.3203,3.3299,3.3393,3.338,3.3285,3.313,3.3126,3.2036,3.4751,3.6539,3.7945,3.8061,3.9135,4.0104,3.9777,3.9686,3.9701,3.9719,3.9701,4.0151,4.165,4.1941,4.254,0.0,4.4604,4.4718,4.5118,4.4646,4.423,4.423,4.4928,4.5258,4.4764,4.5131,4.5406,4.5406,4.5406,4.5406,4.5406,4.5406,4.5186,4.4727,4.4378,4.3975,4.3497,4.3497,4.3497,4.3497,4.3497,4.3497,4.3497,4.3497,4.3497,4.3461,4.313,4.2543,4.1809,4.1809,4.1809,4.1809,4.1809,4.2084,4.2378,4.1475,4.0924,4.0662,4.0812,4.0693,4.0438,4.0263,4.0265,4.0316,4.0091,4.008,4.0139,4.0289,4.0341,4.0411,4.0515,4.0943,4.1431,4.1842,4.2376,4.292,4.3303,4.3169,4.2857,4.2393,4.2025,4.1799,4.1811,4.1805,4.1797,4.1807,4.1392,4.1093,4.1094,4.1107,4.0581,3.9247,3.8326,3.7175,3.558,3.4999,3.4394,3.3691,3.3184,3.2891,3.2891,3.2891,3.3301,3.4141,3.416,3.4414,3.4902,3.492,3.4642,3.4105,3.4105,3.337,3.5488,3.7206,3.859,3.9128,4.0188,4.1171,4.1189,4.1351,4.1456,4.153,4.1474,4.1893,4.3335,4.3629,4.4161,4.559,4.5828,4.5847,4.6011,4.546,4.5039,4.5039,4.5736,4.6012,4.5424,4.5902,4.6232,4.6232,4.6232,4.6232,4.6232,4.6232,4.5975,4.5388,4.5168,4.4745,4.4158,4.3938,4.3828,4.3828,4.3608,4.3497,4.3497,4.3497,4.3497,4.3497,4.3497,4.3167,4.2635,4.2635,4.2635,4.2635,4.2635,4.2983,4.3351,4.2194,4.1625,4.1442,4.1521,4.142,4.1182,4.0616,4.0476,4.0416,3.9915,3.9826,3.9892,4.008,4.033,4.0577,4.0743,4.1409,4.2151,4.2486,4.3076,4.3659,4.3912,4.3862,4.353,4.2719,4.2408,4.2235,4.2226,4.2224,4.2319,4.256,4.189,4.1315,4.1114,4.1093,4.0543,3.911,3.817,3.7318,3.6426,3.5566,3.4959,3.4724,3.4119,3.3767,3.3767,3.3769,3.4179,3.5039,3.5058,3.5371,3.5996,3.5996,3.5683,3.5056,3.5064,3.4693,3.6054,3.7921,3.9732,4.0062,4.1743,4.322,4.2969,4.3703,4.4298,4.4139,4.4183,4.4333,4.4603,4.4749,4.4975,4.5352,4.5526,4.5641,4.5791,4.5865,4.5865,4.5865,4.6581,4.7076,0.0,4.7076,4.7076,4.7076,4.7076,4.7076,4.7076,4.7076,4.7076,4.704,4.6269,4.5847,4.5828,4.5057,4.4672,4.4654,4.3864,4.3497,4.3497,4.3497,4.3497,4.3497,4.3497,4.3479,4.3442,4.3442,4.3442,4.3442,4.3442,4.3461,4.3479,4.3442,4.2928,4.2268,4.2334,4.1866,4.1088,4.0429,4.0251,4.0198,3.9612,3.9452,3.9556,3.9829,4.0526,4.1216,4.1418,4.2126,4.3025,4.3998,4.4261,4.4523,4.543,4.5022,4.4227,4.3434,4.2637,4.2094,4.202,4.2001,4.2323,4.323,4.2632,4.1827,4.1175,4.111,4.0781,3.9941,3.9082,3.8203,3.7324,3.6456,3.5603,3.4742,3.4683,3.4664,3.4664,3.4658,3.5073,3.5933,3.5956,3.5976,3.5996,3.5996,3.5996,3.5957,3.5966,3.5952,3.7034,3.8645,4.0203,4.0486,4.1975,4.3343,4.3261,4.3471,4.3728,4.3804,4.3401,4.3283,4.4254,4.4537,4.4915,4.5838,4.6608,4.7132,4.7382,4.6983,4.6709,4.6709,4.6948,0.0,0.0,0.0,0.0,4.871,4.8233,4.8159,4.8728,4.8214,4.7664,4.7094,4.6856,4.6452,4.5902,4.5626,4.5241,4.4709,4.3883,4.3497,4.3497,4.3497,4.3497,4.3497,4.3497,4.3497,4.3497,4.3497,4.3497,4.3497,4.3497,4.3497,4.3497,4.3497,4.3314,4.3094,4.3128,4.2944,4.2518,4.1254,4.0874,4.0677,3.95,3.9556,4.0074,4.0309,4.0992,4.1731,4.1984,4.2721,4.3531,4.398,4.4576,4.513,4.5543,4.5452,4.5051,4.4244,4.3866,4.3699,4.3666,4.3666,4.3583,4.3369,4.2665,4.1902,4.1129,4.1062,4.0762,3.9918,3.9568,3.8827,3.7422,3.7028,3.6484,3.5626,3.5563,3.5534,3.5499,3.551,3.5626,3.5926,3.5979,3.6009,3.5994,3.5996,3.5996,3.5996,3.5995,3.6007,3.8321,3.9732,4.107,4.1321,4.2513,4.3577,4.356,4.3784,4.3905,4.3761,4.3311,4.3131,4.3834,4.4071,4.4636,4.5929,4.6783,4.7484,4.8053,4.7789,4.7535,4.7535,4.781,4.7994,0.0,0.0,0.0,4.9572,4.9352,4.9315,4.9572,4.9058,4.8379,4.7572,4.7535,4.7297,4.6764,4.6471,4.5792,4.4709,4.4176,4.3773,4.3497,4.3497,4.3497,4.3497,4.3497,4.3497,4.3497,4.3497,4.3497,4.3497,4.3497,4.3497,4.3497,4.3497,4.3497,4.3497,4.3497,4.3497,4.3311,4.2004,4.1581,4.1356,4.0136,4.0189,4.0667,4.085,4.153,4.2277,4.2523,4.3253,4.4018,4.4287,4.4836,4.5341,4.5495,4.5584,4.5401,4.4585,4.4442,4.4438,4.4438,4.4703,4.4641,4.3819,4.3036,4.2168,4.111,4.1011,4.0857,4.0281,3.9978,3.9359,3.8272,3.7912,3.7496,3.6929,3.6859,3.68,3.6771,3.6771,3.6754,3.6754,3.6816,3.6863,3.6899,3.6576,3.6444,3.6465,3.6152,3.5995,3.995,4.115,4.2407,4.2513,4.3355,4.4094,4.3936,4.4538,4.4883,4.4074,4.3922,4.3838,4.3314,4.3502,4.4144,4.5499,4.6072,4.6752,4.7897,4.8263,4.8379,0.0,0.0,0.0,0.0,0.0,0.0,4.9756,0.0,5.0472,4.9738,4.9627,4.9205,4.8398,4.8324,4.8306,4.8306,4.7517,4.6342,4.4837,4.4782,4.4342,4.3552,4.3552,4.3534,4.3497,4.3497,4.3497,4.3497,4.3497,4.3497,4.3497,4.3497,4.3497,4.3497,4.3497,4.3497,4.3497,4.3497,4.3497,4.3369,4.2561,4.2304,4.2139,4.1429,4.1222,4.1291,4.1428,4.2112,4.2883,4.31,4.3755,4.4484,4.4876,4.5014,4.5129,4.5341,4.5457,4.5245,4.4511,4.4355,4.4374,4.4374,4.5101,4.5404,4.452,4.3751,4.2705,4.115,4.0976,4.0981,4.0987,4.031,3.9838,3.9799,3.9032,3.854,3.8512,3.8358,3.8294,3.8306,3.8297,3.8297,3.8277,3.8357,3.8433,3.8487,3.7666,3.7274,3.7285,3.6445,3.6035,4.1623,4.2368,4.3132,4.3132,4.3817,4.4449,4.441,4.4143,4.382,4.3776,4.2875,4.2159,4.2302,4.3044,4.3863,4.4698,4.6155,0.0,4.8735,4.9124,0.0,5.0086,0.0,5.049,5.049,5.1224,0.0,0.0,5.1022,5.0967,5.1353,5.0233,4.9481,4.926,4.8636,4.8306,4.8306,4.7517,4.6911,4.6489,4.5883,4.5168,4.4397,4.4397,4.4066,4.3497,4.3497,4.3497,4.3497,4.3497,4.3497,4.3497,4.3497,4.3497,4.3497,4.3497,4.3497,4.3497,4.3497,4.3497,4.3369,4.2561,4.2304,4.2158,4.1383,4.1548,4.2059,4.212,4.2742,4.3435,4.3627,4.3899,4.4181,4.4421,4.4621,4.4796,4.5106,4.5216,4.5263,4.5207,4.5222,4.5259,4.5259,4.5468,4.5334,4.4468,4.4174,4.3516,4.1931,4.1214,4.0859,4.0915,4.0738,4.0381,3.9786,3.9526,3.912,3.8469,3.8345,3.8297,3.8297,3.8255,3.8244,3.8227,3.8287,3.833,3.8357,3.8234,3.7842,3.7214,3.7049,3.6621,4.3301,4.3842,4.4418,4.4418,4.4502,4.4485,4.4147,4.3724,4.3234,4.2715,4.1901,4.1291,4.1268,4.2161,4.3171,4.4092,4.6024,4.7832,4.898,4.9724,5.0288,0.0,5.1114,0.0,5.1334,5.205,5.2527,0.0,5.2105,5.1903,5.1977,5.1132,5.0306,4.9609,4.9114,4.8691,4.8306,4.7865,4.7462,4.7075,4.6654,4.6012,4.5223,4.4874,4.4452,4.4011,0.0,4.3497,4.3497,4.3497,4.3497,4.3497,4.3497,4.3497,4.3497,4.3497,4.3497,4.3497,4.3497,4.3497,4.3424,4.2965,4.2818,4.2745,4.2286,4.247,4.2818,4.2868,4.3198,4.3582,4.3734,4.3781,4.3892,4.4132,4.4327,4.4513,4.4895,4.5038,4.5173,4.54,4.5513,4.5568,4.5586,4.5586,4.5432,4.4932,4.4583,4.4036,4.3134,4.2337,4.1725,4.1424,4.138,4.1062,4.0246,4.0169,3.9966,3.943,3.9348,3.9313,3.9296,3.9258,3.9245,3.9251,3.9313,3.937,3.9393,3.9116,3.8756,3.8291,3.7611,3.7031,4.4874,4.5348,4.5821,4.572,4.5213,4.4502,4.3623,4.3335,4.2878,4.1491,4.1119,4.09,4.0424,4.1231,4.241,4.3728,4.574,4.7637,4.9083,5.014,5.0835,5.1055,5.1678,5.21,5.21,5.2742,5.3164,5.3164,5.3206,5.2913,5.2197,5.205,5.1242,4.9627,4.9591,4.9169,4.8324,4.8306,4.7957,4.7278,4.7278,4.6856,4.6049,4.5351,4.4911,4.4672,0.0,0.0,4.3497,4.3497,4.3497,4.3497,4.3497,4.3497,4.3497,4.3497,4.3497,4.3497,4.3497,4.3497,4.3497,4.3497,4.3497,4.3497,4.3497,4.3497,4.3497,4.3497,4.3497,4.3513,4.3548,4.3582,4.3682,4.3936,4.4091,4.4269,4.4621,4.487,4.5084,4.5321,4.5419,4.5513,4.5568,4.5586,4.5586,4.5586,4.4951,4.447,4.447,4.3721,4.2913,4.2232,4.2054,4.1705,4.1021,4.0854,4.0745,4.0694,4.0648,4.0612,4.0607,4.0588,4.0592,4.0592,4.0646,4.0713,4.0788,4.0102,3.9746,3.9676,3.8285,3.7575,4.6413,4.6498,4.6464,4.5855,4.5602,4.5145,4.3741,4.2929,4.2252,4.139,4.0713,4.0341,4.0453,4.1297,4.2506,4.3976,4.5382,4.7186,4.9804,5.0451,5.1138,5.2474,5.2663,5.2649,5.2649,5.2882,0.0,0.0,0.0,5.3151,5.3004,5.2362,5.1242,4.9627,4.9591,4.9169,4.8324,4.8306,4.8233,4.8104,4.8104,4.7682,4.6911,4.6764,4.5975,4.4709,4.4562,0.0,4.3497,4.3497,4.3497,4.3497,4.3497,4.3497,4.3497,4.3497,4.3497,4.3497,4.3497,4.3497,4.3497,4.3497,4.3497,4.3497,4.3497,4.3497,4.3497,4.3497,4.3497,4.3479,4.3513,4.3532,4.3566,4.3649,4.38,4.3961,4.424,4.4655,4.5057,4.5194,4.5321,4.5438,4.5513,4.5568,4.5586,4.5586,4.547,4.5355,4.5355,4.4045,4.3057,4.2915,4.2314,4.188,4.1795,4.1073,4.0648,4.07,4.0646,4.0588,4.0607,4.0558,4.0523,4.0523,4.0588,4.0646,4.0713,4.0632,4.0274,3.9694,3.9474,3.9016,4.7378,4.7378,4.7208,4.6464,4.5974,4.5213,4.3267,4.254,4.1965,4.0849,4.0392,4.0238,4.0387,4.1395,4.2479,4.3339,4.5346,4.738,4.887,5.0336,5.1456,5.2181,5.2532,5.2698,5.2698,5.2725,5.2831,5.2893,0.0,5.3066,5.3206,5.2435,5.1646,5.0857,5.0031,4.9389,4.8967,4.8526,4.8306,4.8306,4.8306,4.8104,4.7719,4.7297,4.6691,4.592,4.5076,0.0,4.4085,4.3663,4.3497,4.3497,4.3497,4.3497,4.3497,4.3497,4.3497,4.3497,4.3497,4.3497,4.3497,4.3497,4.3497,4.3497,4.3497,4.3497,4.3497,4.3497,4.3497,4.3497,4.3497,4.3497,4.3532,4.3582,4.3734,4.3897,4.4109,4.4439,4.4796,4.4991,4.5151,4.5279,4.538,4.5438,4.5496,4.5496,4.5532,4.555,4.555,4.4876,4.4237,4.3772,4.3387,4.2807,4.1971,4.1474,4.1031,4.0617,4.0569,4.0539,4.0539,4.0523,4.0489,4.0489,4.0539,4.0588,4.0646,4.0738,4.0645,4.0326,3.997,3.9588,4.8105,4.8156,4.7936,4.7022,4.6363,4.5297,4.2861,4.2286,4.1863,4.0375,4.0188,4.0305,4.0404,4.1354,4.2277,4.2765,4.5033,4.7024,4.7834,4.9857,5.1323,5.1522,5.2118,5.2518,5.2518,5.2545,0.0,5.2743,0.0,0.0,5.3164,5.2601,5.2179,5.1995,5.0765,5.0013,4.9848,4.9187,4.8838,4.8838,4.8655,4.8581,4.8526,4.7737,4.7278,4.704,4.5773,0.0,0.0,4.4011,4.3644,4.3497,4.3497,4.3497,4.3497,4.3497,4.3497,4.3497,4.3497,4.3497,4.3497,4.3497,4.3497,4.3497,4.3497,4.3497,4.3497,4.3497,4.3497,4.3497,4.3497,4.3497,4.3513,4.3548,4.3734,4.3865,4.4005,4.4248,4.4486,4.477,4.4943,4.5103,4.5235,4.5338,4.5398,4.5398,4.5438,4.5476,4.5476,4.555,4.5318,4.4626,4.4412,4.3778,4.245,4.2181,4.1797,4.1104,4.0873,4.0777,4.0777,4.0585,4.0489,4.0489,4.0489,4.0539,4.0607,4.0713,4.0815,4.0888,4.0318,4.0059,4.8731,4.89,4.8562,4.7141,4.6735,4.5923,4.2963,4.2286,4.1863,4.0375,4.0188,4.0355,4.06,4.1017,4.1723,4.3022,4.3799,4.5128,4.7642,4.8849,4.9937,5.1246,5.1945,5.2311,5.2311,5.2452,5.2554,0.0,0.0,0.0,5.2999,5.3072,5.2747,5.2013,5.1848,5.1426,5.071,5.0618,5.0582,5.0563,4.9829,4.9444,4.9352,4.8563,4.781,4.7075,4.6966,0.0,0.0,4.4635,4.4158,4.3497,4.3497,4.3497,4.3497,4.3497,4.3497,4.3497,4.3497,4.3497,4.3497,4.3497,4.3497,4.3497,4.3497,4.3497,4.3497,4.3497,4.3497,4.3497,4.3497,4.3497,4.3497,4.3532,4.3548,4.3667,4.3786,4.3974,4.4229,4.4477,4.4745,4.4943,4.5103,4.5256,4.5398,4.5398,4.5419,4.5419,4.5419,4.5476,4.5494,4.5398,4.4741,4.4239,4.4085,4.3393,4.2951,4.2874,4.2124,4.1681,4.1681,4.0912,4.0489,4.0489,4.0489,4.0539,4.0607,4.0673,4.0769,4.0888,4.0882,4.0925,4.8274,4.8663,4.8646,4.7158,4.6786,4.6007,4.298,4.2286,4.1863,4.0375,4.0288,4.0485,4.0648,4.1105,4.1692,4.2427,4.3396,4.4442,4.5638,4.743,4.8758,4.9174,5.0651,5.1618,0.0,0.0,5.2405,0.0,0.0,0.0,5.2893,5.306,5.3059,5.2729,5.2252,5.1848,5.1518,5.1041,5.0802,5.0802,5.0472,5.005,4.9536,4.9224,4.8618,4.781,4.7333,0.0,0.0,4.5112,4.4525,4.4176,4.3681,4.3497,4.3497,4.3497,4.3497,4.3497,4.3497,4.3497,4.3497,4.3497,4.3497,4.3497,4.3497,4.3497,4.3497,4.3497,4.3497,4.3497,4.3497,4.3497,4.3497,4.3497,4.3513,4.3566,4.3667,4.38,4.3992,4.4199,4.443,4.464,4.4821,4.5033,4.517,4.5213,4.5319,4.54,4.54,4.5457,4.5495,4.5495,4.526,4.4874,4.4335,4.4008,4.3624,4.3124,4.2777,4.2585,4.2585,4.2258,4.1816,4.1296,4.1277,4.1043,4.0539,4.066,4.0752,4.0837,4.0937,4.1042,4.7623,4.8056,4.8098,4.6844,4.6353,4.5466,4.2878,4.2117,4.161,4.0341,4.0288,4.0485,4.0745,4.1198,4.1675,4.2127,4.3041,4.3901,4.44,4.643,4.7853,4.7852,0.0,5.1249,0.0,5.1953,0.0,0.0,0.0,0.0,5.285,5.306,5.3206,5.3206,5.2656,5.2344,5.2344,5.1793,5.1518,5.1518,5.1279,5.0857,5.027,4.9811,4.926,4.8636,0.0,0.0,0.0,4.5626,4.4911,4.4635,4.3809,4.3497,4.3497,4.3497,4.3497,4.3497,4.3497,4.3497,4.3497,4.3497,4.3497,4.3497,4.3497,4.3497,4.3497,4.3497,4.3497,4.3497,4.3497,4.3497,4.3497,4.3497,4.3497,4.3513,4.3548,4.3667,4.38,4.3986,4.4199,4.4421,4.4632,4.4821,4.4991,4.5057,4.5213,4.5338,4.5338,4.5419,4.5476,4.5476,4.555,4.5336,4.4739,4.4682,4.4432,4.3874,4.3605,4.3451,4.3451,4.3239,4.2816,4.22,4.2181,4.1873,4.1258,4.135,4.1332,4.1156,4.1265,4.1234,4.6975,4.7233,4.685,4.6119,4.5258,4.4198,4.2642,4.1728,4.1001,4.024,4.0188,4.0436,4.0823,4.118,4.164,4.2297,4.2691,4.3303,4.4455,4.5992,4.727,0.0,5.0016,5.1427,5.1427,5.2253,0.0,0.0,0.0,0.0,5.2999,5.3121,5.3206,5.3206,5.3206,5.3206,5.3206,5.3188,5.3188,5.3188,5.2362,5.1977,5.1903,5.0306,4.9591,0.0,0.0,0.0,0.0,4.6232,4.5424,4.4635,4.3809,4.3497,4.3497,4.3497,4.3497,4.3497,4.3497,4.3497,4.3497,4.3497,4.3497,4.3497,4.3497,4.3497,4.3497,4.3497,4.3497,4.3497,4.3497,4.3497,4.3497,4.3497,4.3497,4.3497,4.3497,4.3548,4.3649,4.3865,4.4079,4.4298,4.4532,4.4789,4.4919,4.4991,4.5125,4.5192,4.5192,4.532,4.54,4.54,4.5513,4.5586,4.5586,4.5586,4.5566,4.5566,4.4759,4.4297,4.4297,4.3528,4.3104,4.3085,4.3085,4.3085,4.3066,4.3076,4.269,4.199,4.2061,4.174,4.582,4.6367,4.6426,4.5597,4.5073,4.4194,4.2157,4.1408,4.0984,4.024,4.0288,4.0534,4.0823,4.13,4.1796,4.2297,4.3237,4.4014,4.4529,4.6487,4.7972,4.8111,5.0143,5.1777,0.0,0.0,0.0,0.0,0.0,0.0,5.2999,5.3121,5.3206,5.3206,5.3206,5.3206,5.3206,5.3206,5.3206,5.3206,5.2949,5.2527,5.1977,5.1463,0.0,0.0,0.0,0.0,0.0,4.7058,4.625,4.5443,4.4635,4.3975,4.3497,4.3497,4.3497,4.3497,4.3497,4.3497,4.3497,4.3497,4.3497,4.3497,4.3497,4.3497,4.3497,4.3497,4.3497,4.3497,4.3497,4.3497,4.3497,4.3497,4.3497,4.3497,4.3497,4.3532,4.3548,4.3649,4.3846,4.4067,4.4288,4.4568,4.4796,4.4919,4.5061,4.5213,4.5256,4.5341,4.5419,4.5457,4.555,4.5586,4.5586,4.5586,4.5586,4.5586,4.5336,4.5182,4.5182,4.4932,4.4528,4.3932,4.3912,4.3643,4.3104,4.3096,4.3043,4.2959,4.3034,4.2987,4.4896,4.5246,4.5303,4.4751,4.4182,4.3355,4.1869,4.1172,4.0714,4.029,4.0288,4.0534,4.0853,4.1346,4.1856,4.2418,4.3532,4.4508,4.5041,0.0,0.0,4.953,0.0,0.0,0.0,0.0,0.0,0.0,0.0,0.0,5.306,5.3146,5.3206,5.3206,5.3206,5.3206,5.3206,5.3206,5.3206,5.3206,5.3206,5.2949,5.2435,5.2142,5.1279,0.0,0.0,0.0,0.0,4.7443,4.6819,4.6269,4.548,4.4856,4.436,4.4066,4.3956,4.3901,4.3608,4.3497,4.3497,4.3497,4.3497,4.3497,4.3497,4.3497,4.3497,4.3497,4.3497,4.3497,4.3497,4.3497,4.3497,4.3497,4.3497,4.3497,4.3497,4.3497,4.3513,4.3582,4.3767,4.3961,4.4121,4.4402,4.4685,4.4796,4.501,4.5148,4.5235,4.5341,4.5419,4.5495,4.5568,4.5586,4.5586,4.5586,4.5586,4.5586,4.5586,4.5586,4.5586,4.5586,4.5336,4.4797,4.4778,4.4528,4.4028,4.375,4.3665,4.38,4.3578,4.3525,0.0,4.4139,4.3763,4.364,4.2801,4.2009,4.1825,4.103,0.0,4.0305,4.0355,4.0485,4.0931,4.1363,4.1874,4.2577,4.3663,4.4801,0.0,4.748,0.0,0.0,5.2123,0.0,0.0,0.0,0.0,0.0,0.0,0.0,5.3206,5.3206,5.3206,5.3206,5.3206,5.3206,5.3206,5.3206,5.3206,5.3206,5.3206,5.3206,5.3188,5.2435,5.1646,0.0,0.0,0.0,0.0,4.7535,4.713,4.704,4.6287,4.5957,4.581,4.5057,4.48,4.4672,4.3864,4.3589,4.3571,4.3516,4.3497,4.3497,4.3552,4.3589,4.3589,4.3589,4.3589,4.3589,4.3589,4.3534,4.3497,4.3497,4.3497,4.3497,4.3497,4.3497,4.3513,4.3582,4.3767,4.3929,4.4079,4.4306,4.4524,4.4685,4.487,4.5057,4.5192,4.532,4.5419,4.5495,4.5568,4.5586,4.5586,4.5586,4.5586,4.5586,4.5586,4.5586,4.5586,4.5586,4.5586,4.5586,4.5586,4.5586,4.5586,4.485,4.4508,4.4568,4.3897,4.3646,4.3597,0.0,4.3558,4.3464,4.2986,4.2341,0.0,4.1081,4.0645,4.0468,4.0631,4.0823,4.0977,4.1578,4.2216,4.2616,4.4231,4.5791,4.669,0.0,0.0,5.2784,5.3463,5.3904,0.0,0.0,0.0,0.0,0.0,5.3206,5.3206,5.3206,5.3206,5.3206,5.3206,5.3206,5.3206,5.3206,5.3206,5.3206,5.3206,5.3206,5.3206,5.3004,5.2491,0.0,0.0,0.0,4.9224,4.8379,4.7682,4.7095,4.6911,4.6452,4.5883,4.5681,4.5626,4.5498,4.4709,4.4415,4.4323,4.3699,4.3497,4.3608,4.4232,4.4415,4.4415,4.4415,4.4415,4.4415,4.4415,4.3956,4.3497,4.3497,4.3497,4.3497,4.3497,4.3497,4.3479,4.3513,4.3686,4.3851,4.3929,4.4207,4.4468,4.4605,4.4821,4.508,4.5235,4.5361,4.5457,4.5568,4.5586,4.5586,4.5586,4.5586,4.5586,4.5586,4.5586,4.5586,4.5586,4.5586,4.5586,4.5586,4.5586,4.5586,4.5586,4.5464,4.5398,4.5422,4.5344,4.5351,4.3446,4.3396,4.3282,4.322,4.2858,4.2412,4.1833,4.1373,4.1053,4.0836,4.0948,4.1088,4.1283,4.1864,4.2544,4.3294,4.4763,0.0,0.0,0.0,5.2858,5.3665,5.4124,0.0,0.0,0.0,0.0,0.0,0.0,5.3592,5.3225,5.3206,5.3206,5.3206,5.3206,5.3206,5.3206,5.3206,5.3206,5.3206,5.3206,5.3206,5.3206,5.3206,5.2564,0.0,0.0,0.0,4.8967,4.8489,4.8049,4.7664,4.7664,4.7388,4.6966,4.6599,4.6452,4.6342,4.5535,4.5021,4.458,4.3754,4.3736,4.4121,4.458,4.5223,4.5736,4.5351,4.5259,4.5168,4.48,4.4378,4.3956,4.3589,4.3497,4.3497,4.3497,4.3497,4.3497,4.3497,4.36,4.3719,4.3767,4.4005,4.4248,4.4402,4.4674,4.4962,4.517,4.5319,4.5419,4.5495,4.555,4.5531,4.5513,4.555,4.5568,4.5586,4.5586,4.5586,4.5586,4.5586,4.5586,4.5586,4.5586,4.5586,4.5586,4.564,4.5673,4.5703,4.581,4.588,4.3461,4.3322,4.3123,4.3013,4.2729,4.2436,4.2251,4.1856,4.1507,4.1328,4.13,4.1418,4.1666,4.2222,0.0,0.0,0.0,0.0,5.0563,5.227,5.35,5.4308,5.4509,0.0,0.0,0.0,0.0,0.0,0.0,5.4051,5.3243,5.3206,5.3206,5.3206,5.3206,5.3206,5.3206,5.3206,5.3206,5.3206,5.3206,5.3206,5.3206,5.3206,5.2399,5.0986,0.0,0.0,4.8489,4.8361,4.8306,4.8306,4.8306,4.8306,4.8233,4.7535,4.7297,4.7186,4.6361,4.5571,4.4782,4.4085,4.4323,4.4911,4.5039,4.603,4.7003,4.6416,4.6177,4.5902,4.5094,4.48,4.4507,4.3681,4.3497,4.3497,4.3497,4.3497,4.3497,4.3497,4.3548,4.3582,4.3582,4.3814,4.4017,4.4162,4.4458,4.477,4.5014,4.5254,4.5379,4.54,4.5457,4.5457,4.54,4.5438,4.5513,4.5568,4.5586,4.5586,4.5586,4.5586,4.5586,4.5586,4.5586,4.5586,4.5586,4.5586,4.564,4.5693,4.5754,4.5833,4.3296,4.3463,4.3428,4.334,4.316,4.2936,4.2691,4.2418,4.2133,4.1709,4.1813,4.1959,4.1881,4.2933,4.3951,0.0,0.0,4.9682,0.0,0.0,5.35,5.4308,0.0,0.0,0.0,0.0,0.0,0.0,0.0,5.4051,5.3243,5.3206,5.3206,5.3206,5.3206,5.3206,5.3206,5.3206,5.3206,5.3206,5.3206,5.3206,5.3206,5.3206,5.2692,0.0,0.0,5.027,4.9334,4.86,4.8306,4.8306,4.8306,4.8306,4.8306,4.8159,4.8122,4.8012,4.7205,4.6397,4.57,4.5571,4.5626,4.5847,4.6544,4.6874,4.7241,4.7774,4.7443,4.6746,4.592,4.5223,4.4507,4.3681,4.3497,4.3497,4.3497,4.3497,4.3497,4.3497,4.3548,4.3582,4.3582,4.38,4.3942,4.4109,4.4345,4.4613,4.4895,4.5103,4.5256,4.5379,4.54,4.5419,4.54,4.5419,4.5419,4.5419,4.555,4.5586,4.5586,4.5586,4.5586,4.5586,4.5586,4.5586,4.5586,4.5586,4.5622,4.5622,4.5673,4.575,4.2745,4.3167,4.3497,4.3463,4.334,4.3196,4.2995,4.2788,4.2595,4.2297,4.2356,4.258,4.2992,0.0,4.4744,4.6209,0.0,5.1151,5.1885,5.3059,5.4161,0.0,0.0,0.0,0.0,0.0,0.0,0.0,0.0,0.0,5.328,5.3206,5.3206,5.3206,5.3206,5.3206,5.3206,5.3206,5.3206,5.3206,5.3206,5.3206,5.3206,5.2736,5.2119,5.1316,0.0,4.9682,4.8857,4.8471,4.8306,4.8306,4.8306,4.8306,4.8306,4.8306,4.8306,4.8196,4.7388,4.6874,4.6489,4.6049,4.6195,4.6636,4.7003,4.7407,4.7847,4.8214,4.8031,4.748,4.6214,4.5957,4.57,4.4433,4.447,4.4672,4.4232,4.4158,4.4011,4.3571,4.3513,4.3566,4.3566,4.3649,4.3781,4.3929,4.4158,4.4374,4.464,4.4919,4.5125,4.5213,4.5339,4.538,4.53,4.53,4.5321,4.54,4.5495,4.555,4.555,4.5586,4.5586,4.5586,4.5586,4.5586,4.5586,4.5586,4.5586,4.5586,4.5676,4.5722,4.2194,4.2745,4.3259,4.3442,4.3463,4.3431,4.3488,4.3415,4.3302,4.3351,4.3348,4.3568,4.4297,4.4907,0.0,4.8488,5.0637,5.2068,5.2252,0.0,0.0,0.0,0.0,0.0,0.0,0.0,0.0,0.0,0.0,0.0,5.3298,5.3206,5.3206,5.3206,5.3206,5.3206,5.3206,5.3206,5.3206,5.3206,5.3206,5.3206,5.3188,5.237,5.1545,5.0765,4.9936,4.9093,4.8306,4.8306,4.8306,4.8306,4.8306,4.8306,4.8306,4.8306,4.8306,4.8214,4.7609,4.7388,4.7297,4.6654,4.6893,4.7388,4.7388,4.7829,4.8306,4.8306,4.8306,4.7976,4.6544,4.6654,4.6764,4.5333,4.5461,4.5736,4.5112,4.4837,4.4525,4.3901,4.3626,4.3497,4.3497,4.3548,4.3634,4.3719,4.3929,4.4109,4.4393,4.4719,4.4962,4.5103,4.5235,4.5297,4.517,4.5148,4.5173,4.5241,4.54,4.5495,4.5495,4.5568,4.5586,4.5586,4.5586,4.5586,4.5586,4.5586,4.5586,4.5586,4.5657,4.569,4.1882,4.2341,4.2561,4.3296,4.3497,4.3664,4.4345,4.4474,4.4638,4.5178,4.5344,4.5401,0.0,4.6791,4.8519,5.0343,5.1389,5.2252,0.0,0.0,0.0,0.0,0.0,0.0,0.0,0.0,0.0,0.0,0.0,0.0,5.3298,5.3206,5.3206,5.3206,5.3206,5.3206,5.3206,5.3206,5.3206,5.3206,5.3206,5.3206,5.3188,5.238,5.1573,5.0765,4.9939,4.9114,4.8306,4.8306,4.8306,4.8306,4.8306,4.8306,4.8306,4.8306,4.8306,4.8306,4.8233,4.8214,4.8214,4.8159,4.8177,4.8214,4.8214,4.8251,4.8306,4.8306,4.8306,4.8104,4.726,4.7076,4.6893,4.603,4.5865,4.5883,4.5828,4.5241,4.469,4.4635,4.4011,4.3497,4.3497,4.3479,4.3513,4.3582,4.3753,4.3929,4.4181,4.4458,4.4764,4.508,4.517,4.517,4.5033,4.4943,4.4895,4.4846,4.5199,4.5438,4.5495,4.5568,4.5586,4.5586,4.5586,4.5586,4.5586,4.5586,4.5586,4.5586,4.5603,4.564,4.0634,4.1534,4.2378,4.2671,4.3516,4.4323,4.4582,4.4656,4.4875,4.5589,4.5754,4.5938,0.0,0.0,5.0028,5.0692,5.1903,5.2858,0.0,0.0,0.0,0.0,0.0,0.0,0.0,0.0,0.0,0.0,0.0,0.0,5.328,5.3206,5.3206,5.3206,5.3206,5.3206,5.3206,5.3206,5.3206,5.3206,5.3206,5.2949,5.2435,5.1623,5.0798,4.9994,4.915,4.86,4.8306,4.8306,4.8306,4.8306,4.8306,4.8306,4.8306,4.8306,4.8306,4.8306,4.8306,4.8306,4.8306,4.8306,4.8306,4.8306,4.8306,4.8306,4.8306,4.8306,4.8306,4.8122,4.7333,4.748,4.7645,4.6856,4.704,4.7131,4.6122,4.5663,4.5149,4.414,4.3699,4.3497,4.3497,4.3497,4.3532,4.3513,4.3634,4.3767,4.3986,4.4258,4.4549,4.487,4.5057,4.508,4.4943,4.4821,4.4764,4.4685,4.5019,4.5237,4.53,4.5457,4.555,4.555,4.5586,4.5586,4.5586,4.5586,4.5586,4.5586,4.5586,4.5603,3.9827,4.0891,4.1992,4.2249,4.3516,4.4782,4.5021,4.5296,4.57,4.6489,4.6874,4.7315,4.8122,0.0,0.0,0.0,5.2325,0.0,0.0,0.0,0.0,0.0,0.0,0.0,0.0,0.0,0.0,0.0,0.0,0.0,0.0,5.3206,5.3206,5.3206,5.3206,5.3206,5.3206,5.3206,5.3206,5.3206,5.2949,5.2527,5.1958,5.1165,5.0358,4.9536,4.8673,4.8306,4.8306,4.8306,4.8306,4.8306,4.8306,4.8306,4.8306,4.8306,4.8306,4.8306,4.8306,4.8306,4.8306,4.8306,4.8306,4.8306,4.8306,4.8306,4.8306,4.8306,4.8306,4.8177,4.7627,4.7902,4.8159,4.7627,4.7921,4.7939,4.6581,4.6085,4.5498,4.414,4.3663,4.3497,4.3497,4.3497,4.3497,4.3497,4.3548,4.3667,4.3865,4.4079,4.4355,4.477,4.4967,4.5057,4.487,4.4745,4.4659,4.4551,4.477,4.501,4.517,4.5361,4.5476,4.5495,4.5568,4.5586,4.5586,4.5586,4.5586,4.5586,4.5586,4.5586,3.9662,4.0487,4.1295,4.2084,4.3516,4.4929,4.5718,4.6526,4.7352,4.8141,4.9003,4.9848,5.0655,5.1463,0.0,5.1995,0.0,0.0,0.0,0.0,0.0,0.0,0.0,0.0,0.0,0.0,0.0,0.0,0.0,0.0,0.0,5.3206,5.3206,5.3206,5.3206,5.3206,5.3206,5.3188,5.3188,5.3188,5.2362,5.1977,5.1958,5.1151,5.0343,4.9517,4.8673,4.8306,4.8306,4.8306,4.8306,4.8306,4.8306,4.8324,4.8324,4.8324,4.8324,4.8324,4.8324,4.8324,4.8306,4.8306,4.8306,4.8306,4.8306,4.8306,4.8306,4.8306,4.8306,4.8306,4.8306,4.8306,4.8306,4.8306,4.8306,4.8086,4.7278,4.6471,4.5663,4.4856,4.4048,4.3497,4.3497,4.3497,4.3497,4.3497,4.3497,4.36,4.3865,4.3942,4.4199,4.4745,4.4986,4.5033,4.484,4.4738,4.4605,4.4411,4.444,4.4685,4.508,4.5281,4.5419,4.5495,4.5568,4.5586,4.5586,4.5586,4.5586,4.5586,4.5586,4.5586,3.9001,4.0065,4.1167,4.1405,4.3534,4.5608,4.5847,4.6526,4.7517,4.8912,4.9866,5.0508,5.0765,5.1463,0.0,0.0,0.0,0.0,0.0,0.0,0.0,0.0,0.0,0.0,0.0,0.0,0.0,0.0,0.0,0.0,0.0,5.3206,5.3206,5.3206,5.2656,5.2362,5.2362,5.1793,5.1518,5.1518,5.1279,5.1151,5.1132,5.0306,4.9481,4.8673,4.8416,4.8306,4.8306,4.8306,4.8306,4.8306,4.8306,4.8673,4.9205,4.9205,4.9205,4.9205,4.9205,4.8802,4.8306,4.8306,4.8306,4.8306,4.8306,4.8306,4.8306,4.8306,4.8306,4.8306,4.8306,4.8306,4.8306,4.8306,4.8306,4.7921,4.6562,4.6067,4.548,4.4121,4.3644,4.3497,4.3497,4.3497,4.3497,4.3497,4.3497,4.3566,4.3786,4.3986,4.4258,4.456,4.477,4.487,4.4815,4.4712,4.4551,4.4411,4.4411,4.4524,4.4738,4.5038,4.5216,4.5298,4.5438,4.5531,4.5531,4.5568,4.5586,4.5586,4.5586,4.5586,3.8707,3.9882,4.1111,4.1111,4.3534,4.6067,4.6709,4.7241,4.8067,0.0,5.0453,5.1004,5.1646,5.216,0.0,0.0,0.0,0.0,0.0,0.0,0.0,0.0,0.0,0.0,0.0,0.0,0.0,0.0,0.0,0.0,0.0,5.2913,5.2729,5.2729,5.194,5.1518,5.1518,5.1041,5.0802,5.0802,5.0472,5.0306,5.0306,4.9811,4.9114,4.8306,4.8306,4.8306,4.8306,4.8306,4.8306,4.8306,4.8306,4.8618,4.9114,4.9462,4.9591,4.9591,4.9591,4.9242,4.8765,4.8416,4.8306,4.8306,4.8306,4.8306,4.8306,4.8306,4.8306,4.8306,4.8306,4.8306,4.8306,4.8306,4.8306,4.7865,4.625,4.5902,4.5424,4.3809,4.3497,4.3497,4.3497,4.3497,4.3497,4.3497,4.3513,4.36,4.3719,4.3942,4.414,4.4317,4.4513,4.4621,4.4693,4.4659,4.4551,4.4411,4.4373,4.4354,4.4364,4.4796,4.5061,4.5148,4.5361,4.5457,4.5495,4.5568,4.5586,4.5586,4.5586,4.5586,3.8707,3.9882,4.1111,4.1111,4.3534,4.6324,4.7939,4.8306,4.8746,5.0362,0.0,5.1261,5.2729,5.3059,5.3096,0.0,0.0,0.0,0.0,0.0,0.0,0.0,0.0,0.0,0.0,0.0,0.0,0.0,0.0,0.0,0.0,5.2325,5.1885,5.1885,5.1114,5.0692,5.0692,5.0618,5.0582,5.0563,4.9829,4.9462,4.9462,4.9462,4.904,4.8306,4.8306,4.8306,4.8306,4.8306,4.8306,4.8306,4.8306,4.8361,4.8526,4.9297,4.9646,4.9701,4.9627,4.9591,4.9444,4.8581,4.8306,4.8306,4.8306,4.8306,4.8306,4.8306,4.8306,4.8306,4.8306,4.8306,4.8306,4.8306,4.8306,4.7884,4.6342,4.5957,4.5443,4.3901,4.3534,4.3497,4.3497,4.3497,4.3497,4.3497,4.3548,4.3582,4.3582,4.3822,4.4003,4.4067,4.4266,4.443,4.4551,4.4578,4.4524,4.4383,4.4344,4.4226,4.4036,4.4568,4.4919,4.5038,4.526,4.54,4.5495,4.5568,4.5586,4.5586,4.5586,4.5586,3.8707,3.9882,4.1111,4.1111,4.3534,4.6324,4.7939,4.8306,4.86,4.9627,5.0362,5.0912,5.1261,5.183,0.0,0.0,0.0,0.0,0.0,0.0,0.0,0.0,0.0,0.0,0.0,0.0,0.0,0.0,0.0,0.0,5.2252,5.1499,5.1059,5.1059,5.027,4.9848,4.9848,4.9187,4.8838,0.0,4.8655,4.8581,4.8581,4.8581,4.8489,4.8306,4.8306,4.8306,4.8306,4.8306,4.8306,4.8306,4.8306,4.8746,4.9331,4.9536,5.0006,5.0451,4.9826,4.9554,4.9389,4.8581,4.8306,4.8306,4.8306,4.8306,4.8306,4.8306,4.8306,4.8306,4.8306,4.8306,4.8306,4.8306,4.8306,4.8031,4.7058,4.6361,4.5608,4.4635,4.392,4.3497,4.3497,4.3497,4.3497,4.3497,4.3513,4.3513,4.3513,4.4168,4.4435,4.3925,4.4549,4.4799,4.4237,4.424,4.4269,4.424,4.4296,4.4255,4.4165,4.4327,4.4522,4.4693,4.5014,4.5256,4.5419,4.5495,4.555,4.5586,4.5586,4.5586,3.8707,3.9882,4.1387,4.2543,4.4378,4.6214,4.7462,4.8031,4.8434,4.8875,4.9627,5.0343,5.0729,5.1132,0.0,0.0,0.0,0.0,0.0,0.0,0.0,0.0,0.0,0.0,0.0,0.0,0.0,0.0,0.0,5.1426,5.1426,5.0655,5.0215,5.0215,4.904,4.8398,4.8398,4.7957,4.7737,4.7737,4.8122,4.8306,4.8306,4.8306,4.8306,4.8306,4.8306,4.8306,4.8306,4.8306,4.8306,4.8306,4.8306,4.86,4.9019,4.9444,4.9881,5.0186,4.9735,4.9572,4.9407,4.8581,4.8306,4.8306,4.8306,4.8306,4.8306,4.8306,4.8306,4.8306,4.8306,4.8306,4.8306,4.8306,4.8306,4.8086,4.7297,4.6471,4.5663,4.4874,4.4048,4.3497,4.3497,4.3497,4.3497,4.3497,4.3497,4.3497,4.3497,4.3881,4.406,4.3723,4.4136,4.4323,4.4085,4.4121,4.4181,4.4288,4.4383,4.4383,4.4248,4.4345,4.4449,4.4551,4.487,4.5129,4.53,4.5438,4.5531,4.5586,4.5586,4.5586,3.8707,3.9882,4.1699,4.4103,4.5204,4.5938,4.6893,4.7627,4.8141,4.8269,4.8875,4.9572,5.0251,0.0,0.0,0.0,0.0,0.0,0.0,0.0,0.0,0.0,0.0,0.0,0.0,0.0,0.0,0.0,0.0,5.0582,5.0582,4.9682,4.915,4.915,4.77,4.6911,4.6911,4.6911,4.6966,4.7131,4.7921,4.8306,4.8306,4.8306,4.8306,4.8306,4.8306,4.8306,4.8306,4.8306,4.8306,4.8306,4.8306,4.8306,4.8398,4.9095,4.9462,4.9572,4.9426,4.9462,4.9444,4.8581,4.8306,4.8306,4.8306,4.8306,4.8306,4.8306,4.8306,4.8306,4.8306,4.8306,4.8306,4.8306,4.8196,4.7921,4.726,4.6471,4.5663,4.4874,4.4048,4.3497,4.3497,4.3497,4.3497,4.3497,4.3608,4.3644,4.3516,4.3736,4.3826,4.3618,4.371,4.383,4.3961,4.4048,4.4199,4.4411,4.4551,4.456,4.4393,4.4505,4.4551,4.4551,4.4821,4.5042,4.522,4.54,4.5513,4.5586,4.5586,4.5586,3.8707,3.9882,4.1699,4.4103,4.4782,4.5259,4.6783,4.7205,4.748,0.0,4.8398,4.8508,4.8618,0.0,0.0,0.0,0.0,0.0,0.0,0.0,0.0,0.0,0.0,0.0,0.0,0.0,0.0,0.0,5.0196,4.9738,4.9738,4.8288,4.7443,4.7443,4.6544,4.6067,4.6067,4.6067,4.6416,4.7131,4.7921,4.8306,4.8306,4.8306,4.8306,4.8306,4.8306,4.8306,4.8306,4.8306,4.8306,4.8306,4.8306,4.8306,4.8324,4.8434,4.8967,4.9478,4.8746,4.8967,4.9444,4.8581,4.8306,4.8306,4.8306,4.8306,4.8306,4.8306,4.8306,4.8306,4.8306,4.8306,4.8306,4.8306,4.7774,4.7241,4.7094,4.6471,4.5663,4.4874,4.4048,4.3497,4.3497,4.3497,4.3497,4.3497,4.4085,4.4287,4.3589,4.4709,4.5039,4.3679,4.4207,4.4423,4.3874,4.4005,4.4199,4.4477,4.4667,4.477,4.4745,4.4796,4.4821,4.4745,4.4796,4.4967,4.5277,4.5361,4.5476,4.5586,4.5586,4.5586,3.9927,4.0638,4.1636,4.3603,4.4395,4.4892,4.5608,4.6104,4.6526,4.6874,4.6966,4.7241,4.8141,0.0,0.0,0.0,0.0,0.0,0.0,0.0,0.0,0.0,0.0,0.0,0.0,0.0,0.0,0.0,4.9334,4.8673,4.8214,4.7517,4.6911,4.6452,4.5663,4.5241,4.5241,4.5241,4.5645,4.6434,4.6801,4.6966,4.6966,4.6966,4.7462,4.8306,4.8306,4.8049,4.7645,4.7645,4.737,4.7003,4.7462,4.7645,4.77,4.8141,4.8545,4.8799,4.8434,4.8545,4.8802,4.8416,4.8306,4.8306,4.8306,4.8306,4.8306,4.8306,4.8306,4.8306,4.8306,4.7976,4.7645,4.7645,4.7021,4.6305,4.5865,4.548,4.5002,4.4176,4.3736,4.3497,4.3497,4.3497,4.3644,4.4103,4.447,4.4745,4.4819,4.5076,4.4966,4.425,4.4154,4.407,4.3915,4.4109,4.4355,4.4693,4.4919,4.5057,4.508,4.5065,4.5065,4.508,4.4967,4.5038,4.5239,4.5361,4.5476,4.5586,4.5586,4.5586,4.0929,4.1311,4.1654,4.3277,4.4042,4.4487,4.4689,0.0,4.5645,0.0,4.5902,4.6269,0.0,0.0,0.0,0.0,0.0,0.0,0.0,0.0,0.0,0.0,0.0,0.0,0.0,0.0,0.0,0.0,4.8049,4.7443,4.6838,4.6617,4.6232,4.5608,4.4819,4.4397,4.4397,4.4617,4.5002,4.5608,4.5792,4.5902,4.5902,4.5902,4.6544,4.77,4.77,4.7352,4.6819,4.6819,4.6452,4.5957,4.6562,4.6929,4.7186,4.7774,4.8122,4.8306,4.8306,4.8306,4.8306,4.8306,4.8306,4.8306,4.8306,4.8306,4.8306,4.8306,4.8306,4.8306,4.8306,4.77,4.7113,4.7113,4.6342,4.5424,4.4837,4.4544,4.4213,4.3608,4.3497,4.3497,4.3497,4.3497,4.3754,4.458,4.4874,4.5223,4.581,4.5553,4.5241,4.5039,4.4373,4.4096,4.4302,4.4381,4.4576,4.4919,4.5338,4.5602,4.5644,4.5837,4.5952,4.5988,4.5843,4.5592,4.5243,4.5362,4.5495,4.5586,4.5586,4.5586,4.1115,4.1512,4.1792,4.3458,4.3753,4.3858,4.4612,0.0,4.4984,4.5736,4.5902,4.592,0.0,0.0,0.0,0.0,0.0,0.0,0.0,0.0,0.0,0.0,0.0,0.0,0.0,0.0,0.0,0.0,4.6049,4.6012,4.5957,4.5241,4.4819,4.4764,4.3975,4.3552,4.3552,4.4323,4.4727,4.4782,4.5535,4.5902,4.5902,4.5902,4.5957,4.6012,4.6012,4.5993,4.5957,4.5957,4.5938,4.5902,4.5957,4.6434,4.7131,4.713,4.7664,4.8306,4.8306,4.8306,4.8306,4.8306,4.8306,4.8306,4.8306,4.8306,4.8306,4.8306,4.8306,4.8306,4.8306,4.7682,4.7095,4.7113,4.592,4.4764,4.4727,4.4103,4.3534,4.3497,4.3497,4.3497,4.3497,4.3497,4.3754,4.458,4.5351,4.5847,4.5883,4.6544,4.6691,4.592,4.5358,4.5092,4.5214,4.4946,4.487,4.508,4.6065,4.6607,4.6626,4.7472,4.7914,4.7854,4.7834,4.7029,4.54,4.5457,4.5531,4.5586,4.5586,4.5586,4.0637,4.1399,4.1977,4.3055,4.3526,4.3793,4.3984,4.3989,4.4011,4.4287,4.436,4.436,4.436,0.0,0.0,0.0,0.0,0.0,0.0,0.0,0.0,0.0,0.0,0.0,0.0,0.0,0.0,0.0,0.0,4.5663,4.5168,4.4874,4.447,4.3956,4.3644,4.3497,4.3497,4.3791,4.392,4.392,4.4213,4.436,4.436,4.436,4.436,4.436,4.436,4.4654,4.5131,4.5131,4.4837,4.4397,4.4929,4.5314,4.5626,4.614,4.6856,4.7535,4.7535,4.7884,4.8306,4.8306,4.8306,4.8306,4.8306,4.8306,4.8306,4.8306,4.8306,4.8196,4.7682,4.6929,4.6049,4.5039,4.4342,4.392,4.392,4.3699,4.3497,4.3497,4.3497,4.3497,4.3497,4.3497,4.3938,4.5278,4.5718,4.6269,4.7315,4.726,4.7003,4.6838,4.6223,4.5974,4.63,4.5892,4.6017,4.6822,4.6818,4.7012,4.7588,4.7914,4.8087,4.8049,4.8049,4.7761,4.7127,4.7165,4.7184,4.7182,4.6663,4.6432,4.0071,4.0866,4.1518,4.2846,4.3357,4.3595,4.374,4.3682,4.3634,4.3566,4.3513,4.3532,4.3479,0.0,0.0,0.0,0.0,0.0,0.0,0.0,0.0,0.0,0.0,0.0,0.0,0.0,0.0,0.0,0.0,0.0,4.4323,4.4305,4.4048,4.3516,4.3497,4.3497,4.3497,4.3497,4.3497,4.3497,4.3497,4.3497,4.3497,4.3497,4.3497,4.3497,4.3497,4.3791,4.4305,4.4305,4.3975,4.3534,4.4085,4.447,4.4764,4.5296,4.6195,4.7113,4.7113,4.7462,4.7921,4.7921,4.7719,4.7553,4.7829,4.7921,4.7921,4.7921,4.7902,4.77,4.691,4.6085,4.5168,4.3809,4.3497,4.3497,4.3497,4.3497,4.3497,4.3497,4.3497,4.3497,4.3497,4.3497,4.4048,4.5663,4.5902,4.6489,4.8104,4.7847,4.7554,4.7703,4.7143,4.6927,4.7264,4.6876,4.701,4.7848,4.776,4.7933,4.8509,4.8817,4.8971,4.8971,4.8971,4.8971,4.8971,4.8375,4.8087,4.8086,4.7548,4.7163,0.0,0.0,0.0,4.2824,4.3262,4.324,4.3879,0.0,4.3758,4.3575,4.356,4.3545,4.3495,4.3479,0.0,0.0,0.0,0.0,0.0,0.0,0.0,0.0,0.0,0.0,0.0,0.0,0.0,0.0,4.3497,4.3497,4.3497,4.3497,4.3497,4.3497,4.3497,4.3497,4.3497,4.3497,4.3497,4.3497,4.3497,4.3497,4.3497,4.3497,4.3497,4.3497,4.3497,4.3497,4.3497,4.3497,4.3497,4.3497,4.3497,4.3975,4.4672,4.4672,4.5681,4.704,4.704,4.702,4.7039,4.7039,4.6544,4.6049,4.6838,4.7039,4.7039,4.7039,4.704,4.6893,4.6067,4.526,4.4471,4.3681,4.3497,4.3497,4.3497,4.3497,4.3497,4.3497,4.3497,4.3497,4.3497,4.3497,4.4048,4.5663,4.5902,4.6489,4.8104,4.8306,4.8363,4.8494,4.8134,4.7914,4.8138,4.7903,4.7815,4.7963,4.8875,4.9413,4.9433,5.024,5.0702,5.0702,5.0702,5.0702,5.0702,4.899,4.8182,4.8182,4.8144,4.7721,3.8803,0.0,0.0,0.0,0.0,0.0,0.0,0.0,4.2203,4.21,4.2519,4.2899,4.2717,4.3195,4.3548,0.0,0.0,0.0,0.0,0.0,0.0,0.0,0.0,0.0,0.0,0.0,0.0,0.0,4.3497,4.3497,4.3497,4.3497,4.3497,4.3497,4.3497,4.3497,4.3497,4.3497,4.3497,4.3497,4.3497,4.3497,4.3497,4.3497,4.3497,4.3497,4.3497,4.3497,4.3497,4.3497,4.3497,4.3497,4.3497,4.3626,4.3828,4.3828,4.4488,4.5369,4.5369,4.5755,4.6232,4.6232,4.6085,4.5938,4.6159,4.6232,4.6232,4.6232,4.6232,4.6049,4.5223,4.4416,4.3773,4.3534,4.3497,4.3497,4.3497,4.3497,4.3497,4.3497,4.3497,4.3497,4.3497,4.3497,4.4048,4.5663,4.5902,4.6489,4.8104,4.8363,4.8494,4.8679,4.8807,4.9027,4.9306,4.8903,4.899,4.9792,4.9567,4.9683,5.0298,5.0567,5.0702,5.0702,5.0702,5.0702,5.0702,5.0221,4.9971,4.9971,4.9336,4.8586,3.8178,3.8852,3.9545,4.1036,0.0,0.0,4.207,4.1995,4.1844,0.0,4.1983,4.2217,4.1968,4.2584,4.3085,4.3018,0.0,0.0,0.0,0.0,0.0,0.0,0.0,0.0,0.0,4.3497,4.3497,4.3497,4.3497,4.3497,4.3497,4.3497,4.3497,4.3497,4.3497,4.3497,4.3497,4.3497,4.3497,4.3497,4.3497,4.3497,4.3497,4.3497,4.3497,4.3497,4.3497,4.3497,4.3497,4.3497,4.3497,4.3497,4.3497,4.3497,4.3497,4.3497,4.4011,4.4709,4.4709,4.5021,4.5406,4.5406,4.5168,4.4947,4.5296,4.5406,4.5406,4.5406,4.5149,4.4782,4.4323,4.3846,4.3497,4.3497,4.3497,4.3497,4.3497,4.3497,4.3497,4.3497,4.3497,4.3532,4.3532,4.3548,4.4099,4.5771,4.601,4.6599,4.8199,4.855,4.8679,4.8874,4.9174,4.9499,4.9849,4.9706,4.9857,5.0544,5.0202,5.0164,5.0664,5.0702,5.0702,5.0702,5.0702,5.0702,5.0702,5.0702,5.0702,5.0683,5.0183,4.9471,3.7798,3.8043,3.8588,4.0895,4.1418,0.0,4.2034,4.2098,4.1959,0.0,4.1603,4.153,4.1255,4.1833,4.2327,4.232,4.2892,0.0,0.0,0.0,0.0,0.0,0.0,0.0,4.3497,4.3497,4.3497,4.3497,4.3497,4.3497,4.3497,4.3497,4.3497,4.3497,4.3497,4.3497,4.3497,4.3497,4.3497,4.3497,4.3497,4.3497,4.3497,4.3497,4.3497,4.3497,4.3497,4.3497,4.3497,4.3497,4.3497,4.3497,4.3497,4.3497,4.3497,4.3497,4.3956,4.458,4.458,4.458,4.458,4.458,4.4085,4.3626,4.436,4.458,4.458,4.458,4.4048,4.3497,4.3497,4.3497,4.3497,4.3497,4.3497,4.3479,4.3532,4.3532,4.3532,4.3532,4.3532,4.3513,4.3615,4.3615,4.4236,4.5981,4.6221,4.6812,4.8456,4.8768,4.8874,4.9008,4.9346,4.9693,5.0005,5.0278,5.0478,5.0603,5.0663,5.0702,5.0702,5.0702,5.0702,5.0702,5.0702,5.0702,5.0702,5.0702,5.0702,5.0702,5.0702,5.0279,3.8668,3.8914,0.0,0.0,0.0,0.0,4.0692,4.0635,4.0496,0.0,4.0783,4.1042,4.0719,4.1314,4.1946,4.2327,4.2515,4.2812,0.0,0.0,0.0,0.0,0.0,0.0,4.3497,4.3497,4.3497,4.3497,4.3497,4.3497,4.3497,4.3497,4.3497,4.3497,4.3497,4.3497,4.3497,4.3497,4.3497,4.3497,4.3497,4.3497,4.3497,4.3497,4.3497,4.3497,4.3497,4.3497,4.3497,4.3497,4.3497,4.3497,4.3497,4.3497,4.3497,4.3497,4.3589,4.3718,4.3718,4.3718,4.3718,4.3718,4.3626,4.3516,4.3681,4.3718,4.3718,4.3718,4.3608,4.3497,4.3497,4.3497,4.3497,4.3497,4.3497,4.3513,4.3548,4.3582,4.3615,4.3719,4.3634,4.3634,4.3753,4.3865,4.4498,4.6248,4.6522,4.7117,4.8702,4.9046,4.9179,4.9321,4.9665,4.9986,5.0231,5.0435,5.0603,5.0682,5.0683,5.0702,5.0702,5.0702,5.0702,5.0702,5.0702,5.0702,5.0702,5.0702,5.0702,5.0702,5.0702,5.0606,0.0,0.0,0.0,4.0284,0.0,0.0,0.0,4.0342,4.0271,4.0138,4.0321,4.0394,4.0121,4.0659,4.1315,4.1866,4.2221,4.2695,4.3437,0.0,0.0,0.0,0.0,0.0,4.3497,4.3497,4.3497,4.3497,4.3497,4.3497,4.3497,4.3497,4.3497,4.3497,4.3497,4.3497,4.3497,4.3497,4.3497,4.3497,4.3497,4.3497,4.3497,4.3497,4.3497,4.3497,4.3497,4.3497,4.3497,4.3497,4.3497,4.3497,4.3497,4.3497,4.3497,4.3497,4.3497,4.3497,4.3497,4.3497,4.3532,4.3548,4.3548,4.3548,4.3634,4.36,4.3548,4.3548,4.3548,4.3548,4.3649,4.3701,4.3701,4.3749,4.3749,4.3749,4.3781,4.3814,4.3846,4.391,4.4257,4.4554,4.4573,4.4712,4.5406,4.7192,4.7496,4.7927,4.9146,4.9415,4.9555,4.9665,4.9933,5.0163,5.0371,5.0521,5.0623,5.0702,5.0702,5.0702,5.0702,5.0702,5.0702,5.0702,5.0702,5.0702,5.0702,5.0702,5.0702,5.0702,5.0702,5.0702,0.0,0.0,0.0,0.0,0.0,4.0508,0.0,0.0,0.0,4.0291,4.0158,3.9982,3.9721,0.0,0.0,0.0,0.0,0.0,0.0,4.349,0.0,0.0,0.0,0.0,0.0,4.3497,4.3497,4.3497,4.3497,4.3497,4.3497,4.3497,4.3497,4.3497,4.3497,4.3497,4.3497,4.3497,4.3497,4.3497,4.3497,4.3497,4.3497,4.3497,4.3497,4.3497,4.3497,4.3497,4.3497,4.3513,4.3513,4.3532,4.3532,4.3497,4.3497,4.3513,4.3513,4.3513,4.355,4.3584,4.36,4.3652,4.3667,4.3682,4.3786,4.3734,4.3667,4.3667,4.3664,4.373,4.3878,4.3955,4.3968,4.4017,4.4048,4.4048,4.4079,4.4079,4.4091,4.4199,4.4972,4.5581,4.5492,4.5742,4.6516,4.8164,4.8474,4.8785,4.9617,4.9824,4.9925,5.0038,5.0182,5.0325,5.05,5.0582,5.0643,5.0702,5.0702,5.0702,5.0702,5.0702,5.0702,5.0702,5.0702,5.0702,5.0702,5.0702,5.0702,5.0702,5.0702,5.0702,0.0,0.0,0.0,0.0,4.0489,0.0,0.0,0.0,4.0492,4.0466,0.0,4.027,0.0,0.0,0.0,0.0,0.0,0.0,4.273,4.324,4.3548,4.3532,0.0,0.0,0.0,4.3497,4.3497,4.3497,4.3497,4.3497,4.3497,4.3497,4.3497,4.3497,4.3497,4.3497,4.3497,4.3497,4.3497,4.3497,4.3497,4.3497,4.3497,4.3497,4.3497,4.3497,4.3497,4.3497,4.3479,4.3548,4.3582,4.3582,4.3513,4.3497,4.3532,4.3548,4.3582,4.36,4.3796,4.3859,4.3883,4.3925,4.3934,4.3942,4.3897,4.3883,4.3865,4.3865,4.3918,4.3967,4.406,4.4117,4.4158,4.4173,4.4181,4.4221,4.4318,4.4346,4.4421,4.4613,4.5334,4.5908,4.5772,4.6577,4.7574,4.8669,4.8857,4.9148,5.0024,5.0139,5.0163,5.0255,5.0371,5.05,5.0582,5.0643,5.0683,5.0702,5.0702,5.0702,5.0702,5.0702,5.0702,5.0702,5.0702,5.0702,5.0702,5.0702,5.0702,5.0702,5.0702,5.0702,0.0,0.0,0.0,0.0,0.0,0.0,4.0489,0.0,4.0508,0.0,0.0,0.0,0.0,0.0,0.0,0.0,4.1092,0.0,0.0,0.0,4.3195,0.0,0.0,0.0,0.0,0.0,0.0,0.0,4.3497,4.3497,4.3497,4.3497,4.3532,4.3548,4.3548,4.36,4.3686,4.3686,4.3686,4.3686,4.3686,4.3634,4.3548,4.3548,4.3548,4.3548,4.3548,4.3615,4.3734,4.3767,4.3814,4.3892,4.386,4.3814,4.3734,4.3814,4.3878,4.3892,4.3998,4.4011,4.4036,4.4085,4.4177,4.4218,4.4151,4.4121,4.4151,4.4162,4.4202,4.428,4.4522,4.4591,4.4624,4.4688,4.4732,4.4732,4.4789,4.4808,4.4833,4.4967,4.606,4.6977,4.7001,4.7767,4.8672,4.9606,4.979,4.995,5.0333,5.0371,5.0393,5.0478,5.0521,5.0582,5.0643,5.0683,5.0702,5.0702,5.0702,5.0702,5.0702,5.0702,5.0702,5.0702,5.0702,5.0702,5.0702,5.0702,5.0433,4.9952,5.0452,5.0702,4.0252,0.0,0.0,0.0,0.0,0.0,0.0,0.0,0.0,0.0,0.0,0.0,0.0,0.0,0.0,0.0,0.0,4.1054,0.0,4.2072,0.0,0.0,0.0,0.0,0.0,0.0,0.0,4.3497,4.3497,4.3497,4.3497,4.3497,4.3513,4.3582,4.3634,4.3701,4.3837,4.3869,4.3851,4.3851,4.3851,4.38,4.3716,4.3716,4.3716,4.3716,4.3749,4.3814,4.3942,4.4017,4.4091,4.4192,4.4298,4.4258,4.4188,4.414,4.4151,4.4192,4.4288,4.4298,4.4308,4.4365,4.4458,4.4505,4.4467,4.4448,4.4448,4.453,4.4538,4.4636,4.4919,4.501,4.5014,4.5125,4.5148,4.517,4.517,4.5189,4.5265,4.5562,4.6787,4.7881,4.8235,4.8917,4.9637,5.0339,5.05,5.0542,5.0542,5.0542,5.0563,5.0623,5.0623,5.0643,5.0702,5.0702,5.0702,5.0702,5.0702,5.0702,5.0702,5.0702,5.0702,5.0702,5.0702,5.0567,5.0337,5.0337,4.9894,4.9067,4.9933,5.0221,0.0,0.0,0.0,4.0508,0.0,0.0,0.0,0.0,4.0489,0.0,0.0,0.0,0.0,0.0,0.0,0.0,0.0,0.0,0.0,0.0,0.0,0.0,0.0,0.0,0.0,0.0,4.3497,4.3497,4.3497,4.3497,4.3497,4.3497,4.3513,4.3582,4.3719,4.3837,4.3915,4.3942,4.4005,4.4005,4.4005,4.4005,4.4005,4.4005,4.4005,4.4005,4.4048,4.4109,4.4091,4.4289,4.4402,4.443,4.4751,4.487,4.4846,4.4503,4.4402,4.443,4.4693,4.4777,4.4795,4.4852,4.4846,4.4789,4.477,4.477,4.4796,4.487,4.4919,4.5014,4.5148,4.5254,4.5297,4.5297,4.5297,4.5317,4.5378,4.5395,4.5644,4.6492,4.7395,4.826,4.9105,4.9928,5.0483,5.0582,5.0643,5.0683,5.0683,5.0683,5.0683,5.0702,5.0702,5.0702,5.0702,5.0702,5.0702,5.0702,5.0702,5.0702,5.0702,5.0702,5.0702,5.0702,5.0702,5.0279,4.9433,4.9433,4.899,4.8163,4.9048,4.899,0.0,0.0,4.0499,4.0508,0.0,0.0,0.0,0.0,0.0,0.0,0.0,0.0,0.0,0.0,0.0,0.0,0.0,0.0,0.0,0.0,0.0,0.0,0.0,0.0,0.0,0.0,0.0,4.2708,4.2213,4.2173,4.2754,4.2772,4.3111,4.3905,4.3955,4.4128,4.4383,4.4411,4.4421,4.4477,4.4477,4.4383,4.426,4.426,4.426,4.4279,4.4289,4.4421,4.4629,4.4707,4.4808,4.4929,4.5061,4.5125,4.5148,4.4948,4.4881,4.4948,4.4967,4.4943,4.4876,4.4943,4.4919,4.4895,4.5014,4.5061,4.5103,4.5192,4.5254,4.5297,4.538,4.5419,4.5438,4.5495,4.5495,4.5495,4.5533,4.5975,4.6474,4.6781,4.7972,4.9029,4.9317,5.0067,5.0643,5.0663,5.0702,5.0702,5.0702,5.0702,5.0702,5.0702,5.0702,5.0702,5.0702,5.0702,5.0702,5.0702,5.0702,5.0702,5.0702,5.0702,5.0702,5.0702,5.0125,4.9683,4.9394,4.8817,4.8105,4.7317,4.7605,4.7875,4.0463,4.0515,0.0,4.0508,4.0489,0.0,4.0489,0.0,0.0,0.0,0.0,0.0,0.0,0.0,0.0,0.0,0.0,0.0,0.0,4.0188,0.0,0.0,0.0,0.0,0.0,4.2191,4.1897,4.1882,4.1405,4.1475,0.0,0.0,4.2931,4.4011,4.4091,4.4288,4.4605,4.4659,4.4738,4.4815,4.4815,4.4751,4.4662,4.4662,4.4662,4.4662,4.4669,4.4808,4.4991,4.5057,4.5148,4.5256,4.5298,4.532,4.536,4.5235,4.5235,4.5258,4.5216,4.5151,4.5084,4.5129,4.5106,4.5084,4.5237,4.5258,4.5279,4.54,4.5438,4.5438,4.5532,4.555,4.5608,4.599,4.6067,4.6144,4.6432,4.6932,4.7413,4.774,4.8663,4.951,4.9817,5.0317,5.0702,5.0702,5.0702,5.0702,5.0702,5.0702,5.0702,5.0702,5.0702,5.0702,5.0702,5.0702,5.0702,5.0702,5.0702,5.0548,5.024,5.024,5.0087,4.9779,4.9221,4.8798,4.8509,4.7952,4.7259,4.6432,4.6432,4.6721]},{"header":{"parameterUnit":"m.s-1","parameterCategory":1,"la1":30.6,"la2":29.2853,"lo1":-89.7004,"lo2":-87.6739,"dy":0.0162,"dx":0.0183,"nx":112,"ny":82,"refTime":"2023-08-22T12:00:00:Z","depth":0,"parameterNumber":3,"parameterNumberName":"V-component_of_WINDS"},"data":[0.0,0.0,0.0,0.0,0.0,0.0,0.0,0.0,0.0,0.0,0.0,0.0,0.0,0.0,0.0,0.0,0.0,0.0,0.0,0.0,0.0,0.0,0.0,0.0,0.0,0.0,0.0,0.0,0.0,0.0,0.0,0.0,0.0,0.0,0.0,0.0,0.0,0.0,0.0,0.0,0.0,0.0,0.0,0.0,0.0,0.0,0.0,0.0,0.0,0.0,0.0,0.0,0.0,0.0,0.0,0.0,0.0,0.0,0.0,0.0,0.0,0.0,0.0,0.0,0.0,0.0,0.0,0.0,0.0,0.0,0.0,0.0,0.0,0.0,0.0,0.0,0.0,0.0,0.0,0.0,0.0,0.0,0.0,0.0,0.0,0.0,0.0,0.0,0.0,0.0,1.4585,1.2782,1.0214,0.8402,0.7818,0.8999,1.058,1.2349,0.0,0.0,0.0,0.0,0.0,0.0,0.0,0.0,0.0,0.0,0.0,0.0,0.0,0.0,0.0,0.0,0.0,0.0,0.0,0.0,0.0,0.0,0.0,0.0,0.0,0.0,0.0,0.0,0.0,0.0,0.0,0.0,0.0,0.0,0.0,0.0,0.0,0.0,0.0,0.0,0.0,0.0,0.0,0.0,0.0,0.0,0.0,0.0,0.0,0.0,0.0,0.0,0.0,0.0,0.0,0.0,0.0,0.0,0.0,0.0,0.0,0.0,0.0,0.0,0.0,0.0,0.0,0.0,0.0,0.0,0.0,0.0,0.0,0.0,0.0,0.0,0.0,0.0,0.0,0.0,0.0,0.0,0.0,0.0,0.0,0.0,0.0,0.0,0.0,0.0,0.0,0.0,0.0,0.0,0.0,0.0,0.0,0.0,0.0,0.0,0.0,0.0,0.0,0.0,1.3507,1.062,0.8835,0.7706,0.7241,0.8277,0.9709,1.1616,0.0,0.0,0.0,0.0,0.0,0.0,0.0,0.0,0.0,0.0,0.0,0.0,0.0,0.0,0.0,0.0,0.0,0.0,0.0,0.0,0.0,0.0,0.0,0.0,0.0,0.0,0.0,0.0,0.0,0.0,0.0,0.0,0.0,0.0,0.0,0.0,0.0,0.0,0.0,0.0,0.0,0.0,0.0,0.0,0.0,0.0,0.0,0.0,0.0,0.0,0.0,0.0,0.0,0.0,0.0,0.0,0.0,0.0,0.0,0.0,0.0,0.0,0.0,0.0,0.0,0.0,0.0,0.0,0.0,0.0,0.0,0.0,0.0,0.0,0.0,0.0,0.0,0.0,0.0,0.0,0.0,0.0,0.0,0.0,0.0,0.0,0.0,0.0,0.0,0.0,0.0,0.0,0.0,0.0,0.0,0.0,0.0,0.0,0.0,0.0,0.0,0.0,0.0,1.3375,1.1769,0.9577,0.8224,0.7343,0.7036,0.7913,0.9313,1.1202,1.3909,0.0,0.0,0.0,0.0,0.0,0.0,0.0,0.0,0.0,0.0,0.0,0.0,0.0,0.0,0.0,0.0,0.0,0.0,0.0,0.0,0.0,0.0,0.0,0.0,0.0,0.0,0.0,0.0,0.0,0.0,0.0,0.0,0.0,0.0,0.0,0.0,0.0,0.0,0.0,0.0,0.0,0.0,0.0,0.0,0.0,0.0,0.0,0.0,0.0,0.0,0.0,0.0,0.0,0.0,0.0,0.0,0.0,0.0,0.0,0.0,0.0,0.0,0.0,0.0,0.0,0.0,0.0,0.0,0.0,0.0,0.0,0.0,0.0,0.0,0.0,0.0,0.0,0.0,0.0,0.0,0.0,0.0,0.0,0.0,0.0,0.0,0.0,0.0,0.0,0.0,0.0,0.0,0.0,0.0,0.0,0.0,0.0,0.0,0.0,0.0,0.0,0.0,1.1697,1.0297,0.8967,0.7812,0.7025,0.682,0.7652,0.8964,1.0831,1.3238,0.0,0.0,0.0,0.0,0.0,0.0,0.0,0.0,0.0,0.0,0.0,0.0,0.0,0.0,0.0,0.0,0.0,0.0,0.0,0.0,0.0,0.0,0.0,0.0,0.0,0.0,0.0,0.0,0.0,0.0,0.0,0.0,0.0,0.0,0.0,0.0,0.0,0.0,0.0,0.0,0.0,0.0,0.0,0.0,0.0,0.0,0.0,0.0,0.0,0.0,0.0,0.0,0.0,0.0,0.0,0.0,0.0,0.0,0.0,0.0,0.0,0.0,0.0,0.0,0.0,0.0,0.0,0.0,0.0,0.0,0.0,0.0,0.0,0.0,0.0,0.0,0.0,0.0,0.0,0.0,0.0,0.0,0.0,0.0,0.0,0.0,0.0,0.0,0.0,0.0,0.0,0.0,0.0,0.0,0.0,0.0,0.0,0.0,0.0,0.0,0.0,0.0,1.1149,0.9747,0.8488,0.7331,0.6593,0.6436,0.7224,0.8547,1.0439,1.276,0.0,0.0,0.0,0.0,0.0,0.0,0.0,0.0,0.0,0.0,0.0,0.0,0.0,0.0,0.0,0.0,0.0,0.0,0.0,0.0,0.0,0.0,0.0,0.0,0.0,0.0,0.0,0.0,0.0,0.0,0.0,0.0,0.0,0.0,0.0,0.0,0.0,0.0,0.0,0.0,0.0,0.0,0.0,0.0,0.0,0.0,0.0,0.0,0.0,0.0,0.0,0.0,0.0,0.0,0.0,0.0,0.0,0.0,0.0,0.0,0.0,0.0,0.0,0.0,0.0,0.0,0.0,0.0,0.0,0.0,0.0,0.0,0.0,0.0,0.0,0.0,0.0,0.0,0.0,0.0,0.0,0.0,0.0,0.0,0.0,0.0,0.0,0.0,0.0,0.0,0.0,0.0,0.0,0.0,0.0,0.0,0.0,0.0,0.0,0.0,0.0,0.0,1.045,0.9117,0.0,0.6853,0.6213,0.6164,0.6956,0.8239,0.9992,0.0,0.0,0.0,0.0,0.0,0.0,0.0,0.0,0.0,0.0,0.0,0.0,0.0,0.0,0.0,0.0,0.0,0.0,0.0,0.0,0.0,0.0,0.0,0.0,0.0,0.0,0.0,0.0,0.0,0.0,0.0,0.0,0.0,0.0,0.0,0.0,0.0,0.0,0.0,0.0,0.0,0.0,0.0,0.0,0.0,0.0,0.0,0.0,0.0,0.0,0.0,0.0,0.0,0.0,0.0,0.0,0.0,0.0,0.0,0.0,0.0,0.0,0.0,0.0,0.0,0.0,0.0,0.0,0.0,0.0,0.0,0.0,0.0,0.0,0.0,0.0,0.0,0.0,0.0,0.0,0.0,0.0,0.0,0.0,0.0,0.0,0.0,0.0,0.0,0.0,0.0,0.0,0.0,0.0,0.0,0.0,0.0,0.0,0.0,0.0,0.0,0.0,1.1166,0.9843,0.8606,0.0,0.6426,0.5946,0.5891,0.6632,0.7823,0.9592,0.0,0.0,0.0,0.0,0.0,0.0,0.0,0.0,0.0,0.0,0.0,0.0,0.0,0.0,0.0,0.0,0.0,0.0,0.0,0.0,0.0,0.0,0.0,0.0,0.0,0.0,0.0,0.0,0.0,0.0,0.0,0.0,0.0,0.0,0.0,0.0,0.0,0.0,0.0,0.0,0.0,0.0,0.0,0.0,0.0,0.0,0.0,0.0,0.0,0.0,0.0,0.0,0.0,0.0,0.0,0.0,0.0,0.0,0.0,0.0,0.0,0.0,0.0,0.0,0.0,0.0,0.0,0.0,0.0,0.0,0.0,0.0,0.0,0.0,0.0,0.0,0.0,0.0,0.0,0.0,0.0,0.0,0.0,0.0,0.0,0.0,0.0,0.0,0.0,0.0,0.0,0.0,0.0,0.0,0.0,0.0,0.0,0.0,0.0,0.0,0.0,0.0,1.0618,0.9444,0.8243,0.675,0.61,0.5723,0.5622,0.6213,0.7362,0.0,0.0,0.0,0.0,0.0,0.0,0.0,0.0,0.0,0.0,0.0,0.0,0.0,0.0,0.0,0.0,0.0,0.0,0.0,0.0,0.0,0.0,0.0,0.0,0.0,0.0,0.0,0.0,0.0,0.0,0.0,0.0,0.0,0.0,0.0,0.0,0.0,0.0,0.0,0.0,0.0,0.0,0.0,0.0,0.0,0.0,0.0,0.0,0.0,0.0,0.0,0.0,0.0,0.0,0.0,0.0,0.0,0.0,0.0,0.0,0.0,0.0,0.0,0.0,0.0,0.0,0.0,0.0,0.0,0.0,0.0,0.0,0.0,0.0,0.0,0.0,0.0,0.0,0.0,0.0,0.0,0.0,0.0,0.0,0.0,0.0,0.0,0.0,0.0,0.0,0.0,0.0,0.0,0.0,0.0,0.0,0.0,0.0,0.0,0.0,0.0,0.0,0.0,1.034,0.9162,0.7913,0.6475,0.5769,0.5336,0.512,0.5769,0.6881,0.8495,0.0,0.0,0.0,0.0,0.0,0.0,0.0,0.0,0.0,0.0,0.0,0.0,0.0,0.0,0.0,0.0,0.0,0.0,0.0,0.0,0.0,0.0,0.0,0.0,0.0,0.0,0.0,0.0,0.0,0.0,0.0,0.0,0.0,0.0,0.0,0.0,0.0,0.0,0.0,0.0,0.0,0.0,0.0,0.0,0.0,0.0,0.0,0.0,0.0,0.0,0.0,0.0,0.0,0.0,0.0,0.0,0.0,0.0,0.0,0.0,0.0,0.0,0.0,0.0,0.0,0.0,0.0,0.0,0.0,0.0,0.0,0.0,0.0,0.0,0.0,0.0,0.0,0.0,0.0,0.0,0.0,0.0,0.0,0.0,0.0,0.0,0.0,0.0,0.0,0.0,0.0,0.0,0.0,0.0,0.0,0.0,0.0,0.0,0.0,0.0,0.0,0.0,0.9982,0.8901,0.7747,0.6204,0.5555,0.5066,0.4791,0.5222,0.6185,0.767,0.0,0.0,0.0,0.0,0.0,0.0,0.0,0.0,0.0,0.0,0.0,0.0,0.0,0.0,0.0,0.0,0.0,0.0,0.0,0.0,0.0,0.0,0.0,0.0,0.0,0.0,0.0,0.0,0.0,0.0,0.0,0.0,0.0,0.0,0.0,0.0,0.0,0.0,0.0,0.0,0.0,0.0,0.0,0.0,0.0,0.0,0.0,0.0,0.0,0.0,0.0,0.0,0.0,0.0,0.0,0.0,0.0,0.0,0.0,0.0,0.0,0.0,0.0,0.0,0.0,0.0,0.0,0.0,0.0,0.0,0.0,0.0,0.0,0.0,0.0,0.0,0.0,0.0,0.0,0.0,0.0,0.0,0.0,0.0,0.0,0.0,0.0,0.0,0.0,0.0,0.0,0.0,0.0,0.0,0.0,0.0,0.0,0.0,0.0,0.0,0.0,0.0,0.9636,0.8751,0.7641,0.5987,0.5395,0.4904,0.4463,0.468,0.5437,0.6779,0.0,0.0,0.0,0.0,0.0,0.0,0.0,0.0,0.0,0.0,0.0,0.0,0.0,0.0,0.0,0.0,0.0,0.0,0.0,0.0,0.0,0.0,0.0,0.0,0.0,0.0,0.0,0.0,0.0,0.0,0.0,0.0,0.0,0.0,0.0,0.0,0.0,0.0,0.0,0.0,0.0,0.0,0.0,0.0,0.0,0.0,0.0,0.0,0.0,0.0,0.0,0.0,0.0,0.0,0.0,0.0,0.0,0.0,0.0,0.0,0.467,0.0,0.0,0.0,0.0,0.0,0.0,0.0,0.0,0.0,0.0,0.0,0.0,0.0,0.0,0.0,0.0,0.0,0.0,0.0,0.0,0.0,0.0,0.0,0.0,0.0,0.0,0.0,0.0,0.0,0.0,0.0,0.0,0.0,0.0,0.0,0.0,0.0,0.0,0.0,0.0,0.0,0.9585,0.8547,0.7439,0.5932,0.5281,0.4736,0.4132,0.4239,0.4831,0.591,0.7365,0.0,0.0,0.0,0.0,0.0,0.0,0.0,0.0,0.0,0.0,0.0,0.0,0.0,0.0,0.0,0.0,0.0,0.0,0.0,0.0,0.0,0.0,0.0,0.0,0.0,0.0,0.0,0.0,0.0,0.0,0.0,0.0,0.0,0.0,0.0,0.0,0.0,0.0,0.0,0.0,0.0,0.0,0.0,0.0,0.0,0.0,0.0,0.0,0.0,0.0,0.0,0.0,0.0,0.0,0.0,0.0,0.0,0.0,0.0,0.0,0.3224,0.0,0.0,0.0,0.0,0.0,0.0,0.0,0.0,0.0,0.0,0.0,0.0,0.0,0.0,0.0,0.0,0.0,0.0,0.0,0.0,0.0,0.0,0.0,0.0,0.0,0.0,0.0,0.0,0.0,0.0,0.0,0.0,0.0,0.0,0.0,0.0,0.0,0.0,0.0,0.0,0.9652,0.8526,0.7337,0.5887,0.512,0.446,0.3852,0.3683,0.3895,0.471,0.5932,0.0,0.0,0.0,0.0,0.0,0.0,0.0,0.0,0.0,0.0,0.0,0.0,0.0,0.0,0.0,0.0,0.0,0.0,0.0,0.0,0.0,0.0,0.0,0.0,0.0,0.0,0.0,0.0,0.0,0.0,0.0,0.0,0.0,0.0,0.0,0.0,0.0,0.0,0.0,0.0,0.0,0.0,0.0,0.0,0.0,0.0,0.0,0.0,0.0,0.0,0.0,0.0,0.0,0.0451,0.0395,0.0225,0.0225,0.0112,0.0,0.1003,0.1393,0.1284,0.0,0.0,0.0,0.0,0.0,0.0,0.0,0.0,0.0,0.0,0.0,0.0,0.0,0.0,0.0,0.0,0.0,0.0,0.0,0.0,0.0,0.0,0.0,0.0,0.0,0.7427,0.7747,0.0,0.0,0.0,0.0,0.0,0.0,0.0,0.0,0.0,0.0,0.0,0.0,0.9756,0.8524,0.7236,0.583,0.4919,0.4184,0.3627,0.3186,0.3128,0.3561,0.4316,0.5496,0.0,0.0,0.0,0.0,0.0,0.0,0.0,0.0,0.0,0.0,0.0,0.0,0.0,0.0,0.0,0.0,0.0,0.0,0.0,0.0,0.0,0.0,0.0,0.0,0.0,0.0,0.0,0.0,0.0,0.0,0.0,0.0,-0.3355,-0.3023,0.0,0.0,0.0,0.0,0.0,0.0,0.0,0.0,0.0,0.0,0.0,0.0,0.0,-0.0561,-0.0729,-0.0449,-0.0341,-0.0408,-0.0408,-0.0467,-0.0467,-0.0583,-0.0804,-0.1006,-0.1338,0.0,0.0056,0.028,0.0,0.0,0.0,0.0,0.0,0.0,0.0,0.0,0.0,0.0,0.0,0.0,0.0,0.0,0.0,0.0,0.0,0.0,0.0,0.0,0.0,0.0,0.5756,0.5538,0.5483,0.5592,0.0,0.7966,0.9724,1.0554,1.1341,0.0,0.0,0.0,0.0,0.0,0.0,0.0,0.9916,0.83,0.692,0.5967,0.4762,0.391,0.3469,0.3137,0.2968,0.2847,0.2668,0.3427,0.5504,0.7695,0.0,0.0,0.0,0.0,0.0,0.0,0.0,0.0,0.0,0.0,0.0,0.0,0.0,0.0,0.0,0.0,0.0,0.0,0.0,0.0,0.0,0.0,0.0,0.0,0.0,0.0,0.0,0.0,0.0,-0.4558,-0.4159,-0.4025,-0.3765,-0.3365,0.0,0.0,0.0,0.0,0.0,0.0,0.0,0.0,0.0,-0.1598,-0.1659,-0.1777,-0.1956,-0.1836,-0.1905,-0.2165,-0.2165,-0.2345,-0.2765,-0.2825,-0.2836,-0.2864,-0.3261,-0.3114,-0.2561,-0.1893,-0.1389,-0.0833,0.0,0.0,0.0,0.0,0.3129,0.3302,0.3253,0.3465,0.0,0.0,0.0,0.0,0.0,0.0,0.0,0.0,0.0,0.0,0.0,0.0,0.0,0.4171,0.4116,0.4168,0.4549,0.5625,0.6993,0.0,0.9875,1.0825,1.148,0.0,0.0,0.0,0.0,1.1171,0.9755,0.817,0.676,0.562,0.4626,0.3707,0.3079,0.2687,0.2352,0.2071,0.1675,0.2,0.3262,0.5767,0.7781,0.0,0.0,0.0,0.0,0.0,0.0,0.0,0.0,0.0,0.0,0.0,0.0,0.0,0.0,0.0,0.0,0.0,0.0,0.0,0.0,0.0,0.0,0.0,0.0,0.0,0.0,0.0,0.0,-0.5078,-0.5026,-0.499,-0.4998,-0.4767,0.0,0.0,0.0,0.0,0.0,0.0,-0.1604,-0.2048,-0.2368,-0.2428,-0.2638,-0.2837,-0.3093,-0.3153,-0.3337,-0.3643,-0.3768,-0.4063,-0.459,-0.4651,-0.4636,-0.4552,-0.4841,-0.5013,-0.5076,-0.3863,-0.3277,-0.2941,-0.205,-0.1218,-0.0499,0.0443,0.0945,0.1114,0.1338,0.1785,0.2176,0.2284,0.0,0.3788,0.4432,0.0,0.0,0.0,0.0,0.4671,0.4286,0.3835,0.3439,0.3149,0.2976,0.2974,0.3256,0.3537,0.4409,0.0,0.8195,0.9323,1.0148,0.0,0.0,0.0,0.0,1.103,0.9568,0.8005,0.6611,0.5466,0.4497,0.36,0.2834,0.2306,0.185,0.1459,0.0952,0.0949,0.1557,0.3784,0.5802,0.7527,0.0,0.0,0.0,0.0,0.0,0.0,0.0,0.0,0.0,0.0,0.0,0.0,0.0,0.0,0.0,0.0,0.0,0.0,0.0,0.0,0.0,0.0,0.0,0.0,0.0,0.0,0.0,0.0,0.0,-0.604,-0.5985,0.0,0.0,0.0,0.0,-0.3073,-0.2393,-0.2335,-0.3079,-0.3036,-0.3017,-0.3204,-0.3357,-0.3606,-0.3946,-0.4071,-0.4201,-0.4337,-0.4665,-0.4922,-0.5167,-0.5364,-0.5527,-0.5731,-0.6092,-0.6451,-0.6776,-0.535,-0.4769,-0.4714,-0.4103,-0.3379,-0.266,-0.1779,-0.1171,-0.0726,-0.0223,-0.0056,0.0056,0.0614,0.1783,0.3079,0.3754,0.4253,0.0,0.0,0.414,0.3719,0.342,0.3062,0.2701,0.2516,0.2147,0.1901,0.1899,0.1958,0.2753,0.0,0.644,0.7623,0.9087,0.0,1.1199,1.1775,1.1246,1.0431,0.9342,0.7754,0.6442,0.5742,0.4429,0.3399,0.2928,0.2226,0.1629,0.1234,0.0505,0.0336,0.0894,0.1615,0.3104,0.5412,0.7105,0.0,0.0,0.0,0.0,0.0,0.0,0.0,0.0,0.0,0.0,0.0,0.0,0.0,0.0,0.0,0.0,0.0,0.0,0.0,0.0,0.0,0.0,0.0,0.0,0.0,0.0,0.0,0.0,-0.6655,-0.7302,0.0,-0.7311,-0.7095,-0.6539,-0.5531,-0.4848,-0.4379,-0.4254,-0.4155,-0.4107,-0.4107,-0.4219,-0.438,-0.4661,-0.4801,-0.5151,-0.571,-0.6194,-0.6777,-0.7459,-0.7803,-0.7959,-0.7947,-0.8135,-0.8191,-0.8049,-0.787,-0.7379,-0.6659,-0.6294,-0.5649,-0.4773,-0.4016,-0.3257,-0.2554,-0.2195,-0.184,-0.1427,-0.0773,0.0238,0.1309,0.1862,0.2414,0.2907,0.2997,0.3132,0.3077,0.277,0.2405,0.2039,0.1543,0.1172,0.0868,0.0885,0.0888,0.1327,0.2641,0.4363,0.6035,0.7175,0.8655,0.9822,1.016,1.0183,0.9807,0.8578,0.7446,0.6268,0.5088,0.4287,0.3522,0.2792,0.2124,0.1565,0.1043,0.0397,0.0112,0.0336,0.0894,0.1833,0.3209,0.5429,0.7459,0.0,0.0,0.0,0.0,0.0,0.0,0.0,0.0,0.0,0.0,0.0,0.0,0.0,0.0,0.0,0.0,0.0,0.0,0.0,0.0,0.0,0.0,0.0,0.0,0.0,0.0,-0.7098,-0.7671,-0.8582,-0.9093,-0.8954,-0.8862,-0.8421,-0.7425,-0.6706,-0.6093,-0.557,-0.5472,-0.5448,-0.5576,-0.5698,-0.5872,-0.6023,-0.6177,-0.6503,-0.6984,-0.7492,-0.814,-0.892,-0.9346,-0.9541,-0.9519,-0.9649,-0.9556,-0.9406,-0.9736,-0.9467,-0.8743,-0.8171,-0.7526,-0.6727,-0.5812,-0.5012,-0.423,-0.362,-0.309,-0.2552,-0.1913,-0.1107,-0.0308,0.0249,0.0811,0.1381,0.1664,0.1933,0.2133,0.1958,0.1768,0.1508,0.1048,0.0589,0.0263,0.0268,0.0337,0.0609,0.1241,0.2827,0.4484,0.5598,0.7205,0.8467,0.8766,0.9184,0.9061,0.7946,0.7108,0.6199,0.4913,0.4259,0.36,0.2802,0.198,0.1326,0.0944,0.0346,0.0057,0.0112,0.0504,0.1061,0.1781,0.4569,0.6929,0.8831,0.0,0.0,0.0,0.0,0.0,0.0,0.0,0.0,0.0,0.0,0.0,0.0,0.0,0.0,0.0,0.0,0.0,0.0,0.0,0.0,0.0,0.0,0.0,-0.6542,-0.7038,-0.7795,-0.8964,-0.9632,-1.0119,-1.0349,-1.0171,-0.9635,-0.868,-0.7957,-0.7402,-0.7216,-0.6939,-0.7032,-0.7601,-0.7764,-0.7934,-0.8106,-0.8102,-0.8167,-0.8124,-0.8574,-0.903,-0.9395,-0.9816,-1.0172,-1.0457,-1.0457,-1.059,-1.0792,-1.0868,-1.0931,-1.0842,-0.9748,-0.8989,-0.8326,-0.7179,-0.6379,-0.5654,-0.4568,-0.3781,-0.3272,-0.2808,-0.229,-0.1681,-0.1089,-0.0517,-0.0065,0.0483,0.0631,0.0706,0.1014,0.1021,0.1093,0.1093,0.051,0.0,0.0,0.0219,0.0584,0.1243,0.196,0.2916,0.4433,0.5899,0.7069,0.776,0.816,0.0,0.7455,0.6889,0.6241,0.53,0.4477,0.3742,0.3034,0.1703,0.0881,0.0889,0.0295,0.0116,0.0393,0.0393,0.0672,0.1231,0.4474,0.7187,0.9364,0.0,0.0,0.0,0.0,0.0,0.0,0.0,0.0,0.0,0.0,0.0,0.0,0.0,0.0,0.0,0.0,0.0,0.0,0.0,0.0,0.0,0.0,-0.6674,-0.6633,-0.7466,-0.8393,-0.9236,-1.0412,-1.1226,-1.1479,-1.1721,-1.1564,-1.0867,-1.0384,-0.9787,-0.9063,-0.9018,-0.8904,-0.8792,-0.8761,-0.8871,-0.8875,-0.906,-0.918,-0.9317,-1.0264,-1.0903,-1.1313,-1.1864,-1.2107,-1.219,-1.219,-1.2075,-1.1827,-1.2177,-1.222,-1.1948,-1.1011,-1.0263,-0.9574,-0.8963,-0.7856,-0.6571,-0.5693,-0.5098,-0.4702,-0.4255,-0.376,-0.3209,-0.2739,-0.2041,-0.1343,-0.1077,-0.0649,-0.0217,-0.0145,0.0073,0.0291,0.0291,0.0146,0.0,0.0,0.0075,0.0152,0.0314,0.1016,0.1904,0.2894,0.4357,0.5596,0.6239,0.6868,0.0,0.664,0.6478,0.5995,0.4951,0.4403,0.3772,0.299,0.1756,0.0844,0.0306,0.0119,0.0116,0.0393,0.0393,0.1019,0.2315,0.4362,0.6256,0.0,0.0,0.0,0.0,0.0,0.0,0.0,0.0,0.0,0.0,0.0,0.0,0.0,0.0,0.0,0.0,0.0,0.0,0.0,0.0,0.0,0.0,-0.6984,-0.7531,-0.7593,-0.8438,-0.9358,-1.0293,-1.1578,-1.2536,-1.2856,-1.3093,-1.3048,-1.2517,-1.2087,-1.1632,-1.1147,-1.1027,-1.088,-1.0794,-1.0712,-1.0712,-1.0712,-1.0844,-1.0985,-1.1074,-1.1824,-1.2349,-1.2656,-1.3078,-1.3264,0.0,-1.3226,-1.2988,-1.2655,-1.2903,-1.2949,0.0,0.0,0.0,0.0,0.0,-0.8695,-0.7474,-0.6754,-0.6201,-0.5808,-0.5315,-0.4867,-0.4362,-0.3923,-0.327,-0.2625,-0.2214,-0.1777,-0.1339,-0.1291,-0.0916,-0.0536,-0.031,-0.0155,0.0,0.0,0.0,0.0,0.0,0.0413,0.0,0.1795,0.3046,0.4171,0.5123,0.5978,0.64,0.6159,0.6224,0.5938,0.4893,0.4341,0.374,0.3077,0.1896,0.0,0.0,0.0,0.0059,0.0225,0.0512,0.0,0.0,0.0,0.5114,0.6727,0.0,0.0,0.0,1.5479,1.6725,0.0,0.0,0.0,0.0,0.0,0.0,0.0,0.0,0.0,0.0,0.0,0.0,0.0,0.0,0.0,0.0,-0.782,-0.8549,-0.9104,-0.9768,-1.0543,-1.1604,-1.28,-1.3758,-1.4239,-1.4307,-1.4115,-1.369,-1.3328,-1.3083,-1.3051,0.0,0.0,0.0,0.0,-1.2985,-1.2985,-1.3053,-1.3015,-1.3063,-1.324,-1.3467,-1.3671,-1.3841,-1.3873,-1.3788,-1.3754,-1.3574,-1.3307,-1.3307,-1.3293,-1.32,-1.2632,-1.2256,-1.1974,-1.0312,-0.9285,-0.8625,-0.7779,0.0,0.0,-0.6162,-0.5755,-0.5319,-0.4803,-0.4362,-0.3941,-0.3271,-0.291,-0.2629,-0.2419,-0.1875,-0.1393,-0.0921,-0.0505,-0.0168,-0.0084,-0.0,0.0,0.0,-0.0085,0.0085,0.0933,0.1853,0.2931,0.4187,0.5111,0.5699,0.5699,0.5942,0.5812,0.4882,0.0,0.0,0.3094,0.1971,0.0908,0.0063,0.0,0.0,0.0,0.0583,0.1067,0.1544,0.2557,0.3869,0.5505,0.7001,0.8471,0.9876,1.2885,1.4536,0.0,0.0,0.0,0.0,0.0,0.0,0.0,0.0,0.0,0.0,0.0,0.0,0.0,0.0,0.0,-0.8699,-0.9262,-0.9925,-1.0486,-1.1794,-1.2308,-1.1475,-1.2796,-1.4025,-1.4622,-1.4794,-1.4761,-1.4428,-1.4339,-1.4091,-1.3687,-1.3908,-1.3871,-1.3728,-1.3734,-1.3734,-1.3734,-1.3695,-1.3736,-1.3693,0.0,0.0,-1.4428,-1.4612,-1.4763,-1.4696,-1.4456,-1.4188,-1.3921,-1.3921,-1.3774,-1.3446,-1.3015,-1.2641,-1.2393,-1.1576,-1.1015,-1.0412,-0.9339,-0.8711,-0.8248,-0.7412,-0.6764,-0.6367,-0.5878,-0.5473,0.0,-0.4764,-0.4276,-0.3874,-0.3826,-0.3168,-0.2338,-0.1763,-0.143,-0.1009,-0.0674,-0.0253,0.0,0.0,-0.0605,-0.0957,-0.0442,0.0774,0.1848,0.2604,0.3526,0.4197,0.4529,0.4944,0.4984,0.4389,0.3895,0.3342,0.2646,0.1771,0.0923,0.0067,0.0,0.0,0.0,0.0122,0.0495,0.1075,0.1714,0.2708,0.4106,0.5277,0.6327,0.7395,1.0739,1.2432,0.0,0.0,0.0,0.0,0.0,0.0,0.0,0.0,0.0,0.0,0.0,-0.9489,0.0,0.0,-0.9868,-1.0129,-1.0825,-1.1486,-1.191,-1.2991,-1.3514,-1.2761,-1.3884,-1.483,-1.5213,-1.5398,-1.5299,-1.5206,-1.5206,-1.5107,-1.483,-1.4971,-1.4954,-1.486,-1.4854,-1.4854,-1.4854,-1.4807,-1.483,-1.483,-1.5107,-1.5206,-1.5206,-1.5305,-1.5317,-1.517,-1.5023,-1.479,-1.4516,-1.4369,-1.4215,-1.4068,-1.3754,-1.3349,-1.273,-1.2332,-1.192,-1.1421,-1.0541,-0.9974,-0.9399,-0.8414,-0.7847,-0.7439,-0.6615,-0.6284,-0.6034,-0.5616,-0.5196,-0.4959,-0.4761,-0.418,-0.3594,-0.3203,-0.2517,-0.1736,-0.1216,-0.0869,-0.0523,-0.0088,-0.0795,-0.133,-0.1074,-0.0176,0.0695,0.139,0.2257,0.295,0.3383,0.39,0.4108,0.3643,0.3386,0.2991,0.2516,0.1374,0.0486,0.0,0.0,0.0,0.0,0.0,0.0128,0.046,0.1067,0.1768,0.2581,0.334,0.4275,0.5369,0.7466,0.9157,0.0,0.0,0.0,0.0,0.0,0.0,0.0,-1.1897,-1.1757,-1.1635,-1.1754,-1.1752,-1.1396,-1.1567,-1.1843,-1.1779,-1.233,-1.298,-1.322,-1.3969,-1.45,-1.4272,-1.5063,-1.5625,-1.5919,-1.5912,-1.5912,-1.5912,-1.5912,-1.5912,-1.5912,-1.5912,-1.5912,-1.5912,-1.5858,-1.5832,-1.5832,-1.5832,-1.5832,-1.5832,-1.5832,-1.5832,-1.5832,-1.5832,-1.5705,-1.5478,-1.5424,-1.5231,-1.4943,-1.4703,-1.4603,-1.4603,-1.4603,-1.409,-1.3303,-1.3059,-1.277,-1.23,-1.1647,-1.1122,-1.0511,-0.9441,-0.8861,-0.8446,-0.7366,-0.7038,-0.6867,-0.6276,-0.6108,-0.5963,-0.564,-0.5147,-0.4738,-0.4661,-0.3692,-0.2704,-0.2082,-0.1717,-0.1263,-0.0451,-0.0989,-0.1615,-0.1705,-0.1256,-0.0538,0.0359,0.1254,0.1971,0.2239,0.2865,0.3265,0.2971,0.2866,0.262,0.2289,0.0859,0.0,0.0,0.0,0.0,0.0,0.0,0.0,0.0,0.0558,0.0998,0.1309,0.1744,0.2585,0.3655,0.4281,0.5898,-2.0272,-1.7778,-1.5606,-1.4684,-1.4226,-1.3959,0.0,-1.3626,-1.3368,-1.3587,-1.3439,-1.3372,-1.3281,-1.3293,-1.3407,-1.3546,-1.387,-1.4178,-1.4417,-1.5045,-1.5337,-1.5305,-1.5647,-1.6025,-1.633,-1.6323,-1.6226,-1.6226,-1.6226,-1.6226,-1.6226,-1.6226,-1.6226,-1.6226,-1.5965,-1.5832,-1.5832,-1.5832,-1.5832,-1.5832,-1.5832,-1.5832,-1.5832,-1.5832,-1.5812,-1.5765,-1.5504,-1.5231,-1.4963,-1.493,-1.4917,-1.4917,-1.4917,-1.4856,-1.4763,-1.4491,-1.4239,-1.3851,-1.2877,-1.229,-1.1588,-1.0479,-0.9794,-0.936,-0.8574,-0.8138,-0.7967,-0.745,-0.7095,-0.6919,-0.6675,-0.6239,-0.5916,-0.5764,-0.5148,-0.4436,-0.4049,-0.2889,-0.1749,-0.1288,-0.1815,-0.2424,-0.2694,-0.2513,-0.1884,-0.0538,0.0448,0.1256,0.1524,0.1973,0.249,0.2867,0.281,0.2455,0.1525,0.0526,0.0,0.0,0.0,0.0,0.0,0.0,0.0,0.0,0.0072,0.0291,0.0583,0.1093,0.1526,0.1881,0.2534,0.4004,-2.0777,-1.8718,-1.7292,-1.6254,-1.5911,-1.5696,-1.5568,-1.5533,-1.5439,-1.5446,-1.5439,-1.5413,-1.5366,-1.5369,-1.5378,0.0,-1.5577,-1.5726,-1.5646,-1.581,-1.5989,-1.5989,-1.6241,-1.6361,-1.6293,-1.6426,-1.6526,-1.6526,-1.6526,-1.6526,-1.6526,-1.6526,-1.6446,-1.6279,-1.6152,-1.6005,-1.5832,-1.5832,-1.5832,-1.5832,-1.5832,-1.5832,-1.5832,-1.5832,-1.5832,-1.5818,-1.5698,-1.5484,-1.5217,-1.5217,-1.5217,-1.5217,-1.5217,-1.5317,-1.5424,-1.4993,-1.4794,-1.4599,-1.4053,-1.3616,-1.3139,-1.1926,-1.1356,-1.0803,-0.9625,-0.9161,-0.8899,-0.8288,-0.7933,-0.7672,-0.7326,-0.7035,-0.684,-0.6627,-0.5956,-0.527,-0.5029,-0.4062,-0.3091,-0.2407,-0.2662,-0.3106,-0.3199,-0.3015,-0.2556,-0.2008,-0.1084,-0.0269,-0.0,0.0718,0.1417,0.1971,0.2009,0.1542,0.0621,0.0229,0.0,0.0,0.0,0.0,0.0,0.0,0.0,0.0,0.0,0.0075,0.0228,0.0381,0.068,0.1042,0.1564,0.2407,-2.1218,-1.9887,-1.903,-1.8038,-1.7683,-1.7476,-1.7484,-1.7552,-1.7704,-1.7629,-1.7712,-1.7675,-1.7508,-1.7406,-1.7173,-1.6932,-1.6907,-1.6914,-1.652,-1.6434,-1.6393,-1.6393,-1.6647,-1.6747,-1.6533,-1.6707,-1.6827,-1.6827,-1.6827,-1.6827,-1.6827,-1.6827,-1.6734,-1.652,-1.644,-1.6286,-1.6072,-1.5992,-1.5952,-1.5952,-1.5872,-1.5832,-1.5832,-1.5832,-1.5832,-1.5832,-1.5832,-1.5712,-1.5518,-1.5518,-1.5518,-1.5518,-1.5518,-1.5645,-1.5778,-1.5357,-1.515,-1.5084,-1.4805,-1.4566,-1.418,-1.3099,-1.2568,-1.2164,-1.0789,-1.0207,-0.9946,-0.9069,-0.8756,-0.8533,-0.8012,-0.7862,-0.7717,-0.7396,-0.6823,-0.6233,-0.5976,-0.5288,-0.4575,-0.3831,-0.3803,-0.3974,-0.4066,-0.388,-0.3702,-0.363,-0.2929,-0.2075,-0.1256,-0.0269,0.0531,0.0939,0.1,0.0651,0.0079,-0.0233,-0.0381,-0.0379,-0.0372,-0.0368,-0.0368,-0.0221,-0.0149,-0.0153,-0.0076,0.0,0.0,0.0,0.0156,0.0459,0.0995,0.1515,-2.2094,-2.1345,-2.0793,-2.0193,-1.9687,-1.9469,-1.9923,-1.9917,-2.0071,-2.0465,-2.0369,-2.0087,-1.9626,-1.9341,-1.886,-1.8094,-1.7704,-1.7406,-1.712,-1.6807,-1.6693,-1.6693,-1.6954,-1.7134,0.0,-1.7134,-1.7134,-1.7134,-1.7134,-1.7134,-1.7134,-1.7134,-1.7134,-1.7121,-1.684,-1.6687,-1.668,-1.64,-1.6259,-1.6253,-1.5965,-1.5832,-1.5832,-1.5832,-1.5832,-1.5832,-1.5832,-1.5825,-1.5812,-1.5812,-1.5812,-1.5812,-1.5812,-1.5818,-1.5825,-1.5812,-1.5625,-1.5384,-1.52,-1.4826,-1.4449,-1.3724,-1.3273,-1.2867,-1.1922,-1.1499,-1.1063,-1.0115,-0.9823,-0.9705,-0.8993,-0.8762,-0.8656,-0.8254,-0.7904,-0.765,-0.7195,-0.6628,-0.6117,-0.5718,-0.533,-0.5262,-0.5532,-0.553,-0.5478,-0.5308,-0.5046,-0.3935,-0.1708,-0.0538,0.0,0.0,0.0,0.0,0.0,-0.0795,-0.1243,-0.1289,-0.1287,-0.1286,-0.1286,-0.0832,-0.0612,-0.0549,-0.0235,0.0,0.0,0.0,0.0,0.0,0.0863,0.1334,-2.2362,-2.2087,-2.1942,-2.1414,-2.1387,-2.1492,-2.1569,-2.1674,-2.1683,-2.1483,-2.1285,-2.0994,-2.0401,-2.0063,-1.9646,-1.887,-1.8477,-1.821,-1.7716,-1.7333,-1.7001,-1.7001,-1.7088,0.0,0.0,0.0,0.0,-1.7729,-1.7555,-1.7528,-1.7736,-1.7549,-1.7348,-1.7257,-1.7054,-1.6907,-1.6707,-1.6607,-1.6466,-1.6273,-1.5972,-1.5832,-1.5832,-1.5832,-1.5832,-1.5832,-1.5832,-1.5832,-1.5832,-1.5832,-1.5832,-1.5832,-1.5832,-1.5832,-1.5832,-1.5832,-1.5765,-1.5685,-1.5591,-1.5524,-1.5266,-1.4508,-1.4174,-1.3907,-1.293,-1.2567,-1.2348,-1.1558,-1.1368,-1.1182,-1.0273,-0.9961,-0.975,-0.9148,-0.8766,-0.8364,-0.7826,-0.7301,-0.6833,-0.6415,-0.6165,-0.5947,-0.604,-0.604,-0.5931,-0.5613,-0.4578,-0.3298,-0.1886,-0.1613,-0.1245,-0.0523,-0.0432,-0.0339,-0.0,-0.0485,-0.1194,-0.2023,-0.2097,-0.2251,-0.2482,-0.2327,-0.2023,-0.149,-0.1099,-0.0707,-0.0393,-0.0157,0.0,0.0,0.0314,0.0786,-2.2912,-2.2939,-2.3236,-2.2787,-2.2843,-2.3048,-2.3039,-2.3158,-2.3222,-2.2781,-2.2546,-2.2214,-2.1379,-2.1021,-2.0459,-1.9614,-1.9139,-1.8704,-1.8206,-1.763,-1.7301,-1.7301,-1.7402,-1.7468,0.0,0.0,0.0,-1.8043,-1.7963,-1.7949,-1.8043,-1.7856,-1.7609,-1.7315,-1.7301,-1.7215,-1.7021,-1.6914,-1.6667,-1.6273,-1.6079,-1.5932,-1.5832,-1.5832,-1.5832,-1.5832,-1.5832,-1.5832,-1.5832,-1.5832,-1.5832,-1.5832,-1.5832,-1.5832,-1.5832,-1.5832,-1.5832,-1.5832,-1.5832,-1.5832,-1.5657,-1.5081,-1.4929,-1.4746,-1.3918,-1.3642,-1.3508,-1.288,-1.2796,-1.2623,-1.1693,-1.1387,-1.1077,-1.0123,-0.9633,-0.9122,-0.8432,-0.7935,-0.7496,-0.7161,-0.694,-0.684,-0.684,-0.6781,-0.6672,-0.6353,-0.5284,-0.406,-0.2875,-0.2598,-0.2231,-0.1583,-0.1309,-0.1117,-0.0835,-0.1158,-0.1801,-0.2744,-0.2901,-0.3139,-0.346,-0.346,-0.3216,-0.2731,-0.2091,-0.1529,-0.1047,-0.0638,-0.0318,0.0,0.0,0.0314,-2.365,-2.3998,-2.4361,-2.4175,-2.4032,-2.4066,-2.4354,-2.4435,-2.4496,-2.4305,-2.4096,-2.3555,-2.2668,-2.2046,-2.1411,-2.0496,-1.9675,-1.9008,-1.8506,-1.7925,-1.7609,0.0,0.0,0.0,0.0,0.0,0.0,-1.811,0.0,-1.837,-1.8103,-1.8063,-1.7909,-1.7615,-1.7589,-1.7582,-1.7582,-1.7295,-1.6867,-1.6319,-1.6299,-1.6139,-1.5852,-1.5852,-1.5845,-1.5832,-1.5832,-1.5832,-1.5832,-1.5832,-1.5832,-1.5832,-1.5832,-1.5832,-1.5832,-1.5832,-1.5832,-1.5832,-1.5832,-1.5832,-1.5785,-1.5491,-1.5398,-1.5337,-1.4773,-1.4597,-1.452,-1.4063,-1.3989,-1.383,-1.3074,-1.2857,-1.2441,-1.1189,-1.0703,-1.0212,-0.9122,-0.863,-0.8386,-0.7949,-0.7821,-0.7824,-0.7824,-0.775,-0.7598,-0.755,-0.693,-0.6002,-0.4598,-0.3585,-0.3045,-0.2956,-0.2554,-0.2262,-0.226,-0.2644,-0.2949,-0.3285,-0.3693,-0.394,-0.4195,-0.4279,-0.4279,-0.4277,-0.3271,-0.2519,-0.1933,-0.148,-0.0895,-0.0081,-0.0,0.0,-2.4274,-2.4585,-2.4902,-2.4902,-2.5043,-2.5276,-2.5383,-2.5102,-2.4919,-2.4641,-2.4011,-2.3249,-2.2492,-2.2169,-2.1631,-2.037,-1.983,0.0,-1.883,-1.8245,0.0,-1.823,0.0,-1.8377,-1.8377,-1.8644,0.0,0.0,-1.8571,-1.8551,-1.8691,-1.8283,-1.8009,-1.7929,-1.7702,-1.7582,-1.7582,-1.7295,-1.7074,-1.6921,-1.67,-1.644,-1.6159,-1.6159,-1.6039,-1.5832,-1.5832,-1.5832,-1.5832,-1.5832,-1.5832,-1.5832,-1.5832,-1.5832,-1.5832,-1.5832,-1.5832,-1.5832,-1.5832,-1.5832,-1.5785,-1.5491,-1.5398,-1.5344,-1.496,-1.502,-1.5101,-1.4812,-1.4926,-1.4956,-1.4386,-1.4052,-1.3613,-1.2737,-1.2165,-1.1585,-1.031,-0.9817,-0.9312,-0.8379,-0.8076,-0.798,-0.798,-0.7915,-0.7892,-0.7741,-0.7491,-0.6795,-0.5613,-0.506,-0.4565,-0.403,-0.3833,-0.3444,-0.2782,-0.3111,-0.3509,-0.3958,-0.4199,-0.4448,-0.4617,-0.4951,-0.5035,-0.4863,-0.4362,-0.3775,-0.3271,-0.2255,-0.1487,-0.0974,-0.0323,0.0,-2.5,-2.5312,-2.5644,-2.5644,-2.5693,-2.5684,-2.5488,-2.5244,-2.4961,-2.4413,-2.3948,-2.3361,-2.264,-2.23,-2.1878,-2.0795,-2.0131,-1.9568,-1.917,-1.8591,-1.8303,0.0,-1.8604,0.0,-1.8684,-1.8945,-1.9118,0.0,-1.8965,-1.8891,-1.8918,-1.8611,-1.831,-1.8056,-1.7876,-1.7722,-1.7582,-1.7422,-1.7275,-1.725,-1.6981,-1.6747,-1.646,-1.6333,-1.6179,-1.6019,0.0,-1.5832,-1.5832,-1.5832,-1.5832,-1.5832,-1.5832,-1.5832,-1.5832,-1.5832,-1.5832,-1.5832,-1.5832,-1.5832,-1.5805,-1.5638,-1.5585,-1.5558,-1.5391,-1.5458,-1.5585,-1.5391,-1.551,-1.554,-1.5166,-1.4968,-1.458,-1.3703,-1.313,-1.2554,-1.1194,-1.0605,-1.0015,-0.8825,-0.8333,-0.8137,-0.8038,-0.8038,-0.8011,-0.7923,-0.7761,-0.7369,-0.6832,-0.6233,-0.5678,-0.527,-0.4989,-0.4678,-0.4053,-0.4222,-0.4465,-0.4841,-0.518,-0.5438,-0.5698,-0.5955,-0.604,-0.5866,-0.5438,-0.5009,-0.4488,-0.3336,-0.237,-0.1504,-0.0657,-0.0162,-2.5908,-2.6182,-2.6455,-2.6396,-2.6103,-2.5693,-2.5185,-2.5019,-2.4756,-2.3955,-2.374,-2.3495,-2.2871,-2.2503,-2.2077,-2.1328,-2.0484,-1.9732,-1.9334,-1.8871,-1.8628,-1.8709,-1.8937,-1.9092,-1.9092,-1.9327,-1.9482,-1.9482,-1.9366,-1.9259,-1.8998,-1.8945,-1.8651,-1.8063,-1.805,-1.7896,-1.7589,-1.7582,-1.7455,-1.7208,-1.7208,-1.7054,-1.676,-1.6506,-1.6346,-1.6259,0.0,0.0,-1.5832,-1.5832,-1.5832,-1.5832,-1.5832,-1.5832,-1.5832,-1.5832,-1.5832,-1.5832,-1.5832,-1.5832,-1.5832,-1.5832,-1.5832,-1.5832,-1.5832,-1.5832,-1.5832,-1.5832,-1.5832,-1.573,-1.5635,-1.554,-1.5255,-1.4382,-1.3902,-1.3323,-1.2165,-1.1292,-1.0408,-0.9221,-0.8726,-0.8333,-0.8137,-0.8038,-0.8038,-0.8038,-0.7926,-0.7841,-0.7841,-0.712,-0.6605,-0.6406,-0.6004,-0.5676,-0.5492,-0.556,-0.5636,-0.5719,-0.6166,-0.6523,-0.6795,-0.6792,-0.6884,-0.6884,-0.6438,-0.5994,-0.546,-0.448,-0.3303,-0.1993,-0.1086,-0.0492,-2.6797,-2.6846,-2.6826,-2.6475,-2.6328,-2.6064,-2.5254,-2.4785,-2.4394,-2.3896,-2.3506,-2.3057,-2.2539,-2.2423,-2.1892,-2.0858,-2.0087,-1.9545,-1.9368,-1.8988,-1.8993,-1.9489,-1.9821,-2.0078,-2.0078,-1.9903,0.0,0.0,0.0,-1.9345,-1.9292,-1.9058,-1.8651,-1.8063,-1.805,-1.7896,-1.7589,-1.7582,-1.7555,-1.7508,-1.7508,-1.7355,-1.7074,-1.7021,-1.6734,-1.6273,-1.6219,0.0,-1.5832,-1.5832,-1.5832,-1.5832,-1.5832,-1.5832,-1.5832,-1.5832,-1.5832,-1.5832,-1.5832,-1.5832,-1.5832,-1.5832,-1.5832,-1.5832,-1.5832,-1.5832,-1.5832,-1.5832,-1.5832,-1.5825,-1.573,-1.5737,-1.5642,-1.535,-1.4975,-1.4496,-1.342,-1.1965,-1.0609,-0.9916,-0.9221,-0.8627,-0.8333,-0.8137,-0.8038,-0.8038,-0.8018,-0.7997,-0.7997,-0.7667,-0.7302,-0.7085,-0.6891,-0.6633,-0.6153,-0.623,-0.6166,-0.6083,-0.6438,-0.6792,-0.6795,-0.6969,-0.7054,-0.7054,-0.6792,-0.6438,-0.5994,-0.4989,-0.3967,-0.2689,-0.1723,-0.0766,-2.7353,-2.7353,-2.7256,-2.6826,-2.6543,-2.6103,-2.498,-2.456,-2.4228,-2.3584,-2.3203,-2.2882,-2.2618,-2.2242,-2.1644,-2.0788,-2.0071,-1.9384,-1.9128,-1.9071,-1.9367,-1.977,-2.0165,-2.0493,-2.0493,-2.0371,-2.0148,-2.004,0.0,-1.9577,-1.9366,-1.9085,-1.8798,-1.851,-1.821,-1.7976,-1.7822,-1.7662,-1.7582,-1.7582,-1.7582,-1.7508,-1.7368,-1.7215,-1.6994,-1.6714,-1.6406,0.0,-1.6046,-1.5892,-1.5832,-1.5832,-1.5832,-1.5832,-1.5832,-1.5832,-1.5832,-1.5832,-1.5832,-1.5832,-1.5832,-1.5832,-1.5832,-1.5832,-1.5832,-1.5832,-1.5832,-1.5832,-1.5832,-1.5832,-1.5832,-1.5832,-1.5737,-1.554,-1.5166,-1.4688,-1.3908,-1.2743,-1.1585,-1.0801,-1.0113,-0.9521,-0.913,-0.8832,-0.8638,-0.8638,-0.8336,-0.8237,-0.8237,-0.8014,-0.7701,-0.7521,-0.7455,-0.7259,-0.6929,-0.694,-0.6866,-0.6615,-0.6789,-0.6966,-0.6966,-0.7054,-0.7139,-0.7139,-0.6966,-0.6792,-0.6438,-0.5544,-0.4541,-0.3617,-0.2357,-0.1296,-2.7773,-2.7803,-2.7676,-2.7148,-2.6768,-2.6152,-2.4746,-2.4414,-2.417,-2.331,-2.2969,-2.2803,-2.2627,-2.1988,-2.1309,-2.0628,-1.9815,-1.9118,-1.8722,-1.9014,-1.9444,-1.9907,-2.053,-2.0952,-2.0952,-2.0831,0.0,-2.0378,0.0,0.0,-1.9482,-1.9145,-1.8991,-1.8925,-1.8477,-1.8203,-1.8143,-1.7903,-1.7776,-1.7776,-1.7709,-1.7682,-1.7662,-1.7375,-1.7208,-1.7121,-1.666,0.0,0.0,-1.6019,-1.5885,-1.5832,-1.5832,-1.5832,-1.5832,-1.5832,-1.5832,-1.5832,-1.5832,-1.5832,-1.5832,-1.5832,-1.5832,-1.5832,-1.5832,-1.5832,-1.5832,-1.5832,-1.5832,-1.5832,-1.5832,-1.5832,-1.573,-1.5635,-1.5166,-1.4783,-1.4298,-1.3528,-1.2651,-1.1683,-1.0998,-1.0413,-0.9821,-0.943,-0.9236,-0.9236,-0.8832,-0.8531,-0.8531,-0.8237,-0.8093,-0.7969,-0.7831,-0.7719,-0.7485,-0.7438,-0.737,-0.7248,-0.7207,-0.719,-0.719,-0.7156,-0.7139,-0.7139,-0.7139,-0.6966,-0.6795,-0.5994,-0.5102,-0.4297,-0.2996,-0.1749,-2.8135,-2.8232,-2.8037,-2.7217,-2.6982,-2.6514,-2.4805,-2.4414,-2.417,-2.331,-2.2969,-2.2715,-2.2274,-2.158,-2.0802,-1.9947,-1.8931,-1.8233,-1.8407,-1.8751,-1.9294,-2.0186,-2.1119,-2.1668,-2.1668,-2.1325,-2.0967,0.0,0.0,0.0,-1.9815,-1.9448,-1.9199,-1.8931,-1.8871,-1.8718,-1.8457,-1.8424,-1.841,-1.8404,-1.8136,-1.7996,-1.7963,-1.7675,-1.7402,-1.725,-1.7094,0.0,0.0,-1.6246,-1.6072,-1.5832,-1.5832,-1.5832,-1.5832,-1.5832,-1.5832,-1.5832,-1.5832,-1.5832,-1.5832,-1.5832,-1.5832,-1.5832,-1.5832,-1.5832,-1.5832,-1.5832,-1.5832,-1.5832,-1.5832,-1.5832,-1.5832,-1.5737,-1.5635,-1.5356,-1.5077,-1.4394,-1.3522,-1.2754,-1.178,-1.0998,-1.0413,-0.9723,-0.9236,-0.9236,-0.8931,-0.8726,-0.8726,-0.8531,-0.8329,-0.8312,-0.799,-0.7801,-0.7773,-0.7651,-0.7573,-0.756,-0.7428,-0.735,-0.735,-0.7214,-0.7139,-0.7139,-0.7139,-0.6966,-0.6795,-0.626,-0.5458,-0.4297,-0.3307,-0.2055,-2.7871,-2.8096,-2.8086,-2.7226,-2.7012,-2.6562,-2.4814,-2.4414,-2.417,-2.331,-2.2794,-2.2441,-2.2185,-2.1284,-2.0335,-1.9559,-1.8532,-1.7843,-1.7633,-1.8088,-1.8716,-1.937,-2.0464,-2.1249,0.0,0.0,-2.1439,0.0,0.0,0.0,-2.004,-1.9707,-1.9312,-1.9192,-1.9018,-1.8871,-1.8751,-1.8577,-1.849,-1.849,-1.837,-1.8217,-1.8029,-1.7916,-1.7695,-1.7402,-1.7228,0.0,0.0,-1.642,-1.6206,-1.6079,-1.5899,-1.5832,-1.5832,-1.5832,-1.5832,-1.5832,-1.5832,-1.5832,-1.5832,-1.5832,-1.5832,-1.5832,-1.5832,-1.5832,-1.5832,-1.5832,-1.5832,-1.5832,-1.5832,-1.5832,-1.5832,-1.5832,-1.573,-1.5642,-1.5356,-1.4975,-1.44,-1.3619,-1.2845,-1.217,-1.1487,-1.0708,-1.0117,-0.992,-0.9426,-0.9031,-0.9031,-0.863,-0.8432,-0.8432,-0.8082,-0.7913,-0.7818,-0.776,-0.7692,-0.7604,-0.7543,-0.7509,-0.7509,-0.7451,-0.7373,-0.7282,-0.7278,-0.7145,-0.6966,-0.6349,-0.5727,-0.4924,-0.3582,-0.242,-2.7081,-2.7466,-2.7629,-2.691,-2.6627,-2.625,-2.4756,-2.4316,-2.4023,-2.3291,-2.2794,-2.2441,-2.2008,-2.1105,-2.0102,-1.9088,-1.827,-1.7515,-1.6933,-1.7475,-1.813,-1.8729,0.0,-2.0706,0.0,-2.1255,0.0,0.0,0.0,0.0,-2.0155,-1.9707,-1.9366,-1.9366,-1.9165,-1.9052,-1.9052,-1.8851,-1.8751,-1.8751,-1.8664,-1.851,-1.8297,-1.813,-1.7929,-1.7702,0.0,0.0,0.0,-1.6607,-1.6346,-1.6246,-1.5945,-1.5832,-1.5832,-1.5832,-1.5832,-1.5832,-1.5832,-1.5832,-1.5832,-1.5832,-1.5832,-1.5832,-1.5832,-1.5832,-1.5832,-1.5832,-1.5832,-1.5832,-1.5832,-1.5832,-1.5832,-1.5832,-1.5832,-1.573,-1.5635,-1.5356,-1.4975,-1.4292,-1.3619,-1.2948,-1.2273,-1.1487,-1.0801,-1.0609,-0.992,-0.943,-0.943,-0.8931,-0.8531,-0.8531,-0.8237,-0.7994,-0.7889,-0.7879,-0.7834,-0.7736,-0.7689,-0.7662,-0.7662,-0.7624,-0.755,-0.7441,-0.7438,-0.7383,-0.7275,-0.6734,-0.6085,-0.551,-0.4064,-0.2793,-2.5638,-2.6182,-2.6506,-2.6093,-2.5867,-2.5518,-2.4619,-2.4092,-2.3672,-2.3232,-2.2969,-2.253,-2.182,-2.1096,-2.0085,-1.8611,-1.7792,-1.7167,-1.6732,-1.7196,-1.7791,0.0,-1.9576,-2.0258,-2.0258,-2.0452,0.0,0.0,0.0,0.0,-1.9815,-1.9597,-1.9366,-1.9366,-1.9366,-1.9366,-1.9366,-1.9359,-1.9359,-1.9359,-1.9058,-1.8918,-1.8891,-1.831,-1.805,0.0,0.0,0.0,0.0,-1.6827,-1.6533,-1.6246,-1.5945,-1.5832,-1.5832,-1.5832,-1.5832,-1.5832,-1.5832,-1.5832,-1.5832,-1.5832,-1.5832,-1.5832,-1.5832,-1.5832,-1.5832,-1.5832,-1.5832,-1.5832,-1.5832,-1.5832,-1.5832,-1.5832,-1.5832,-1.5832,-1.5832,-1.5635,-1.535,-1.4783,-1.4004,-1.3227,-1.2559,-1.1688,-1.1096,-1.0801,-1.0314,-1.0019,-1.0019,-0.9324,-0.8825,-0.8825,-0.8333,-0.8038,-0.8038,-0.8038,-0.8035,-0.8035,-0.7892,-0.7811,-0.7811,-0.7675,-0.76,-0.7597,-0.7597,-0.7597,-0.7594,-0.7305,-0.6761,-0.5901,-0.4885,-0.3102,-2.4363,-2.4914,-2.5339,-2.5145,-2.5242,-2.5131,-2.3973,-2.3787,-2.3662,-2.3232,-2.2794,-2.2353,-2.182,-2.0817,-1.9712,-1.8611,-1.7799,-1.7227,-1.6759,-1.7265,-1.7698,-1.8108,-1.9248,-2.0005,0.0,0.0,0.0,0.0,0.0,0.0,-1.9815,-1.9597,-1.9366,-1.9366,-1.9366,-1.9366,-1.9366,-1.9366,-1.9366,-1.9366,-1.9272,-1.9118,-1.8918,-1.8731,0.0,0.0,0.0,0.0,0.0,-1.7128,-1.6834,-1.654,-1.6246,-1.6005,-1.5832,-1.5832,-1.5832,-1.5832,-1.5832,-1.5832,-1.5832,-1.5832,-1.5832,-1.5832,-1.5832,-1.5832,-1.5832,-1.5832,-1.5832,-1.5832,-1.5832,-1.5832,-1.5832,-1.5832,-1.5832,-1.5832,-1.5832,-1.5737,-1.5635,-1.535,-1.4777,-1.4106,-1.3329,-1.236,-1.1585,-1.1096,-1.0507,-0.992,-0.9723,-0.9225,-0.8726,-0.8528,-0.8237,-0.8038,-0.8038,-0.8038,-0.8038,-0.8038,-0.7994,-0.7967,-0.7967,-0.7923,-0.7851,-0.7746,-0.7743,-0.7695,-0.76,-0.7308,-0.6529,-0.5275,-0.4238,-0.2912,-2.214,-2.3054,-2.3583,-2.3544,-2.3864,-2.4032,-2.3328,-2.3294,-2.3388,-2.3027,-2.2794,-2.2353,-2.1722,-2.0727,-1.9629,-1.8334,-1.7699,-1.7197,-1.6728,0.0,0.0,-1.8273,0.0,0.0,0.0,0.0,0.0,0.0,0.0,0.0,-1.9707,-1.9475,-1.9366,-1.9366,-1.9366,-1.9366,-1.9366,-1.9366,-1.9366,-1.9366,-1.9366,-1.9272,-1.9085,-1.8978,-1.8664,0.0,0.0,0.0,0.0,-1.7268,-1.7041,-1.684,-1.6553,-1.6326,-1.6146,-1.6039,-1.5999,-1.5979,-1.5872,-1.5832,-1.5832,-1.5832,-1.5832,-1.5832,-1.5832,-1.5832,-1.5832,-1.5832,-1.5832,-1.5832,-1.5832,-1.5832,-1.5832,-1.5832,-1.5832,-1.5832,-1.5832,-1.5832,-1.573,-1.554,-1.507,-1.4496,-1.3806,-1.2942,-1.2078,-1.1585,-1.0806,-1.0216,-0.9821,-0.9225,-0.8726,-0.8432,-0.8137,-0.8038,-0.8038,-0.8038,-0.8038,-0.8038,-0.8038,-0.8038,-0.8038,-0.8038,-0.7994,-0.7899,-0.7896,-0.7851,-0.7763,-0.7419,-0.6721,-0.5475,-0.4484,-0.333,0.0,-2.0465,-2.1345,-2.164,-2.2044,-2.2337,-2.2473,-2.2626,0.0,-2.2803,-2.2715,-2.2441,-2.1535,-2.0736,-1.9637,-1.7963,-1.753,-1.7197,0.0,-1.7281,0.0,0.0,-1.8971,0.0,0.0,0.0,0.0,0.0,0.0,0.0,-1.9366,-1.9366,-1.9366,-1.9366,-1.9366,-1.9366,-1.9366,-1.9366,-1.9366,-1.9366,-1.9366,-1.9366,-1.9359,-1.9085,-1.8798,0.0,0.0,0.0,0.0,-1.7301,-1.7271,-1.7121,-1.6847,-1.6727,-1.6673,-1.64,-1.6306,-1.6259,-1.5965,-1.5865,-1.5858,-1.5838,-1.5832,-1.5832,-1.5852,-1.5865,-1.5865,-1.5865,-1.5865,-1.5865,-1.5865,-1.5845,-1.5832,-1.5832,-1.5832,-1.5832,-1.5832,-1.5832,-1.573,-1.554,-1.507,-1.4592,-1.4004,-1.3335,-1.2662,-1.2078,-1.1292,-1.0609,-1.0019,-0.9324,-0.8726,-0.8432,-0.8137,-0.8038,-0.8038,-0.8038,-0.8038,-0.8038,-0.8038,-0.8038,-0.8038,-0.8038,-0.8038,-0.8038,-0.8038,-0.8038,-0.8038,-0.7707,-0.7149,-0.6363,-0.5487,-0.4203,-1.6954,0.0,-1.9621,-1.9922,-2.0619,-2.1226,0.0,-2.15,-2.2069,-2.2432,-2.2176,-2.182,-2.1445,-2.0167,-1.8796,-1.787,-1.7423,-1.712,-1.7109,0.0,0.0,-1.9212,-1.9459,-1.9619,0.0,0.0,0.0,0.0,0.0,-1.9366,-1.9366,-1.9366,-1.9366,-1.9366,-1.9366,-1.9366,-1.9366,-1.9366,-1.9366,-1.9366,-1.9366,-1.9366,-1.9366,-1.9292,-1.9105,0.0,0.0,0.0,-1.7916,-1.7609,-1.7355,-1.7141,-1.7074,-1.6907,-1.67,-1.6627,-1.6607,-1.656,-1.6273,-1.6166,-1.6132,-1.5905,-1.5832,-1.5872,-1.6099,-1.6166,-1.6166,-1.6166,-1.6166,-1.6166,-1.6166,-1.5999,-1.5832,-1.5832,-1.5832,-1.5832,-1.5832,-1.5832,-1.5825,-1.573,-1.5363,-1.4885,-1.4592,-1.3727,-1.2856,-1.237,-1.1487,-1.0511,-0.9821,-0.9126,-0.863,-0.8137,-0.8038,-0.8038,-0.8038,-0.8038,-0.8038,-0.8038,-0.8038,-0.8038,-0.8038,-0.8038,-0.8038,-0.8038,-0.8038,-0.8038,-0.8038,-0.771,-0.7394,-0.6991,-0.6171,-0.5167,-1.6028,-1.6985,-1.815,-1.8346,-1.9082,-1.9777,-1.9953,-2.0628,-2.1257,-2.1713,-2.1544,-2.1275,-2.0808,-1.9521,-1.8388,-1.7712,-1.7295,0.0,0.0,0.0,-1.9239,-1.9533,-1.97,0.0,0.0,0.0,0.0,0.0,0.0,-1.9506,-1.9372,-1.9366,-1.9366,-1.9366,-1.9366,-1.9366,-1.9366,-1.9366,-1.9366,-1.9366,-1.9366,-1.9366,-1.9366,-1.9366,-1.9132,0.0,0.0,0.0,-1.7822,-1.7649,-1.7488,-1.7348,-1.7348,-1.7248,-1.7094,-1.6961,-1.6907,-1.6867,-1.6573,-1.6386,-1.6226,-1.5925,-1.5919,-1.6059,-1.6226,-1.646,-1.6647,-1.6506,-1.6473,-1.644,-1.6306,-1.6152,-1.5999,-1.5865,-1.5832,-1.5832,-1.5832,-1.5832,-1.5832,-1.5832,-1.5547,-1.5267,-1.507,-1.4298,-1.3528,-1.2942,-1.197,-1.1002,-1.0117,-0.9426,-0.8829,-0.8432,-0.8237,-0.8233,-0.8333,-0.8237,-0.8137,-0.8038,-0.8038,-0.8038,-0.8038,-0.8038,-0.8038,-0.8038,-0.8038,-0.8038,-0.8038,-0.7842,-0.7643,-0.7341,-0.6642,-0.5837,-1.5818,-1.6305,-1.6878,-1.7052,-1.7699,-1.8342,-1.8812,-1.9629,-2.0357,-2.0718,-2.0817,-2.0538,-1.9985,-1.902,0.0,0.0,0.0,0.0,-1.8404,-1.9025,-1.9472,-1.9766,-1.984,0.0,0.0,0.0,0.0,0.0,0.0,-1.9673,-1.9379,-1.9366,-1.9366,-1.9366,-1.9366,-1.9366,-1.9366,-1.9366,-1.9366,-1.9366,-1.9366,-1.9366,-1.9366,-1.9366,-1.9072,-1.8557,0.0,0.0,-1.7649,-1.7602,-1.7582,-1.7582,-1.7582,-1.7582,-1.7555,-1.7301,-1.7215,-1.7174,-1.6874,-1.6587,-1.6299,-1.6046,-1.6132,-1.6346,-1.6393,-1.6754,-1.7108,-1.6894,-1.6807,-1.6707,-1.6413,-1.6306,-1.6199,-1.5899,-1.5832,-1.5832,-1.5832,-1.5832,-1.5832,-1.5832,-1.5635,-1.554,-1.554,-1.4873,-1.4196,-1.3607,-1.2748,-1.1683,-1.0703,-0.9826,-0.9232,-0.8928,-0.863,-0.8528,-0.8825,-0.8627,-0.8333,-0.8137,-0.8038,-0.8038,-0.8038,-0.8038,-0.8038,-0.8038,-0.8038,-0.8038,-0.8038,-0.8038,-0.7842,-0.7646,-0.7144,-0.6339,-1.5758,-1.5927,-1.6021,-1.6312,-1.6784,-1.7347,-1.7792,-1.8334,-1.898,-1.9894,-1.972,-1.9455,-1.953,-1.8668,-1.7757,0.0,0.0,-1.8083,0.0,0.0,-1.9472,-1.9766,0.0,0.0,0.0,0.0,0.0,0.0,0.0,-1.9673,-1.9379,-1.9366,-1.9366,-1.9366,-1.9366,-1.9366,-1.9366,-1.9366,-1.9366,-1.9366,-1.9366,-1.9366,-1.9366,-1.9366,-1.9178,0.0,0.0,-1.8297,-1.7956,-1.7689,-1.7582,-1.7582,-1.7582,-1.7582,-1.7582,-1.7528,-1.7515,-1.7475,-1.7181,-1.6887,-1.6633,-1.6587,-1.6607,-1.6687,-1.6941,-1.7177,-1.7194,-1.7388,-1.7268,-1.7014,-1.6714,-1.646,-1.6199,-1.5899,-1.5832,-1.5832,-1.5832,-1.5832,-1.5832,-1.5832,-1.5635,-1.554,-1.554,-1.4975,-1.449,-1.3908,-1.3136,-1.2268,-1.1194,-1.0413,-0.9723,-0.9232,-0.8928,-0.8726,-0.8825,-0.8726,-0.8726,-0.8726,-0.8237,-0.8038,-0.8038,-0.8038,-0.8038,-0.8038,-0.8038,-0.8038,-0.8038,-0.8038,-0.7942,-0.7942,-0.7643,-0.7042,-1.5558,-1.5712,-1.5832,-1.5927,-1.6312,-1.669,-1.7044,-1.7505,-1.7971,-1.8611,-1.8527,-1.8404,-1.8582,0.0,-1.74,-1.7507,0.0,-1.8617,-1.8885,-1.9312,-1.9713,0.0,0.0,0.0,0.0,0.0,0.0,0.0,0.0,0.0,-1.9392,-1.9366,-1.9366,-1.9366,-1.9366,-1.9366,-1.9366,-1.9366,-1.9366,-1.9366,-1.9366,-1.9366,-1.9366,-1.9456,-1.9098,-1.8677,0.0,-1.8083,-1.7782,-1.7642,-1.7582,-1.7582,-1.7582,-1.7582,-1.7582,-1.7582,-1.7582,-1.7542,-1.7248,-1.7061,-1.6921,-1.676,-1.6814,-1.6974,-1.7108,-1.7255,-1.7415,-1.7549,-1.7482,-1.7281,-1.682,-1.6727,-1.6633,-1.6172,-1.6186,-1.6259,-1.6099,-1.6072,-1.6019,-1.5858,-1.573,-1.5642,-1.5642,-1.535,-1.4968,-1.4592,-1.3817,-1.3039,-1.217,-1.1096,-1.0314,-0.992,-0.9327,-0.913,-0.9422,-0.9422,-0.9221,-0.8825,-0.8432,-0.8237,-0.8237,-0.8038,-0.8038,-0.8038,-0.8038,-0.8038,-0.8038,-0.8038,-0.8038,-0.8038,-0.7746,-0.7344,-1.5357,-1.5558,-1.5745,-1.5812,-1.5927,-1.6238,-1.6585,-1.6883,-1.7276,-1.7625,-1.7734,-1.7713,-1.7785,-1.7464,0.0,-1.7768,-1.843,-1.8951,-1.9018,0.0,0.0,0.0,0.0,0.0,0.0,0.0,0.0,0.0,0.0,0.0,-1.9399,-1.9366,-1.9366,-1.9366,-1.9366,-1.9366,-1.9366,-1.9366,-1.9366,-1.9366,-1.9366,-1.9366,-1.9359,-1.932,-1.9016,-1.8477,-1.8299,-1.799,-1.7582,-1.7582,-1.7582,-1.7582,-1.7582,-1.7582,-1.7582,-1.7582,-1.7582,-1.7549,-1.7328,-1.7248,-1.7215,-1.6981,-1.7068,-1.7248,-1.7248,-1.7408,-1.7582,-1.7582,-1.7582,-1.7462,-1.6941,-1.6981,-1.7021,-1.65,-1.6547,-1.6647,-1.642,-1.6319,-1.6206,-1.5979,-1.5879,-1.5832,-1.5832,-1.5635,-1.5452,-1.5267,-1.4592,-1.3908,-1.3044,-1.1878,-1.1002,-1.0413,-0.9821,-0.9628,-1.0117,-1.0216,-1.0015,-0.9513,-0.8825,-0.8432,-0.8432,-0.8137,-0.8038,-0.8038,-0.8038,-0.8038,-0.8038,-0.8038,-0.8038,-0.8038,-0.7743,-0.7543,-1.5244,-1.5411,-1.5491,-1.5758,-1.5832,-1.6001,-1.658,-1.6739,-1.6912,-1.7682,-1.7633,-1.7541,0.0,-1.7844,-1.802,-1.8323,-1.8704,-1.9018,0.0,0.0,0.0,0.0,0.0,0.0,0.0,0.0,0.0,0.0,0.0,0.0,-1.9399,-1.9366,-1.9366,-1.9366,-1.9366,-1.9366,-1.9366,-1.9366,-1.9366,-1.9366,-1.9366,-1.9366,-1.9359,-1.9065,-1.8771,-1.8477,-1.8176,-1.7876,-1.7582,-1.7582,-1.7582,-1.7582,-1.7582,-1.7582,-1.7582,-1.7582,-1.7582,-1.7582,-1.7555,-1.7549,-1.7549,-1.7528,-1.7535,-1.7549,-1.7549,-1.7562,-1.7582,-1.7582,-1.7582,-1.7508,-1.7201,-1.7134,-1.7068,-1.6754,-1.6693,-1.67,-1.668,-1.6466,-1.6266,-1.6246,-1.6019,-1.5832,-1.5832,-1.5825,-1.573,-1.554,-1.5172,-1.4592,-1.3613,-1.2748,-1.1785,-1.0511,-1.0117,-1.0117,-1.0708,-1.0998,-1.1194,-1.1389,-0.971,-0.8627,-0.8432,-0.8137,-0.8038,-0.8038,-0.8038,-0.8038,-0.8038,-0.8038,-0.8038,-0.8038,-0.7939,-0.7842,-1.479,-1.5117,-1.5424,-1.5531,-1.5838,-1.6132,-1.6447,-1.6474,-1.6555,-1.7045,-1.7107,-1.7061,0.0,0.0,-1.8332,-1.845,-1.8891,-1.9239,0.0,0.0,0.0,0.0,0.0,0.0,0.0,0.0,0.0,0.0,0.0,0.0,-1.9392,-1.9366,-1.9366,-1.9366,-1.9366,-1.9366,-1.9366,-1.9366,-1.9366,-1.9366,-1.9366,-1.9272,-1.9085,-1.8917,-1.8615,-1.8196,-1.7889,-1.7689,-1.7582,-1.7582,-1.7582,-1.7582,-1.7582,-1.7582,-1.7582,-1.7582,-1.7582,-1.7582,-1.7582,-1.7582,-1.7582,-1.7582,-1.7582,-1.7582,-1.7582,-1.7582,-1.7582,-1.7582,-1.7582,-1.7515,-1.7228,-1.7281,-1.7341,-1.7054,-1.7121,-1.7154,-1.6787,-1.662,-1.6433,-1.6066,-1.5905,-1.5832,-1.5832,-1.5832,-1.5737,-1.573,-1.5452,-1.507,-1.4292,-1.3426,-1.2355,-1.1292,-1.0609,-1.0511,-1.0998,-1.1487,-1.1785,-1.2078,-1.06,-0.9719,-0.9422,-0.863,-0.8237,-0.8237,-0.8038,-0.8038,-0.8038,-0.8038,-0.8038,-0.8038,-0.8038,-0.7939,-1.4496,-1.4883,-1.5284,-1.5378,-1.5838,-1.6299,-1.6386,-1.6486,-1.6633,-1.6921,-1.7061,-1.7221,-1.7515,0.0,0.0,0.0,-1.9045,0.0,0.0,0.0,0.0,0.0,0.0,0.0,0.0,0.0,0.0,0.0,0.0,0.0,0.0,-1.9366,-1.9366,-1.9366,-1.9366,-1.9366,-1.9366,-1.9366,-1.9366,-1.9366,-1.9272,-1.9118,-1.8911,-1.8749,-1.8453,-1.8029,-1.7716,-1.7582,-1.7582,-1.7582,-1.7582,-1.7582,-1.7582,-1.7582,-1.7582,-1.7582,-1.7582,-1.7582,-1.7582,-1.7582,-1.7582,-1.7582,-1.7582,-1.7582,-1.7582,-1.7582,-1.7582,-1.7582,-1.7582,-1.7535,-1.7335,-1.7435,-1.7528,-1.7335,-1.7442,-1.7448,-1.6954,-1.6774,-1.656,-1.6066,-1.5892,-1.5832,-1.5832,-1.5832,-1.5832,-1.5832,-1.5635,-1.5356,-1.4783,-1.4004,-1.3033,-1.1683,-1.09,-1.0609,-1.1292,-1.178,-1.2175,-1.2565,-1.1683,-1.0806,-1.0117,-0.9126,-0.8531,-0.8432,-0.8137,-0.8038,-0.8038,-0.8038,-0.8038,-0.8038,-0.8038,-0.8038,-1.4436,-1.4736,-1.503,-1.5317,-1.5838,-1.6353,-1.664,-1.6934,-1.7235,-1.7522,-1.7836,-1.8143,-1.8437,-1.8731,0.0,-1.8925,0.0,0.0,0.0,0.0,0.0,0.0,0.0,0.0,0.0,0.0,0.0,0.0,0.0,0.0,0.0,-1.9366,-1.9366,-1.9366,-1.9366,-1.9366,-1.9366,-1.9359,-1.9359,-1.9359,-1.9058,-1.8918,-1.8911,-1.8617,-1.8323,-1.8023,-1.7716,-1.7582,-1.7582,-1.7582,-1.7582,-1.7582,-1.7582,-1.7589,-1.7589,-1.7589,-1.7589,-1.7589,-1.7589,-1.7589,-1.7582,-1.7582,-1.7582,-1.7582,-1.7582,-1.7582,-1.7582,-1.7582,-1.7582,-1.7582,-1.7582,-1.7582,-1.7582,-1.7582,-1.7582,-1.7502,-1.7208,-1.6914,-1.662,-1.6326,-1.6032,-1.5832,-1.5832,-1.5832,-1.5832,-1.5832,-1.5832,-1.5547,-1.4783,-1.449,-1.3619,-1.178,-1.0904,-1.0708,-1.1492,-1.1883,-1.237,-1.305,-1.2953,-1.2078,-1.0511,-0.9418,-0.8726,-0.8432,-0.8137,-0.8038,-0.8038,-0.8038,-0.8038,-0.8038,-0.8038,-0.8038,-1.4195,-1.4583,-1.4983,-1.507,-1.5845,-1.66,-1.6687,-1.6934,-1.7295,-1.7802,-1.815,-1.8384,-1.8477,-1.8731,0.0,0.0,0.0,0.0,0.0,0.0,0.0,0.0,0.0,0.0,0.0,0.0,0.0,0.0,0.0,0.0,0.0,-1.9366,-1.9366,-1.9366,-1.9165,-1.9058,-1.9058,-1.8851,-1.8751,-1.8751,-1.8664,-1.8617,-1.8611,-1.831,-1.8009,-1.7716,-1.7622,-1.7582,-1.7582,-1.7582,-1.7582,-1.7582,-1.7582,-1.7716,-1.7909,-1.7909,-1.7909,-1.7909,-1.7909,-1.7762,-1.7582,-1.7582,-1.7582,-1.7582,-1.7582,-1.7582,-1.7582,-1.7582,-1.7582,-1.7582,-1.7582,-1.7582,-1.7582,-1.7582,-1.7582,-1.7442,-1.6947,-1.6767,-1.6553,-1.6059,-1.5885,-1.5832,-1.5832,-1.5832,-1.5832,-1.5832,-1.5832,-1.5642,-1.5077,-1.4292,-1.3426,-1.2462,-1.1683,-1.1292,-1.159,-1.198,-1.2565,-1.305,-1.305,-1.2662,-1.1883,-1.0605,-0.9817,-0.9525,-0.873,-0.8233,-0.8233,-0.8137,-0.8038,-0.8038,-0.8038,-0.8038,-1.4088,-1.4516,-1.4963,-1.4963,-1.5845,-1.6767,-1.7001,-1.7194,-1.7495,0.0,-1.8364,-1.8564,-1.8798,-1.8985,0.0,0.0,0.0,0.0,0.0,0.0,0.0,0.0,0.0,0.0,0.0,0.0,0.0,0.0,0.0,0.0,0.0,-1.9259,-1.9192,-1.9192,-1.8905,-1.8751,-1.8751,-1.8577,-1.849,-1.849,-1.837,-1.831,-1.831,-1.813,-1.7876,-1.7582,-1.7582,-1.7582,-1.7582,-1.7582,-1.7582,-1.7582,-1.7582,-1.7695,-1.7876,-1.8003,-1.805,-1.805,-1.805,-1.7923,-1.7749,-1.7622,-1.7582,-1.7582,-1.7582,-1.7582,-1.7582,-1.7582,-1.7582,-1.7582,-1.7582,-1.7582,-1.7582,-1.7582,-1.7582,-1.7422,-1.6834,-1.6707,-1.6533,-1.5945,-1.5832,-1.5832,-1.5832,-1.5832,-1.5832,-1.5832,-1.573,-1.5547,-1.5267,-1.449,-1.3811,-1.3232,-1.2554,-1.2165,-1.1975,-1.2175,-1.2565,-1.305,-1.3249,-1.3244,-1.3141,-1.1585,-1.0507,-1.0216,-0.9126,-0.8528,-0.8432,-0.8137,-0.8038,-0.8038,-0.8038,-0.8038,-1.4088,-1.4516,-1.4963,-1.4963,-1.5845,-1.686,-1.7448,-1.7582,-1.7742,-1.833,0.0,-1.8657,-1.9192,-1.9312,-1.9325,0.0,0.0,0.0,0.0,0.0,0.0,0.0,0.0,0.0,0.0,0.0,0.0,0.0,0.0,0.0,0.0,-1.9045,-1.8885,-1.8885,-1.8604,-1.845,-1.845,-1.8424,-1.841,-1.8404,-1.8136,-1.8003,-1.8003,-1.8003,-1.7849,-1.7582,-1.7582,-1.7582,-1.7582,-1.7582,-1.7582,-1.7582,-1.7582,-1.7602,-1.7662,-1.7943,-1.807,-1.809,-1.8063,-1.805,-1.7996,-1.7682,-1.7582,-1.7582,-1.7582,-1.7582,-1.7582,-1.7582,-1.7582,-1.7582,-1.7582,-1.7582,-1.7582,-1.7582,-1.7582,-1.7428,-1.6867,-1.6727,-1.654,-1.5979,-1.5845,-1.5832,-1.5832,-1.5832,-1.5832,-1.5832,-1.5635,-1.554,-1.554,-1.5089,-1.4617,-1.4106,-1.3534,-1.3055,-1.2565,-1.2467,-1.2662,-1.3147,-1.3346,-1.3732,-1.4202,-1.236,-1.1096,-1.0605,-0.9517,-0.8825,-0.8432,-0.8137,-0.8038,-0.8038,-0.8038,-0.8038,-1.4088,-1.4516,-1.4963,-1.4963,-1.5845,-1.686,-1.7448,-1.7582,-1.7689,-1.8063,-1.833,-1.8531,-1.8657,-1.8865,0.0,0.0,0.0,0.0,0.0,0.0,0.0,0.0,0.0,0.0,0.0,0.0,0.0,0.0,0.0,0.0,-1.9018,-1.8744,-1.8584,-1.8584,-1.8297,-1.8143,-1.8143,-1.7903,-1.7776,0.0,-1.7709,-1.7682,-1.7682,-1.7682,-1.7649,-1.7582,-1.7582,-1.7582,-1.7582,-1.7582,-1.7582,-1.7582,-1.7582,-1.7742,-1.8077,-1.8029,-1.8448,-1.8988,-1.8258,-1.8036,-1.7976,-1.7682,-1.7582,-1.7582,-1.7582,-1.7582,-1.7582,-1.7582,-1.7582,-1.7582,-1.7582,-1.7582,-1.7582,-1.7582,-1.7582,-1.7482,-1.7128,-1.6874,-1.66,-1.6246,-1.5985,-1.5832,-1.5832,-1.5832,-1.5832,-1.5832,-1.573,-1.573,-1.573,-1.5641,-1.5409,-1.491,-1.4582,-1.4125,-1.363,-1.342,-1.3323,-1.342,-1.3437,-1.3636,-1.3925,-1.313,-1.2452,-1.1975,-1.0703,-0.9723,-0.9034,-0.8535,-0.8237,-0.8038,-0.8038,-0.8038,-1.4088,-1.4516,-1.5064,-1.5484,-1.6152,-1.682,-1.7275,-1.7482,-1.7629,-1.7789,-1.8063,-1.8323,-1.8464,-1.8611,0.0,0.0,0.0,0.0,0.0,0.0,0.0,0.0,0.0,0.0,0.0,0.0,0.0,0.0,0.0,-1.8718,-1.8718,-1.8437,-1.8277,-1.8277,-1.7849,-1.7615,-1.7615,-1.7455,-1.7375,-1.7375,-1.7515,-1.7582,-1.7582,-1.7582,-1.7582,-1.7582,-1.7582,-1.7582,-1.7582,-1.7582,-1.7582,-1.7582,-1.7582,-1.7689,-1.7963,-1.7996,-1.8279,-1.8639,-1.8225,-1.8043,-1.7983,-1.7682,-1.7582,-1.7582,-1.7582,-1.7582,-1.7582,-1.7582,-1.7582,-1.7582,-1.7582,-1.7582,-1.7582,-1.7582,-1.7582,-1.7502,-1.7215,-1.6914,-1.662,-1.6333,-1.6032,-1.5832,-1.5832,-1.5832,-1.5832,-1.5832,-1.5832,-1.5832,-1.5832,-1.5863,-1.5711,-1.5376,-1.5197,-1.483,-1.4112,-1.3806,-1.3613,-1.3329,-1.3147,-1.3147,-1.3528,-1.3136,-1.2851,-1.2565,-1.1292,-1.0212,-0.9422,-0.873,-0.8233,-0.8038,-0.8038,-0.8038,-1.4088,-1.4516,-1.5177,-1.6052,-1.6453,-1.672,-1.7068,-1.7335,-1.7522,-1.7569,-1.7789,-1.8043,-1.829,0.0,0.0,0.0,0.0,0.0,0.0,0.0,0.0,0.0,0.0,0.0,0.0,0.0,0.0,0.0,0.0,-1.841,-1.841,-1.8083,-1.7889,-1.7889,-1.7361,-1.7074,-1.7074,-1.7074,-1.7094,-1.7154,-1.7442,-1.7582,-1.7582,-1.7582,-1.7582,-1.7582,-1.7582,-1.7582,-1.7582,-1.7582,-1.7582,-1.7582,-1.7582,-1.7582,-1.7615,-1.7869,-1.8003,-1.8043,-1.7989,-1.8003,-1.7996,-1.7682,-1.7582,-1.7582,-1.7582,-1.7582,-1.7582,-1.7582,-1.7582,-1.7582,-1.7582,-1.7582,-1.7582,-1.7582,-1.7542,-1.7442,-1.7201,-1.6914,-1.662,-1.6333,-1.6032,-1.5832,-1.5832,-1.5832,-1.5832,-1.5832,-1.5872,-1.5885,-1.5838,-1.5919,-1.5843,-1.5553,-1.5586,-1.5306,-1.4496,-1.41,-1.3619,-1.305,-1.2565,-1.2462,-1.2834,-1.2657,-1.2565,-1.2565,-1.1487,-1.0502,-0.9612,-0.8825,-0.8333,-0.8038,-0.8038,-0.8038,-1.4088,-1.4516,-1.5177,-1.6052,-1.6299,-1.6473,-1.7027,-1.7181,-1.7281,0.0,-1.7615,-1.7655,-1.7695,0.0,0.0,0.0,0.0,0.0,0.0,0.0,0.0,0.0,0.0,0.0,0.0,0.0,0.0,0.0,-1.827,-1.8103,-1.8103,-1.7575,-1.7268,-1.7268,-1.6941,-1.6767,-1.6767,-1.6767,-1.6894,-1.7154,-1.7442,-1.7582,-1.7582,-1.7582,-1.7582,-1.7582,-1.7582,-1.7582,-1.7582,-1.7582,-1.7582,-1.7582,-1.7582,-1.7582,-1.7589,-1.7629,-1.7822,-1.8131,-1.7742,-1.7822,-1.7996,-1.7682,-1.7582,-1.7582,-1.7582,-1.7582,-1.7582,-1.7582,-1.7582,-1.7582,-1.7582,-1.7582,-1.7582,-1.7582,-1.7388,-1.7194,-1.7257,-1.6914,-1.662,-1.6333,-1.6032,-1.5832,-1.5832,-1.5832,-1.5832,-1.5832,-1.6046,-1.6119,-1.5865,-1.6273,-1.6393,-1.579,-1.5763,-1.5622,-1.5,-1.4298,-1.3619,-1.2754,-1.2073,-1.1683,-1.178,-1.1585,-1.1487,-1.178,-1.1585,-1.09,-0.9624,-0.9023,-0.8531,-0.8038,-0.8038,-0.8038,-1.4041,-1.4491,-1.4949,-1.5655,-1.6049,-1.6339,-1.66,-1.678,-1.6934,-1.7061,-1.7094,-1.7194,-1.7522,0.0,0.0,0.0,0.0,0.0,0.0,0.0,0.0,0.0,0.0,0.0,0.0,0.0,0.0,0.0,-1.7956,-1.7716,-1.7549,-1.7295,-1.7074,-1.6907,-1.662,-1.6466,-1.6466,-1.6466,-1.6613,-1.6901,-1.7034,-1.7094,-1.7094,-1.7094,-1.7275,-1.7582,-1.7582,-1.7488,-1.7341,-1.7341,-1.7241,-1.7108,-1.7275,-1.7341,-1.7361,-1.7522,-1.7669,-1.7882,-1.7629,-1.7669,-1.7762,-1.7622,-1.7582,-1.7582,-1.7582,-1.7582,-1.7582,-1.7582,-1.7582,-1.7582,-1.7582,-1.7462,-1.7341,-1.7341,-1.7114,-1.6854,-1.6693,-1.6553,-1.638,-1.6079,-1.5919,-1.5832,-1.5832,-1.5832,-1.5885,-1.6052,-1.6186,-1.6286,-1.6313,-1.6406,-1.6366,-1.6106,-1.5853,-1.539,-1.4694,-1.3908,-1.3033,-1.1975,-1.1096,-1.0609,-1.0511,-1.0404,-1.0404,-1.0511,-1.09,-1.0605,-0.9616,-0.9023,-0.8531,-0.8038,-0.8038,-0.8038,-1.3893,-1.4224,-1.4546,-1.5113,-1.5704,-1.6082,-1.6155,0.0,-1.6613,0.0,-1.6707,-1.684,0.0,0.0,0.0,0.0,0.0,0.0,0.0,0.0,0.0,0.0,0.0,0.0,0.0,0.0,0.0,0.0,-1.7488,-1.7268,-1.7048,-1.6967,-1.6827,-1.66,-1.6313,-1.6159,-1.6159,-1.6239,-1.638,-1.66,-1.6667,-1.6707,-1.6707,-1.6707,-1.6941,-1.7361,-1.7361,-1.7235,-1.7041,-1.7041,-1.6907,-1.6727,-1.6947,-1.7081,-1.7174,-1.7388,-1.7515,-1.7582,-1.7582,-1.7582,-1.7582,-1.7582,-1.7582,-1.7582,-1.7582,-1.7582,-1.7582,-1.7582,-1.7582,-1.7582,-1.7582,-1.7361,-1.7148,-1.7148,-1.6867,-1.6533,-1.6319,-1.6213,-1.6092,-1.5872,-1.5832,-1.5832,-1.5832,-1.5832,-1.5925,-1.6226,-1.6333,-1.646,-1.6673,-1.658,-1.6466,-1.6393,-1.5822,-1.5076,-1.4395,-1.3357,-1.2257,-1.1096,-1.0259,-0.9693,-0.9494,-0.943,-0.9453,-0.9566,-1.0058,-1.0108,-0.941,-0.892,-0.8432,-0.8038,-0.8038,-0.8038,-1.3458,-1.3689,-1.4085,-1.4646,-1.5172,-1.5639,-1.5908,0.0,-1.6373,-1.6647,-1.6707,-1.6714,0.0,0.0,0.0,0.0,0.0,0.0,0.0,0.0,0.0,0.0,0.0,0.0,0.0,0.0,0.0,0.0,-1.676,-1.6747,-1.6727,-1.6466,-1.6313,-1.6293,-1.6005,-1.5852,-1.5852,-1.6132,-1.6279,-1.6299,-1.6573,-1.6707,-1.6707,-1.6707,-1.6727,-1.6747,-1.6747,-1.674,-1.6727,-1.6727,-1.672,-1.6707,-1.6727,-1.6901,-1.7154,-1.7271,-1.7348,-1.7582,-1.7582,-1.7582,-1.7582,-1.7582,-1.7582,-1.7582,-1.7582,-1.7582,-1.7582,-1.7582,-1.7582,-1.7582,-1.7582,-1.7355,-1.7025,-1.7148,-1.6714,-1.6293,-1.6279,-1.6052,-1.5845,-1.5832,-1.5832,-1.5832,-1.5832,-1.5832,-1.5925,-1.6226,-1.6506,-1.6687,-1.67,-1.6941,-1.6994,-1.6714,-1.5729,-1.4869,-1.4365,-1.2676,-1.1292,-1.0511,-0.9581,-0.9165,-0.9169,-0.9013,-0.9097,-0.9302,-0.9406,-0.9248,-0.8825,-0.8528,-0.8233,-0.8038,-0.8038,-0.8038,-1.2037,-1.2558,-1.3135,-1.3679,-1.4564,-1.5293,-1.5575,-1.5794,-1.6019,-1.6119,-1.6146,-1.6146,-1.6146,0.0,0.0,0.0,0.0,0.0,0.0,0.0,0.0,0.0,0.0,0.0,0.0,0.0,0.0,0.0,0.0,-1.662,-1.644,-1.6333,-1.6186,-1.5999,-1.5885,-1.5832,-1.5832,-1.5939,-1.5985,-1.5985,-1.6092,-1.6146,-1.6146,-1.6146,-1.6146,-1.6146,-1.6146,-1.6253,-1.6426,-1.6426,-1.6319,-1.6159,-1.6353,-1.6493,-1.6607,-1.6794,-1.7054,-1.7301,-1.7301,-1.7428,-1.7582,-1.7582,-1.7582,-1.7582,-1.7582,-1.7582,-1.7582,-1.7582,-1.7582,-1.7542,-1.7355,-1.7081,-1.676,-1.6393,-1.6139,-1.5985,-1.5985,-1.5905,-1.5832,-1.5832,-1.5832,-1.5832,-1.5832,-1.5832,-1.5992,-1.648,-1.664,-1.684,-1.7221,-1.7201,-1.7108,-1.6701,-1.5916,-1.4938,-1.3825,-1.2404,-1.1048,-1.0059,-0.9207,-0.8819,-0.8713,-0.8664,-0.8696,-0.8797,-0.8797,-0.8852,-0.8841,-0.8742,-0.8532,-0.8319,-0.8228,-0.8187,-1.0737,-1.1237,-1.1807,-1.2488,-1.3566,-1.4481,-1.4848,-1.5255,-1.5452,-1.5642,-1.573,-1.5737,-1.5825,0.0,0.0,0.0,0.0,0.0,0.0,0.0,0.0,0.0,0.0,0.0,0.0,0.0,0.0,0.0,0.0,0.0,-1.6132,-1.6126,-1.6032,-1.5838,-1.5832,-1.5832,-1.5832,-1.5832,-1.5832,-1.5832,-1.5832,-1.5832,-1.5832,-1.5832,-1.5832,-1.5832,-1.5832,-1.5939,-1.6126,-1.6126,-1.6005,-1.5845,-1.6046,-1.6186,-1.6293,-1.6486,-1.6814,-1.7148,-1.7148,-1.7275,-1.7442,-1.7442,-1.7368,-1.7308,-1.7408,-1.7442,-1.7442,-1.7442,-1.7435,-1.7361,-1.719,-1.6888,-1.644,-1.5945,-1.5832,-1.5832,-1.5832,-1.5832,-1.5832,-1.5832,-1.5832,-1.5832,-1.5832,-1.5832,-1.6032,-1.662,-1.6707,-1.6921,-1.7508,-1.7415,-1.7191,-1.6892,-1.6003,-1.4909,-1.3664,-1.2123,-1.0745,-0.9735,-0.9068,-0.8668,-0.8554,-0.8608,-0.8635,-0.8635,-0.8635,-0.8745,-0.8855,-0.8857,-0.8696,-0.8479,-0.8384,-0.8316,0.0,0.0,0.0,-1.1175,-1.2099,-1.3014,-1.373,0.0,-1.4854,-1.5324,-1.5425,-1.5527,-1.5724,-1.5825,0.0,0.0,0.0,0.0,0.0,0.0,0.0,0.0,0.0,0.0,0.0,0.0,0.0,0.0,-1.5832,-1.5832,-1.5832,-1.5832,-1.5832,-1.5832,-1.5832,-1.5832,-1.5832,-1.5832,-1.5832,-1.5832,-1.5832,-1.5832,-1.5832,-1.5832,-1.5832,-1.5832,-1.5832,-1.5832,-1.5832,-1.5832,-1.5832,-1.5832,-1.5832,-1.6005,-1.6259,-1.6259,-1.6627,-1.7121,-1.7121,-1.723,-1.7237,-1.7237,-1.6941,-1.676,-1.7048,-1.7237,-1.7237,-1.7237,-1.7121,-1.6952,-1.6995,-1.6697,-1.6296,-1.5899,-1.5832,-1.5832,-1.5832,-1.5832,-1.5832,-1.5832,-1.5832,-1.5832,-1.5832,-1.5832,-1.6032,-1.662,-1.6707,-1.6921,-1.7508,-1.7582,-1.7483,-1.7173,-1.5872,-1.4763,-1.3803,-1.1722,-1.0272,-0.9758,-0.9058,-0.8713,-0.8716,-0.8859,-0.894,-0.894,-0.894,-0.894,-0.894,-0.8638,-0.8496,-0.8496,-0.8489,-0.8414,-0.8425,0.0,0.0,0.0,0.0,0.0,0.0,0.0,-1.3713,-1.4087,-1.4433,-1.4771,-1.5232,-1.5402,-1.5635,0.0,0.0,0.0,0.0,0.0,0.0,0.0,0.0,0.0,0.0,0.0,0.0,0.0,-1.5832,-1.5832,-1.5832,-1.5832,-1.5832,-1.5832,-1.5832,-1.5832,-1.5832,-1.5832,-1.5832,-1.5832,-1.5832,-1.5832,-1.5832,-1.5832,-1.5832,-1.5832,-1.5832,-1.5832,-1.5832,-1.5832,-1.5832,-1.5832,-1.5832,-1.5879,-1.5952,-1.5952,-1.6192,-1.6513,-1.6513,-1.6653,-1.6827,-1.6827,-1.6774,-1.672,-1.68,-1.6827,-1.6827,-1.6827,-1.6827,-1.676,-1.6572,-1.6276,-1.5932,-1.5845,-1.5832,-1.5832,-1.5832,-1.5832,-1.5832,-1.5832,-1.5832,-1.5832,-1.5832,-1.5832,-1.6032,-1.662,-1.6707,-1.6921,-1.7508,-1.7483,-1.7173,-1.6643,-1.5506,-1.4174,-1.2866,-1.1403,-1.019,-0.9566,-0.8963,-0.876,-0.8869,-0.8916,-0.894,-0.894,-0.894,-0.894,-0.894,-0.8855,-0.8811,-0.8811,-0.8699,-0.8567,-0.7594,-0.7905,-0.8315,-0.891,0.0,0.0,-1.1273,-1.1844,-1.2296,0.0,-1.3439,-1.3921,-1.4656,-1.508,-1.5363,-1.5551,0.0,0.0,0.0,0.0,0.0,0.0,0.0,0.0,0.0,-1.5832,-1.5832,-1.5832,-1.5832,-1.5832,-1.5832,-1.5832,-1.5832,-1.5832,-1.5832,-1.5832,-1.5832,-1.5832,-1.5832,-1.5832,-1.5832,-1.5832,-1.5832,-1.5832,-1.5832,-1.5832,-1.5832,-1.5832,-1.5832,-1.5832,-1.5832,-1.5832,-1.5832,-1.5832,-1.5832,-1.5832,-1.6019,-1.6273,-1.6273,-1.6386,-1.6526,-1.6526,-1.644,-1.6359,-1.6486,-1.6526,-1.6526,-1.6526,-1.6433,-1.6299,-1.6132,-1.5959,-1.5832,-1.5832,-1.5832,-1.5832,-1.5832,-1.5832,-1.5832,-1.5832,-1.5832,-1.5737,-1.5737,-1.5635,-1.5833,-1.6321,-1.6406,-1.6616,-1.7187,-1.6955,-1.6643,-1.5998,-1.4917,-1.3727,-1.2313,-1.1133,-1.0144,-0.9482,-0.8965,-0.8845,-0.8933,-0.894,-0.894,-0.894,-0.894,-0.894,-0.894,-0.894,-0.894,-0.8937,-0.8849,-0.8723,-0.7091,-0.7051,-0.7326,-0.7949,-0.8521,0.0,-0.9898,-1.0301,-1.0851,0.0,-1.2422,-1.2995,-1.3904,-1.4507,-1.4989,-1.5299,-1.5611,0.0,0.0,0.0,0.0,0.0,0.0,0.0,-1.5832,-1.5832,-1.5832,-1.5832,-1.5832,-1.5832,-1.5832,-1.5832,-1.5832,-1.5832,-1.5832,-1.5832,-1.5832,-1.5832,-1.5832,-1.5832,-1.5832,-1.5832,-1.5832,-1.5832,-1.5832,-1.5832,-1.5832,-1.5832,-1.5832,-1.5832,-1.5832,-1.5832,-1.5832,-1.5832,-1.5832,-1.5832,-1.5999,-1.6226,-1.6226,-1.6226,-1.6226,-1.6226,-1.6046,-1.5879,-1.6146,-1.6226,-1.6226,-1.6226,-1.6032,-1.5832,-1.5832,-1.5832,-1.5832,-1.5832,-1.5832,-1.5825,-1.5737,-1.5737,-1.5737,-1.5737,-1.5737,-1.573,-1.5445,-1.5445,-1.5448,-1.572,-1.5802,-1.6005,-1.6449,-1.6318,-1.5998,-1.5452,-1.4266,-1.3083,-1.2005,-1.0802,-0.9926,-0.9379,-0.9047,-0.894,-0.894,-0.894,-0.894,-0.894,-0.894,-0.894,-0.894,-0.894,-0.894,-0.894,-0.894,-0.8866,-0.7429,-0.7388,0.0,0.0,0.0,0.0,-0.8557,-0.8916,-0.9442,0.0,-1.0642,-1.1478,-1.2644,-1.3225,-1.3933,-1.4989,-1.516,-1.5371,0.0,0.0,0.0,0.0,0.0,0.0,-1.5832,-1.5832,-1.5832,-1.5832,-1.5832,-1.5832,-1.5832,-1.5832,-1.5832,-1.5832,-1.5832,-1.5832,-1.5832,-1.5832,-1.5832,-1.5832,-1.5832,-1.5832,-1.5832,-1.5832,-1.5832,-1.5832,-1.5832,-1.5832,-1.5832,-1.5832,-1.5832,-1.5832,-1.5832,-1.5832,-1.5832,-1.5832,-1.5865,-1.5912,-1.5912,-1.5912,-1.5912,-1.5912,-1.5879,-1.5838,-1.5899,-1.5912,-1.5912,-1.5912,-1.5872,-1.5832,-1.5832,-1.5832,-1.5832,-1.5832,-1.5832,-1.573,-1.5635,-1.554,-1.5445,-1.5267,-1.5452,-1.5452,-1.5172,-1.4783,-1.4673,-1.4915,-1.4892,-1.5082,-1.5707,-1.5464,-1.5035,-1.4493,-1.3192,-1.2001,-1.1021,-1.0147,-0.9379,-0.9051,-0.8937,-0.894,-0.894,-0.894,-0.894,-0.894,-0.894,-0.894,-0.894,-0.894,-0.894,-0.894,-0.894,-0.8923,0.0,0.0,0.0,-0.7285,0.0,0.0,0.0,-0.8025,-0.8376,-0.9082,-0.9587,-1.0353,-1.1505,-1.2237,-1.3027,-1.411,-1.4641,-1.5119,-1.5596,0.0,0.0,0.0,0.0,0.0,-1.5832,-1.5832,-1.5832,-1.5832,-1.5832,-1.5832,-1.5832,-1.5832,-1.5832,-1.5832,-1.5832,-1.5832,-1.5832,-1.5832,-1.5832,-1.5832,-1.5832,-1.5832,-1.5832,-1.5832,-1.5832,-1.5832,-1.5832,-1.5832,-1.5832,-1.5832,-1.5832,-1.5832,-1.5832,-1.5832,-1.5832,-1.5832,-1.5832,-1.5832,-1.5832,-1.5832,-1.5737,-1.5635,-1.5635,-1.5635,-1.5452,-1.5547,-1.5635,-1.5635,-1.5635,-1.5635,-1.535,-1.5261,-1.5261,-1.5064,-1.5064,-1.5064,-1.4968,-1.4873,-1.4777,-1.4586,-1.4594,-1.4692,-1.4698,-1.4205,-1.3882,-1.3979,-1.3844,-1.397,-1.4325,-1.4169,-1.3743,-1.3192,-1.2219,-1.1236,-1.0363,-0.9706,-0.9268,-0.894,-0.894,-0.894,-0.894,-0.894,-0.894,-0.894,-0.894,-0.894,-0.894,-0.894,-0.894,-0.894,-0.894,-0.894,0.0,0.0,0.0,0.0,0.0,-0.7143,0.0,0.0,0.0,-0.8472,-0.8811,-0.9323,-1.0458,0.0,0.0,0.0,0.0,0.0,0.0,-1.5507,0.0,0.0,0.0,0.0,0.0,-1.5832,-1.5832,-1.5832,-1.5832,-1.5832,-1.5832,-1.5832,-1.5832,-1.5832,-1.5832,-1.5832,-1.5832,-1.5832,-1.5832,-1.5832,-1.5832,-1.5832,-1.5832,-1.5832,-1.5832,-1.5832,-1.5832,-1.5832,-1.5832,-1.573,-1.573,-1.5737,-1.5737,-1.5832,-1.5832,-1.573,-1.573,-1.573,-1.5743,-1.5648,-1.5547,-1.5458,-1.5356,-1.5255,-1.5077,-1.5166,-1.5356,-1.5356,-1.5248,-1.5057,-1.4682,-1.4388,-1.4286,-1.4196,-1.41,-1.41,-1.4004,-1.4004,-1.3902,-1.3619,-1.3428,-1.3502,-1.38,-1.3441,-1.3009,-1.2906,-1.2649,-1.2617,-1.2832,-1.2654,-1.2332,-1.1782,-1.124,-1.0582,-0.9816,-0.9489,-0.9158,-0.894,-0.894,-0.894,-0.894,-0.894,-0.894,-0.894,-0.894,-0.894,-0.894,-0.894,-0.894,-0.894,-0.894,-0.894,0.0,0.0,0.0,0.0,-0.7139,0.0,0.0,0.0,-0.7231,-0.7591,0.0,-0.8285,0.0,0.0,0.0,0.0,0.0,0.0,-1.4297,-1.51,-1.5635,-1.5737,0.0,0.0,0.0,-1.5832,-1.5832,-1.5832,-1.5832,-1.5832,-1.5832,-1.5832,-1.5832,-1.5832,-1.5832,-1.5832,-1.5832,-1.5832,-1.5832,-1.5832,-1.5832,-1.5832,-1.5832,-1.5832,-1.5832,-1.5832,-1.5832,-1.5832,-1.5825,-1.5635,-1.554,-1.554,-1.573,-1.5832,-1.5737,-1.5635,-1.554,-1.5547,-1.5402,-1.5102,-1.479,-1.491,-1.47,-1.449,-1.4688,-1.479,-1.4783,-1.4783,-1.4376,-1.3968,-1.3998,-1.3488,-1.308,-1.3505,-1.3613,-1.3414,-1.3022,-1.2926,-1.2737,-1.2268,-1.2147,-1.2194,-1.2694,-1.2263,-1.1751,-1.146,-1.1167,-1.1121,-1.1319,-1.1345,-1.1236,-1.0911,-1.0363,-0.9816,-0.9489,-0.9158,-0.8937,-0.894,-0.894,-0.894,-0.894,-0.894,-0.894,-0.894,-0.894,-0.894,-0.894,-0.894,-0.894,-0.894,-0.894,-0.894,0.0,0.0,0.0,0.0,0.0,0.0,-0.7139,0.0,-0.7143,0.0,0.0,0.0,0.0,0.0,0.0,0.0,-1.1589,0.0,0.0,0.0,-1.4873,0.0,0.0,0.0,0.0,0.0,0.0,0.0,-1.5832,-1.5832,-1.5832,-1.5832,-1.5737,-1.5635,-1.5635,-1.5547,-1.5363,-1.5363,-1.5363,-1.5363,-1.5363,-1.5452,-1.5635,-1.5635,-1.5635,-1.5635,-1.5635,-1.5445,-1.5166,-1.507,-1.4873,-1.458,-1.4675,-1.4873,-1.5166,-1.4873,-1.4682,-1.458,-1.4508,-1.4406,-1.4202,-1.4112,-1.3823,-1.3624,-1.3709,-1.3806,-1.3709,-1.3607,-1.3409,-1.3011,-1.2452,-1.2052,-1.1853,-1.1765,-1.1673,-1.1673,-1.1375,-1.138,-1.1282,-1.09,-1.0952,-1.1062,-1.0959,-1.1028,-1.1013,-1.077,-1.047,-1.0276,-1.0355,-1.0363,-1.0253,-0.9926,-0.9706,-0.9489,-0.9158,-0.8937,-0.894,-0.894,-0.894,-0.894,-0.894,-0.894,-0.894,-0.894,-0.894,-0.894,-0.894,-0.894,-0.8893,-0.8808,-0.8896,-0.894,-0.8372,0.0,0.0,0.0,0.0,0.0,0.0,0.0,0.0,0.0,0.0,0.0,0.0,0.0,0.0,0.0,0.0,-1.1289,0.0,-1.2963,0.0,0.0,0.0,0.0,0.0,0.0,0.0,-1.5832,-1.5832,-1.5832,-1.5832,-1.5832,-1.573,-1.554,-1.5452,-1.5261,-1.4987,-1.4892,-1.4885,-1.4885,-1.4885,-1.4975,-1.5159,-1.5159,-1.5159,-1.5159,-1.5064,-1.4873,-1.449,-1.4196,-1.3902,-1.3511,-1.3227,-1.3426,-1.3721,-1.3811,-1.3709,-1.3511,-1.3329,-1.3227,-1.3125,-1.2931,-1.2748,-1.2657,-1.2646,-1.264,-1.264,-1.2349,-1.2247,-1.196,-1.1096,-1.0806,-1.0703,-1.0314,-1.0216,-1.0117,-1.0117,-1.0122,-1.0139,-0.9788,-0.9945,-0.9959,-0.9594,-1.0063,-1.0438,-1.0127,-0.9816,-0.9596,-0.9596,-0.9596,-0.9485,-0.9268,-0.9268,-0.9158,-0.894,-0.894,-0.894,-0.894,-0.894,-0.894,-0.894,-0.894,-0.894,-0.894,-0.894,-0.8916,-0.8876,-0.8876,-0.8798,-0.8652,-0.8804,-0.8855,0.0,0.0,0.0,-0.7143,0.0,0.0,0.0,0.0,-0.7139,0.0,0.0,0.0,0.0,0.0,0.0,0.0,0.0,0.0,0.0,0.0,0.0,0.0,0.0,0.0,0.0,0.0,-1.5832,-1.5832,-1.5832,-1.5832,-1.5832,-1.5832,-1.573,-1.554,-1.5267,-1.4987,-1.4694,-1.449,-1.4298,-1.4298,-1.4298,-1.4298,-1.4298,-1.4298,-1.4298,-1.4298,-1.41,-1.3908,-1.3902,-1.3119,-1.2732,-1.2635,-1.1678,-1.1292,-1.1389,-1.2446,-1.2732,-1.2635,-1.1975,-1.158,-1.1272,-1.1287,-1.1389,-1.1688,-1.1683,-1.1683,-1.1585,-1.1292,-1.1096,-1.0703,-1.0216,-0.9826,-0.9628,-0.9628,-0.9628,-0.9529,-0.9335,-0.9442,-0.9494,-0.9142,-0.8998,-0.8944,-0.9101,-0.9479,-0.9699,-0.9489,-0.9158,-0.8937,-0.8937,-0.8937,-0.8937,-0.894,-0.894,-0.894,-0.894,-0.894,-0.894,-0.894,-0.894,-0.894,-0.894,-0.894,-0.894,-0.894,-0.894,-0.8866,-0.8716,-0.8716,-0.8638,-0.8492,-0.8648,-0.8638,0.0,0.0,-0.7415,-0.7143,0.0,0.0,0.0,0.0,0.0,0.0,0.0,0.0,0.0,0.0,0.0,0.0,0.0,0.0,0.0,0.0,0.0,0.0,0.0,0.0,0.0,0.0,0.0,-1.5545,-1.5364,-1.5245,-1.5245,-1.5252,-1.5055,-1.4478,-1.4388,-1.3913,-1.3147,-1.305,-1.2948,-1.2754,-1.2754,-1.2937,-1.3216,-1.3216,-1.3216,-1.3221,-1.3119,-1.2737,-1.2063,-1.177,-1.138,-1.089,-1.0507,-1.0314,-1.0216,-1.0895,-1.1086,-1.0895,-1.09,-1.0998,-1.1189,-1.0998,-1.1096,-1.1194,-1.0703,-1.0507,-1.0413,-1.0019,-0.9826,-0.9628,-0.913,-0.8829,-0.873,-0.8535,-0.8535,-0.8535,-0.8439,-0.8625,-0.8718,-0.8565,-0.8675,-0.8755,-0.8807,-0.9054,-0.9158,-0.9047,-0.894,-0.894,-0.894,-0.894,-0.894,-0.894,-0.894,-0.894,-0.894,-0.894,-0.894,-0.894,-0.894,-0.894,-0.894,-0.894,-0.894,-0.894,-0.8838,-0.876,-0.871,-0.8608,-0.8482,-0.8343,-0.8394,-0.8442,-0.7499,-0.7326,0.0,-0.7143,-0.7139,0.0,-0.7139,0.0,0.0,0.0,0.0,0.0,0.0,0.0,0.0,0.0,0.0,0.0,0.0,-1.0675,0.0,0.0,0.0,0.0,0.0,-1.5252,-1.5146,-1.5244,-1.507,-1.4993,0.0,0.0,-1.4678,-1.4088,-1.3902,-1.3329,-1.237,-1.2175,-1.1883,-1.159,-1.159,-1.1678,-1.1863,-1.1863,-1.1863,-1.1863,-1.176,-1.138,-1.0801,-1.0609,-1.0216,-0.9723,-0.9525,-0.9324,-0.9229,-0.9821,-0.9821,-0.962,-0.9817,-1.0113,-1.0408,-1.0212,-1.031,-1.0408,-0.9719,-0.962,-0.9521,-0.9031,-0.8935,-0.8832,-0.8336,-0.8237,-0.8247,-0.8109,-0.8123,-0.8136,-0.8187,-0.8275,-0.836,-0.8418,-0.8581,-0.873,-0.8784,-0.8872,-0.894,-0.894,-0.894,-0.894,-0.894,-0.894,-0.894,-0.894,-0.894,-0.894,-0.894,-0.894,-0.894,-0.894,-0.894,-0.8913,-0.8859,-0.8859,-0.8832,-0.8777,-0.8679,-0.8604,-0.8554,-0.8455,-0.8333,-0.8187,-0.8187,-0.8238]}]]